     2              OBSERVATION DATA    GPS                 RINEX VERSION / TYPE
ASHTORIN USGS 12 - MAY - 93 12:35                           PGM / RUN BY / DATE
                                                            COMMENT
Original Marker Name: rh32 Red_Hill_1932_USC&GS             COMMENT
Campaign Name: USGS Parkfield                               COMMENT
4-Character Station Name: REDH                              COMMENT
6-Character Antenna Code: ASHP12                            COMMENT
Vertical Measurement Point: EGP                             COMMENT
Vertical Offset to Rinex Ref. Point: 0.0593                 COMMENT
Radial Measurement Point: EGP                               COMMENT
Radial Offset to Rinex Ref. Point: 0.1425                   COMMENT
Antenna Height from Field Measurement: 1.3450 m             COMMENT
Additional Antenna Identification Info.:                    COMMENT
Ashtech L1/L2 Revision B (700228DE)                         COMMENT
Original XYZ: -2607901.5900 -4469335.8500 3717603.7000      COMMENT
New XYZ position is based on association with SCEC monument COMMENT
E1F1D7I9+0011. Position of that monument is believed to be  COMMENT
valid to within 1 m horizontally; vertical accuracy         COMMENT
should be no worse than 3-times this value.                 COMMENT
                                                            COMMENT
Revised Rinex header created by UCSD GPS archive for        COMMENT
GSAC on 08-Jul-2000 (2000:190) 02:03:36 GMT                 COMMENT
For assistance contact dagnew@ucsd.edu                      COMMENT
or anderson@python.ucsd.edu                                 COMMENT
                                                            COMMENT
RED HILL 1932                                               MARKER NAME
                                                            MARKER NUMBER
CHS US GEOLOGICAL SURVEY                                    OBSERVER / AGENCY
765 ASHTECH L-XII 6M24                                      REC # / TYPE / VERS
058 ASHTECH GEODETIC P                                      ANT # / TYPE
 -2616550.6533 -4484767.4332  3693079.8275                  APPROX POSITION XYZ
        1.2781        0.0000        0.0000                  ANTENNA: DELTA H/E/N
     1     2     0                                          WAVELENGTH FACT L1/2
     4    L1    L2    C1    D1                              # / TYPES OF OBSERV
    30                                                      INTERVAL
  1993     5     8     3     0   30.000000                  TIME OF FIRST OBS
  1993     5     8    13    29   60.000000                  TIME OF LAST OBS
    18                                                      # OF SATELLITES
           1   737   737   737   737                        PRN / # OF OBS
           3   580   580   580   580                        PRN / # OF OBS
          12   203   203   203   203                        PRN / # OF OBS
          14   361   361   361   361                        PRN / # OF OBS
          15   547   547   547   547                        PRN / # OF OBS
          16   243   243   243   243                        PRN / # OF OBS
          17   715   715   715   715                        PRN / # OF OBS
          18    84    84    84    84                        PRN / # OF OBS
          20   252   252   252   252                        PRN / # OF OBS
          21   810   810   810   810                        PRN / # OF OBS
          22   609   609   609   609                        PRN / # OF OBS
          23   754   754   754   754                        PRN / # OF OBS
          24    62    62    62    62                        PRN / # OF OBS
          25   554   554   554   554                        PRN / # OF OBS
          26   444   444   444   444                        PRN / # OF OBS
          28   552   552   552   552                        PRN / # OF OBS
          29   331   331   331   331                        PRN / # OF OBS
                                                            END OF HEADER
 93  5  8  3  0 30.0000000  0  5 24 16 17 20  3                      0.000615390
  15096401.91316  -7161832.08215  23948481.196        2666.923
  -7002103.63418 -18614787.38717  21535677.830         544.823
  -9844605.76816  -7151132.74815  22747737.447       -2653.706
 -11051519.06118  -8732430.31419  20770593.986        1179.129
 -24160214.39417  -9944202.73215  22674483.012       -2005.554
 93  5  8  3  1  0.0000000  0  5 24 16 17 20  3                      0.000612870
  15176427.555 6  -7099474.462 5  23963709.659        2667.714
  -6985473.201 8 -18601828.600 7  21538842.609         563.658
  -9924095.327 6  -7213072.622 5  22732610.915       -2645.785
 -11015861.136 8  -8704644.939 9  20777379.718        1197.957
 -24220348.142 7  -9991060.205 5  22663039.894       -2003.749
 93  5  8  3  1 30.0000000  0  5 24 16 17 20  3                      0.000610340
  15256465.921 6  -7037107.022 5  23978940.086        2668.045
  -6968271.393 8 -18588424.594 7  21542116.163         583.200
 -10003345.724 6  -7274826.124 5  22717529.981       -2637.649
 -10979634.478 8  -8676416.408 9  20784273.557        1217.098
 -24280424.727 7 -10037873.084 5  22651607.690       -2001.598
 93  5  8  3  2  0.0000000  0  5 24 16 17 20  3                      0.000607780
  15336503.316 6  -6974740.301 5  23994171.062        2667.741
  -6950481.980 8 -18574562.715 7  21545501.360         602.785
 -10082353.515 6  -7336390.611 5  22702495.400       -2629.572
 -10942834.711 8  -8647741.276 9  20791276.269        1236.321
 -24340437.960 7 -10084636.631 5  22640187.774       -1999.351
 93  5  8  3  2 30.0000000  0  5 24 16 17 20  3                      0.000605190
  15416527.618 6  -6912383.753 5  24009399.368        2667.124
  -6932105.193 8 -18560243.133 7  21548998.377         622.355
 -10161123.496 6  -7397769.763 5  22687506.076       -2621.645
 -10905458.993 8  -8618617.369 9  20798388.328        1255.324
 -24400383.201 7 -10131347.203 5  22628780.591       -1997.301
 93  5  8  3  3  0.0000000  0  5 24 16 17 20  3                      0.000602550
  15496531.831 6  -6850042.917 5  24024623.546        2666.536
  -6913141.212 8 -18545466.002 7  21552607.259         641.870
 -10239642.849 6  -7458953.629 5  22672564.430       -2612.946
 -10867515.755 8  -8589051.231 9  20805608.518        1274.245
 -24460267.883 7 -10178010.540 5  22617384.541       -1995.247
 93  5  8  3  3 30.0000000  0  5 24 16 17 20  3                      0.000599900
  15576525.230 6  -6787710.463 5  24039845.879        2666.679
  -6893595.514 8 -18530235.603 7  21556326.637         661.256
 -10317903.284 6  -7519935.718 5  22657671.679       -2604.286
 -10829007.045 8  -8559044.464 9  20812936.713        1293.070
 -24520092.473 7 -10224627.090 5  22606000.452       -1993.258
 93  5  8  3  4  0.0000000  0  5 24 16 17 20  3                      0.000597260
  15656536.878 6  -6725363.745 5  24055071.305        2667.409
  -6873463.979 8 -18514548.685 7  21560157.462         680.819
 -10395893.600 6  -7580707.350 5  22642830.513       -2595.043
 -10789931.082 8  -8528595.688 9  20820372.596        1312.024
 -24579853.468 7 -10271194.067 6  22594628.416       -1991.070
 93  5  8  3  4 30.0000000  0  5 24 16 17 20  3                      0.000594650
  15736573.997 6  -6662997.334 5  24070301.479        2668.388
  -6852753.082 8 -18498410.328 7  21564098.623         700.056
 -10473598.642 6  -7641256.694 5  22628043.621       -2585.076
 -10750289.881 8  -8497706.455 9  20827916.125        1330.795
 -24639551.385 7 -10317711.917 6  22583268.109       -1988.959
 93  5  8  3  5  0.0000000  0  5 24 16 17 20  3                      0.000592090
  15816636.147 6  -6600611.257 5  24085536.993        2669.191
  -6831463.725 8 -18481821.229 7  21568149.811         719.330
 -10551007.769 6  -7701575.431 5  22613313.121       -2575.708
 -10710086.614 8  -8466379.258 9  20835566.407        1349.440
 -24699187.350 7 -10364181.491 6  22571919.687       -1986.979
 93  5  8  3  5 30.0000000  0  5 24 16 17 20  3                      0.000589560
  15896730.793 6  -6538200.025 5  24100778.517        2670.424
  -6809588.463 8 -18464775.568 7  21572312.680         739.137
 -10628137.910 6  -7761676.791 5  22598635.771       -2566.301
 -10669322.091 8  -8434614.723 9  20843323.866        1368.298
 -24758760.680 7 -10410602.261 6  22560583.063       -1984.715
 93  5  8  3  6  0.0000000  0  5 24 16 17 20  3                      0.000587060
  15976851.740 6  -6475768.122 5  24116025.233        2671.104
  -6787122.331 8 -18447269.483 7  21576587.668         758.872
 -10704990.536 6  -7821561.896 5  22584011.234       -2557.088
 -10627995.954 8  -8402412.565 9  20851187.973        1387.024
 -24818269.305 7 -10456972.614 6  22549258.963       -1982.472
 93  5  8  3  6 30.0000000  0  5 24 16 17 20  3                      0.000584550
  16056989.352 6  -6413323.297 5  24131275.099        2671.357
  -6764065.232 8 -18429302.938 7  21580975.052         778.246
 -10781577.196 6  -7881239.784 5  22569437.585       -2548.736
 -10586107.865 8  -8369772.528 9  20859158.916        1405.503
 -24877710.908 7 -10503290.755 6  22537947.864       -1980.470
 93  5  8  3  7  0.0000000  0  5 24 16 17 20  3                      0.000582040
  16137138.768 6  -6350869.359 5  24146527.151        2672.037
  -6740427.916 8 -18410884.242 7  21585472.928         797.605
 -10857919.661 6  -7940727.384 5  22554909.984       -2540.592
 -10543663.433 8  -8336698.968 9  20867235.923        1424.165
 -24937089.174 7 -10549559.513 6  22526648.346       -1978.215
 93  5  8  3  7 30.0000000  0  5 24 16 17 20  3                      0.000579520
  16217304.729 6  -6288402.391 5  24161782.331        2672.290
  -6716215.014 8 -18392017.043 7  21590080.658         816.485
 -10934009.728 6  -8000018.285 5  22540430.326       -2532.005
 -10500662.314 8  -8303191.622 9  20875418.858        1442.597
 -24996402.167 7 -10595777.416 6  22515361.401       -1976.163
 93  5  8  3  8  0.0000000  0  5 24 16 17 20  3                      0.000577000
  16297473.565 6  -6225933.301 5  24177037.814        2672.184
  -6691435.756 8 -18372708.543 7  21594796.035         835.420
 -11009840.413 6  -8059107.077 5  22526000.025       -2523.315
 -10457108.186 8  -8269253.367 9  20883707.100        1460.943
 -25055651.600 7 -10641945.808 6  22504086.694       -1974.049
 93  5  8  3  8 30.0000000  0  5 24 16 17 20  3                      0.000574480
  16377637.821 5  -6163467.701 5  24192292.684        2671.923
  -6666086.400 8 -18352955.799 7  21599619.655         854.298
 -11085406.948 6  -8117990.042 5  22511620.049       -2514.529
 -10413000.739 8  -8234883.956 9  20892100.331        1479.346
 -25114834.898 7 -10688062.636 6  22492824.622       -1971.858
 93  5  8  3  9  0.0000000  0  5 24 16 17 20  3                      0.000571950
  16457786.295 5  -6101014.390 5  24207544.075        2671.141
  -6640168.713 8 -18332760.201 7  21604551.539         873.511
 -11160702.354 6  -8176661.721 5  22497291.900       -2505.243
 -10368341.236 8  -8200084.360 9  20900598.536        1497.836
 -25173952.065 7 -10734127.950 6  22481575.009       -1969.576
 93  5  8  3  9 30.0000000  0  5 24 16 17 20  3                      0.000569410
  16537904.984 5  -6038584.414 5  24222790.193        2669.967
  -6613669.214 8 -18312111.223 7  21609594.260         893.153
 -11235715.694 6  -8235113.647 5  22483017.393       -2495.822
 -10323130.557 8  -8164855.285 9  20909202.410        1516.185
 -25233001.562 7 -10780140.542 6  22470338.298       -1967.317
 93  5  8  3 10  0.0000000  0  5 24 16 17 20  3                      0.000566830
  16617984.623 5  -5976184.731 5  24238028.717        2668.579
  -6586583.791 8 -18291005.720 7  21614748.551         912.434
 -11310455.622 6  -8293352.528 5  22468794.927       -2486.882
 -10277373.189 8  -8129200.228 9  20917909.762        1534.282
 -25291985.435 7 -10826101.989 6  22459113.941       -1965.176
 93  5  8  3 10 30.0000000  0  5 24 16 17 20  3                      0.000564220
  16698027.868 5  -5913813.515 5  24253260.507        2667.562
  -6558928.830 8 -18269456.397 7  21620011.089         931.034
 -11384925.654 6  -8351381.048 5  22454623.776       -2477.815
 -10231072.865 8  -8093122.082 9  20926720.273        1552.349
 -25350905.904 7 -10872014.040 6  22447901.591       -1963.126
 93  5  8  3 11  0.0000000  0  5 24 16 17 20  3                      0.000561610
  16778049.970 5  -5851458.667 5  24268488.412        2667.233
  -6530719.829 8 -18247475.360 7  21625379.253         949.607
 -11459115.525 6  -8409191.272 5  22440505.750       -2468.249
 -10184229.452 8  -8056620.740 9  20935634.281        1570.534
 -25409760.587 7 -10917874.817 6  22436701.894       -1960.754
 93  5  8  3 11 30.0000000  0  5 24 16 17 20  3                      0.000559030
  16858069.742 5  -5789105.660 5  24283715.479        2667.553
  -6501962.627 8 -18225067.128 7  21630851.593         967.592
 -11533021.599 6  -8466780.363 5  22426441.968       -2458.933
 -10136844.480 8  -8019697.410 8  20944651.378        1588.499
 -25468548.706 7 -10963683.709 6  22425515.188       -1958.605
 93  5  8  3 12  0.0000000  0  5 24 16 17 20  3                      0.000556480
  16938106.887 5  -5726739.155 5  24298946.694        2668.095
  -6472670.937 8 -18202242.434 7  21636425.704         985.105
 -11606649.774 6  -8524152.927 5  22412431.055       -2449.780
 -10088917.591 8  -7982351.819 8  20953771.856        1606.456
 -25527268.304 7 -11009439.255 6  22414341.374       -1956.403
 93  5  8  3 12 30.0000000  0  5 24 16 17 20  3                      0.000553980
  17018159.984 5  -5664360.177 5  24314180.170        2668.744
  -6442848.174 8 -18179003.933 7  21642101.036        1003.216
 -11680002.600 6  -8581310.928 5  22398472.499       -2440.452
 -10040451.593 8  -7944586.118 8  20962994.751        1624.615
 -25585919.780 7 -11055141.678 6  22403180.180       -1953.972
 93  5  8  3 13  0.0000000  0  5 24 16 17 20  3                      0.000551490
  17098225.784 6  -5601971.334 5  24329416.174        2668.707
  -6412474.764 8 -18155336.338 7  21647880.743        1021.805
 -11753087.927 6  -8638260.487 5  22384564.698       -2432.076
  -9991446.310 8  -7906400.225 8  20972320.125        1642.320
 -25644500.655 7 -11100789.097 6  22392032.337       -1951.815
 93  5  8  3 13 30.0000000  0  5 24 16 17 20  3                      0.000548990
  17178287.354 6  -5539585.738 5  24344651.269        2668.480
  -6381535.428 8 -18131227.745 7  21653768.337        1040.781
 -11825924.207 6  -8695015.961 5  22370704.354       -2423.629
  -9941909.548 8  -7867800.162 8  20981746.690        1660.077
 -25703016.668 7 -11146385.957 6  22380897.147       -1949.590
 93  5  8  3 14  0.0000000  0  5 24 16 17 20  3                      0.000546470
  17258328.448 6  -5477216.152 5  24359882.765        2667.565
  -6350021.621 8 -18106671.546 7  21659765.047        1060.087
 -11898506.059 6  -8751573.195 5  22356892.555       -2414.938
  -9891842.857 8  -7828787.186 8  20991274.044        1677.688
 -25761467.024 7 -11191931.669 6  22369774.297       -1947.386
 93  5  8  3 14 30.0000000  0  5 24 16 17 20  3                      0.000543910
  17338341.374 6  -5414868.504 5  24375108.828        2666.664
  -6317929.519 8 -18081664.719 7  21665872.119        1079.226
 -11970823.741 6  -8807924.563 5  22343130.732       -2406.333
  -9841248.812 8  -7789363.282 8  21000901.779        1695.179
 -25819851.902 7 -11237426.349 6  22358663.860       -1945.284
 93  5  8  3 15  0.0000000  0  5 24 16 17 20  3                      0.000541340
  17418332.948 6  -5352537.460 5  24390331.028        2666.213
  -6285268.434 8 -18056214.497 7  21672087.255        1098.124
 -12042876.822 6  -8864069.781 5  22329419.378       -2397.066
  -9790127.118 8  -7749528.217 8  21010629.874        1712.977
 -25878168.768 7 -11282868.039 6  22347566.522       -1942.734
 93  5  8  3 15 30.0000000  0  5 24 16 17 20  3                      0.000538770
  17498313.494 6  -5290214.979 5  24405551.108        2665.738
  -6252051.806 8 -18030331.414 7  21678408.290        1116.141
 -12114649.209 6  -8919996.262 5  22315761.638       -2387.745
  -9738476.169 8  -7709280.747 8  21020458.719        1730.368
 -25936413.642 7 -11328253.626 6  22336482.915       -1940.527
 93  5  8  3 16  0.0000000  0  5 24 16 17 20  3                      0.000536220
  17578285.753 6  -5227899.067 5  24420769.053        2665.895
  -6218304.325 8 -18004034.693 7  21684830.254        1133.741
 -12186148.722 6  -8975710.102 5  22302155.697       -2378.951
  -9686305.165 8  -7668628.042 8  21030386.508        1747.751
 -25994593.725 7 -11373588.721 6  22325411.681       -1938.285
 93  5  8  3 16 30.0000000  0  5 24 16 17 20  3                      0.000533700
  17658261.779 6  -5165580.075 5  24435987.842        2665.834
  -6184037.257 7 -17977333.086 7  21691350.952        1150.920
 -12257392.751 6  -9031224.894 5  22288598.334       -2370.594
  -9633614.714 8  -7627570.559 8  21040413.175        1765.039
 -26052707.027 7 -11418871.765 6  22314353.095       -1936.049
 93  5  8  3 17  0.0000000  0  5 24 16 17 20  3                      0.000531180
  17738236.995 6  -5103261.794 5  24451206.581        2665.916
  -6149244.134 8 -17950221.555 7  21697972.005        1168.970
 -12328382.073 6  -9086541.190 5  22275089.517       -2361.860
  -9580403.000 8  -7586106.926 8  21050539.126        1782.530
 -26110749.247 7 -11464099.445 6  22303307.912       -1933.512
 93  5  8  3 17 30.0000000  0  5 24 16 17 20  3                      0.000528680
  17818216.162 6  -5040940.488 5  24466425.977        2666.008
  -6113895.088 8 -17922676.850 7  21704698.409        1187.746
 -12399107.562 6  -9141651.970 5  22261630.715       -2352.999
  -9526664.826 8  -7544233.038 8  21060764.926        1800.141
 -26168712.552 7 -11509265.625 6  22292277.638       -1930.772
 93  5  8  3 18  0.0000000  0  5 24 16 17 20  3                      0.000526170
  17898193.204 6  -4978620.765 5  24481645.347        2665.797
  -6077988.469 8 -17894697.684 7  21711531.309        1206.165
 -12469565.078 6  -9196553.828 5  22248222.934       -2344.088
  -9472401.268 8  -7501949.776 8  21071090.808        1817.535
 -26226595.519 7 -11554369.192 6  22281262.763       -1928.163
 93  5  8  3 18 30.0000000  0  5 24 16 17 20  3                      0.000523670
  17978153.517 5  -4916314.129 5  24496861.547        2664.639
  -6041522.868 8 -17866282.933 7  21718470.555        1224.777
 -12539741.317 6  -9251236.544 5  22234869.110       -2334.352
  -9417613.103 8  -7459257.719 8  21081516.959        1834.916
 -26284396.306 7 -11599408.733 6  22270263.716       -1925.508
 93  5  8  3 19  0.0000000  0  5 24 16 17 20  3                      0.000521150
  18058085.227 5  -4854029.734 5  24512072.450        2664.038
  -6004499.516 8 -17837433.556 7  21725515.918        1243.270
 -12609617.618 7  -9305685.564 5  22221571.826       -2324.068
  -9362302.827 8  -7416158.828 8  21092042.212        1852.386
 -26342114.917 7 -11644384.244 6  22259280.301       -1922.670
 93  5  8  3 19 30.0000000  0  5 24 16 17 20  3                      0.000518660
  18137994.052 5  -4791763.093 5  24527278.595        2663.097
  -5966940.126 7 -17808166.517 7  21732663.270        1260.434
 -12679190.106 6  -9359897.822 5  22208332.561       -2314.075
  -9306473.297 8  -7372655.315 8  21102665.937        1869.597
 -26399751.911 7 -11689296.158 6  22248312.516       -1920.076
 93  5  8  3 20  0.0000000  0  5 24 16 17 20  3                      0.000516190
  18217869.823 5  -4729522.372 5  24542478.623        2661.713
  -5928875.444 7 -17778505.738 7  21739906.596        1277.344
 -12748463.250 6  -9413876.849 5  22195150.419       -2304.359
  -9250132.498 8  -7328753.423 8  21113387.175        1886.394
 -26457312.499 7 -11734148.520 6  22237359.118       -1917.669
 93  5  8  3 20 30.0000000  0  5 24 16 17 20  3                      0.000513710
  18297701.707 5  -4667315.765 5  24557669.785        2660.324
  -5890286.792 7 -17748436.657 7  21747249.711        1295.056
 -12817448.559 6  -9467631.589 5  22182022.744       -2294.823
  -9193284.280 8  -7284456.131 8  21124204.967        1903.363
 -26514797.984 7 -11778942.382 6  22226419.941       -1915.046
 93  5  8  3 21  0.0000000  0  5 24 16 17 20  3                      0.000511230
  18377495.093 5  -4605139.109 5  24572854.149        2659.393
  -5851175.526 7 -17717960.370 7  21754692.300        1312.517
 -12886161.926 7  -9521174.431 5  22168947.118       -2285.892
  -9135934.834 8  -7239768.272 8  21135118.373        1920.090
 -26572211.449 7 -11823680.125 6  22215494.544       -1912.620
 93  5  8  3 21 30.0000000  0  5 24 16 17 20  3                      0.000508740
  18457264.876 5  -4542981.007 5  24588033.586        2658.625
  -5811530.171 7 -17687067.904 7  21762236.558        1330.741
 -12954611.602 7  -9574511.783 5  22155921.375       -2277.247
  -9078081.279 8  -7194687.601 8  21146127.700        1936.947
 -26629547.661 7 -11868357.647 6  22204583.835       -1909.937
 93  5  8  3 22  0.0000000  0  5 24 16 17 20  3                      0.000506230
  18537010.717 5  -4480841.393 5  24603208.538        2657.876
  -5771320.019 7 -17655735.323 7  21769888.531        1349.968
 -13022791.389 7  -9627638.826 5  22142947.139       -2268.152
  -9019719.804 8  -7149211.164 8  21157233.552        1953.833
 -26686800.244 7 -11912970.033 6  22193688.820       -1907.145
 93  5  8  3 22 30.0000000  0  5 24 16 17 20  3                      0.000503700
  18616743.013 5  -4418712.282 5  24618380.810        2657.766
  -5730540.011 7 -17623958.691 7  21777648.618        1368.401
 -13090698.600 7  -9680553.475 5  22130024.984       -2258.968
  -8960850.396 8  -7103338.914 8  21168435.838        1970.787
 -26743966.268 7 -11957514.985 6  22182810.410       -1904.185
 93  5  8  3 23  0.0000000  0  5 24 16 17 20  3                      0.000501180
  18696470.771 5  -4356586.525 5  24633552.954        2657.604
  -5689229.293 7 -17591768.532 7  21785509.895        1385.784
 -13158331.252 7  -9733254.165 5  22117154.671       -2249.780
  -8901482.787 7  -7057078.463 7  21179733.126        1987.173
 -26801052.070 7 -12001997.393 6  22171947.369       -1901.662
 93  5  8  3 23 30.0000000  0  5 24 16 17 20  3                      0.000498690
  18776197.572 5  -4294461.646 5  24648724.179        2657.414
  -5647388.885 7 -17559165.648 7  21793471.733        1403.525
 -13225679.109 7  -9785732.974 5  22104338.614       -2240.093
  -8841618.111 7  -7010430.702 7  21191124.930        2003.845
 -26858056.516 7 -12046416.420 6  22161099.899       -1898.779
 93  5  8  3 24  0.0000000  0  5 24 16 17 20  3                      0.000496230
  18855916.180 5  -4232343.208 5  24663894.713        2657.228
  -5605028.876 7 -17526157.841 7  21801532.673        1420.341
 -13292733.519 7  -9837983.099 6  22091578.618       -2230.217
  -8781254.497 7  -6963394.129 7  21202611.628        2020.397
 -26914974.907 7 -12090768.414 6  22150268.767       -1896.006
 93  5  8  3 24 30.0000000  0  5 24 16 17 20  3                      0.000493810
  18935629.884 5  -4170228.547 5  24679063.881        2656.939
  -5562179.577 7 -17492768.808 7  21809686.419        1436.333
 -13359498.726 7  -9890007.867 6  22078873.733       -2220.609
  -8720399.368 7  -6915974.581 7  21214192.179        2036.689
 -26971811.363 7 -12135056.549 6  22139452.965       -1893.342
 93  5  8  3 25  0.0000000  0  5 24 16 17 20  3                      0.000491440
  19015324.769 5  -4108128.374 5  24694229.280        2655.970
  -5518849.594 7 -17459005.177 7  21817931.669        1452.515
 -13425975.512 7  -9941807.888 6  22066223.590       -2211.210
  -8659059.692 8  -6868177.456 7  21225864.950        2052.616
 -27028570.622 7 -12179284.521 6  22128651.982       -1890.877
 93  5  8  3 25 30.0000000  0  5 24 16 17 20  3                      0.000489060
  19094982.264 5  -4046057.587 5  24709387.703        2654.380
  -5475019.203 7 -17424851.639 7  21826272.635        1469.474
 -13492169.978 7  -9993387.930 6  22053627.153       -2201.823
  -8597238.644 8  -6820005.223 7  21237629.265        2068.759
 -27085252.766 7 -12223452.425 6  22117865.680       -1888.164
 93  5  8  3 26  0.0000000  0  5 24 16 17 20  3                      0.000486690
  19174596.526 5  -3984020.581 5  24724537.993        2653.297
  -5430685.316 7 -17390305.769 7  21834709.155        1486.378
 -13558084.213 7 -10044749.607 6  22041083.886       -2192.378
  -8534934.555 8  -6771456.609 7  21249485.408        2084.901
 -27141852.964 7 -12267556.465 6  22107095.117       -1885.336
 93  5  8  3 26 30.0000000  0  5 24 16 17 20  3                      0.000484320
  19254175.425 6  -3922011.130 5  24739681.424        2651.819
  -5385834.486 7 -17355357.069 7  21843244.037        1503.909
 -13623720.066 7 -10095894.364 6  22028593.812       -2183.347
  -8472146.722 8  -6722531.069 7  21261433.766        2101.029
 -27198367.545 7 -12311593.769 6  22096341.000       -1882.408
 93  5  8  3 27  0.0000000  0  5 24 16 17 20  3                      0.000481910
  19333713.664 5  -3860033.275 5  24754817.012        2650.604
  -5340446.072 7 -17319989.498 7  21851880.989        1522.016
 -13689091.414 7 -10146833.011 6  22016154.024       -2174.896
  -8408869.691 8  -6673224.315 7  21273474.989        2117.314
 -27254788.120 7 -12355557.860 6  22085604.515       -1879.255
 93  5  8  3 27 30.0000000  0  5 24 16 17 20  3                      0.000479460
  19413210.315 6  -3798087.881 5  24769944.623        2649.439
  -5294521.015 7 -17284203.731 7  21860620.258        1539.574
 -13754221.119 7 -10197583.357 6  22003760.174       -2167.001
  -8345114.100 7  -6623544.663 7  21285607.060        2133.140
 -27311122.209 7 -12399454.555 6  22074884.587       -1876.438
 93  5  8  3 28  0.0000000  0  5 24 16 17 20  3                      0.000476840
  19492681.194 6  -3736162.656 5  24785067.113        2648.590
  -5248080.147 7 -17248016.042 7  21869457.870        1556.542
 -13819116.960 7 -10248151.513 6  21991410.972       -2159.289
  -8280885.094 8  -6573496.113 7  21297829.390        2148.825
 -27367371.855 7 -12443285.419 6  22064180.364       -1873.729
 93  5  8  3 28 30.0000000  0  6 24 16 17 20 26  3                   0.000474380
  19572124.460 5  -3674258.788 5  24800185.186        2647.633
  -5201125.430 7 -17211427.951 7  21878393.014        1573.688
 -13883776.470 7 -10298535.477 6  21979106.710       -2151.368
  -8216184.613 7  -6523080.171 7  21310141.567        2164.542
   -130190.52715   -126295.75912  24702573.358       -2655.771
 -27423536.184 7 -12487049.819 6  22053492.447       -1870.815
 93  5  8  3 29  0.0000000  0  6 24 16 17 20 26  3                   0.000471910
  19651543.133 5  -3612374.200 5  24815297.538        2647.080
  -5153658.679 7 -17174440.878 7  21887425.501        1590.872
 -13948192.380 7 -10348729.621 6  21966848.876       -2142.703
  -8151015.506 7  -6472299.083 7  21322542.980        2180.154
   -209838.524 5   -188358.995 3  24687417.047       -2654.012
 -27479614.918 7 -12530747.524 6  22042820.983       -1867.920
 93  5  8  3 29 30.0000000  0  6 24 16 17 20 26  3                   0.000469440
  19730949.223 5  -3550499.415 5  24830408.335        2646.431
  -5105675.376 7 -17137051.296 7  21896556.568        1607.887
 -14012328.514 7 -10398705.793 6  21954644.057       -2133.142
  -8085377.321 7  -6421152.457 7  21335033.383        2195.678
   -289439.404 5   -250385.541 4  24672268.814       -2652.799
 -27535603.964 7 -12574375.314 6  22032166.439       -1864.922
 93  5  8  3 30  0.0000000  0  6 24 16 17 20 26  3                   0.000466970
  19810321.132 5  -3488651.212 5  24845512.224        2645.007
  -5057187.328 7 -17099268.407 7  21905783.603        1624.868
 -14076182.579 7 -10448462.154 6  21942492.838       -2123.632
  -8019277.939 7  -6369646.471 7  21347611.585        2211.026
   -369023.344 5   -312398.871 4  24657123.981       -2652.566
 -27591508.594 7 -12617937.340 6  22021528.263       -1862.104
 93  5  8  3 30 30.0000000  0  6 24 16 17 20 26  3                   0.000464490
  19889648.428 5  -3426837.885 5  24860607.629        2643.589
  -5008186.616 7 -17061086.043 7  21915107.876        1641.789
 -14139747.089 7 -10497992.861 6  21930397.032       -2113.986
  -7952721.330 7  -6317784.201 7  21360276.679        2226.134
   -448591.233 5   -374399.736 4  24641982.112       -2651.982
 -27647329.234 7 -12661433.936 6  22010905.887       -1859.407
 93  5  8  3 31  0.0000000  0  6 24 16 17 20 26  3                   0.000462000
  19968935.692 5  -3365055.616 5  24875695.456        2642.299
  -4958689.875 7 -17022517.169 7  21924526.727        1658.035
 -14203016.723 7 -10547293.817 6  21918356.936       -2103.934
  -7885711.761 7  -6265568.963 7  21373028.022        2241.208
   -528143.943 5   -436388.731 4  24626842.874       -2651.497
 -27703066.808 7 -12704865.794 6  22000299.359       -1856.605
 93  5  8  3 31 30.0000000  0  5 16 17 20 26  3                      0.000459510
  -4908711.224 7 -16983572.762 7  21934037.611        1673.774
 -14265986.850 7 -10596361.392 6  21906374.094       -2094.220
  -7818246.623 8  -6212998.764 7  21385866.292        2256.452
   -607672.926 5   -498359.308 5  24611708.619       -2650.508
 -27758715.763 7 -12748228.578 6  21989709.760       -1853.585
 93  5  8  3 32  0.0000000  0  5 16 17 20 26  3                      0.000457030
  -4858269.869 7 -16944267.818 7  21943636.457        1689.048
 -14328673.777 7 -10645208.275 6  21894445.351       -2084.852
  -7750331.354 8  -6160077.792 7  21398790.126        2271.268
   -687167.758 5   -560303.164 5  24596581.056       -2648.986
 -27814278.299 7 -12791524.043 6  21979136.691       -1850.774
 93  5  8  3 32 30.0000000  0  5 16 17 20 26  3                      0.000454580
  -4807372.093 7 -16904607.229 7  21953321.893        1704.120
 -14391074.747 7 -10693832.377 6  21882570.722       -2075.287
  -7681970.436 8  -6106809.577 7  21411798.999        2286.117
   -766604.583 5   -622201.882 5  24581464.695       -2646.944
 -27869755.595 7 -12834753.071 6  21968579.608       -1847.886
 93  5  8  3 33  0.0000000  0  5 16 17 20 26  3                      0.000452150
  -4756019.329 7 -16864592.087 7  21963093.747        1719.563
 -14453187.716 7 -10742232.030 6  21870751.073       -2065.759
  -7613163.010 8  -6053193.421 7  21424892.866        2300.940
   -845982.314 5   -684054.508 5  24566358.759       -2644.915
 -27925143.365 7 -12877912.335 6  21958039.625       -1844.930
 93  5  8  3 33 30.0000000  0  5 16 17 20 26  3                      0.000449730
  -4704196.885 7 -16824210.957 7  21972955.329        1735.392
 -14515025.146 7 -10790416.991 6  21858983.742       -2056.606
  -7543916.586 8  -5999235.198 7  21438069.954        2315.583
   -925302.223 5   -745862.105 4  24551263.814       -2642.955
 -27980445.633 7 -12921004.984 6  21947515.771       -1841.995
 93  5  8  3 34  0.0000000  0  4 16 17 20  3                         0.000446370
  -4651895.580 7 -16783456.687 7  21982908.239        1751.335
 -14576589.940 7 -10838389.513 6  21847268.301       -2047.805
  -7474237.508 8  -5944939.838 7  21451329.484        2329.738
 -28035665.220 7 -12964033.183 6  21937008.015       -1839.479
 93  5  8  3 34 30.0000000  0  4 16 17 20  3                         0.000444100
  -4599104.208 7 -16742320.574 6  21992954.044        1767.975
 -14637889.709 7 -10886155.506 6  21835603.348       -2038.902
  -7404122.960 8  -5890305.139 7  21464671.856        2344.437
 -28090796.098 7 -13006992.272 6  21926516.887       -1836.285
 93  5  8  3 35  0.0000000  0  4 16 17 20  3                         0.000441870
  -4545813.117 7 -16700795.045 6  22003095.013        1784.757
 -14698923.913 7 -10933714.544 6  21823988.748       -2030.019
  -7333572.009 8  -5835330.404 7  21478097.263        2358.986
 -28145834.397 8 -13049879.220 6  21916043.658       -1833.141
 93  5  8  3 35 30.0000000  0  4 16 17 20  3                         0.000439680
  -4492027.869 7 -16658884.453 6  22013329.929        1800.780
 -14759696.291 7 -10981069.604 6  21812424.023       -2021.360
  -7262590.753 8  -5780020.367 7  21491604.871        2373.188
 -28200782.231 8 -13092695.679 6  21905587.457       -1830.176
 93  5  8  3 36  0.0000000  0  4 16 17 20  3                         0.000437480
  -4437768.894 7 -16616604.740 6  22023655.111        1816.376
 -14820207.053 7 -11028220.802 6  21800909.063       -2012.694
  -7191180.117 8  -5724375.738 7  21505193.983        2387.483
 -28255637.387 8 -13135439.932 6  21895148.814       -1827.048
 93  5  8  3 36 30.0000000  0  4 16 17 20  3                         0.000435210
  -4383041.531 7 -16573960.055 6  22034069.469        1832.131
 -14880455.414 7 -11075167.510 6  21789444.414       -2003.605
  -7119339.812 8  -5668396.306 7  21518864.798        2401.934
 -28310395.560 8 -13178108.580 6  21884728.509       -1823.670
 93  5  8  3 37  0.0000000  0  4 16 17 20  3                         0.000433080
  -4327699.173 7 -16530836.133 6  22044600.661        1857.242
 -14940268.294 7 -11121774.902 6  21778062.320       -1984.170
  -7046918.513 8  -5611964.146 7  21532646.179        2426.082
 -28364902.208 8 -13220581.254 6  21874356.298       -1810.384
 93  5  8  3 37 30.0000000  0  4 16 17 20  3                         0.000430910
  -4271897.007 7 -16487353.921 6  22055219.529        1861.646
 -14999796.291 7 -11168160.309 6  21766734.623       -1985.655
  -6974061.690 7  -5555192.623 7  21546510.313        2429.809
 -28419299.367 8 -13262968.625 6  21864004.986       -1817.504
 93  5  8  3 38  0.0000000  0  4 16 17 20  3                         0.000428520
  -4215819.542 7 -16443657.201 6  22065890.672        1876.892
 -15059231.286 7 -11214473.243 6  21755424.444       -1976.761
  -6900956.060 7  -5498227.207 7  21560421.750        2443.883
 -28473770.203 8 -13305413.401 7  21853639.499       -1814.129
 93  5  8  3 38 30.0000000  0  4 16 17 20  3                         0.000426040
  -4159274.667 7 -16399596.279 6  22076650.553        1892.569
 -15118407.280 7 -11260584.342 6  21744163.379       -1968.295
  -6827432.357 7  -5440936.046 7  21574412.745        2457.631
 -28528141.718 8 -13347780.759 7  21843292.961       -1810.900
 93  5  8  3 39  0.0000000  0  5 16 17 20 26  3                      0.000422780
  -4102268.621 7 -16355175.966 6  22087498.462        1907.902
 -15177332.704 7 -11306500.216 6  21732950.014       -1960.178
  -6753498.173 7  -5383325.015 7  21588482.194        2471.287
    -13090.05215    -12969.82411  24386047.740       -2617.835
 -28582417.635 8 -13390073.664 7  21832964.694       -1807.677
 93  5  8  3 39 30.0000000  0  5 16 17 20 26  3                      0.000420270
  -4044807.002 7 -16310400.660 6  22098432.994        1922.840
 -15236019.818 7 -11352230.398 6  21721782.244       -1952.210
  -6679158.866 7  -5325398.302 7  21602628.531        2484.657
    -91586.826 5    -74134.307 2  24371110.010       -2615.324
 -28636599.895 8 -13432293.583 7  21822654.130       -1804.701
 93  5  8  3 40  0.0000000  0  5 16 17 20 26  3                      0.000417740
  -3986892.857 7 -16265272.755 6  22109453.853        1937.842
 -15294451.662 7 -11397761.685 6  21710663.180       -1943.359
  -6604414.395 7  -5267155.883 7  21616852.004        2498.200
   -169997.169 5   -135233.204 3  24356188.617       -2612.222
 -28690685.342 8 -13474438.053 7  21812362.015       -1801.393
 93  5  8  3 40 30.0000000  0  5 16 17 20 26  3                      0.000415220
  -3928538.779 7 -16219802.063 6  22120558.225        1952.453
 -15352608.978 7 -11443079.024 6  21699596.042       -1933.473
  -6529264.097 7  -5208597.235 7  21631152.454        2511.958
   -248314.671 5   -196259.582 4  24341285.201       -2608.872
 -28744669.131 8 -13516503.322 7  21802089.168       -1797.621
 93  5  8  3 41  0.0000000  0  5 16 17 20 26  3                      0.000412730
  -3869761.504 7 -16174001.584 6  22131743.093        1966.294
 -15410465.388 7 -11488161.898 6  21688586.505       -1923.388
  -6453704.683 7  -5149719.778 7  21645530.990        2525.470
   -326535.617 5   -257210.840 5  24326400.175       -2605.768
 -28798544.451 8 -13558484.062 7  21791836.945       -1794.113
 93  5  8  3 41 30.0000000  0  5 16 17 20 26  3                      0.000410260
  -3810556.496 7 -16127867.785 6  22143009.662        1980.709
 -15468010.693 7 -11533002.370 6  21677635.865       -1913.067
  -6377736.113 7  -5090523.507 7  21659987.232        2538.961
   -404663.278 5   -318089.328 5  24311532.066       -2602.852
 -28852307.418 8 -13600377.256 7  21781606.218       -1790.431
 93  5  8  3 42  0.0000000  0  5 16 17 20 26  3                      0.000407810
  -3750917.570 7 -16081395.904 6  22154358.447        1995.317
 -15525251.692 7 -11577605.706 6  21666743.356       -1903.032
  -6301367.105 7  -5031015.200 7  21674519.944        2552.387
   -482703.122 5   -378899.425 5  24296681.158       -2599.721
 -28905962.837 8 -13642186.646 7  21771395.845       -1786.768
 93  5  8  3 42 30.0000000  0  5 16 17 20 26  3                      0.000405360
  -3690832.620 7 -16034576.474 6  22165792.161        2010.592
 -15582201.658 7 -11621982.251 6  21655905.830       -1893.612
  -6224595.444 7  -4971193.166 7  21689129.247        2565.810
   -560643.544 5   -439632.041 5  24281849.795       -2596.102
 -28959505.198 8 -13683907.931 7  21761207.170       -1782.888
 93  5  8  3 43  0.0000000  0  5 16 17 20 26  3                      0.000402910
  -3630277.021 7 -15987390.300 6  22177315.535        2026.648
 -15638872.325 7 -11666141.179 6  21645121.544       -1884.503
  -6147422.129 7  -4911058.139 7  21703814.730        2579.117
   -638462.681 5   -500270.200 5  24267040.968       -2591.650
 -29012931.251 8 -13725538.607 7  21751040.346       -1779.054
 93  5  8  3 43 30.0000000  0  5 16 17 20 26  3                      0.000400450
  -3569230.926 7 -15939821.893 6  22188932.214        2042.896
 -15695277.096 7 -11710092.905 6  21634388.035       -1876.050
  -6069848.687 7  -4850611.306 7  21718576.342        2592.331
   -716135.070 5   -560793.960 5  24252260.053       -2586.625
 -29066238.909 8 -13767077.019 7  21740896.210       -1775.098
 93  5  8  3 44  0.0000000  0  5 16 17 20 26  3                      0.000397980
  -3507705.280 7 -15891879.826 6  22200640.226        2058.618
 -15751434.507 7 -11753851.884 6  21623701.693       -1867.782
  -5991878.188 7  -4789855.100 7  21733414.012        2605.577
   -793655.437 5   -621199.248 5  24237508.081       -2581.436
 -29119427.423 8 -13808522.575 7  21730774.687       -1771.058
 93  5  8  3 44 30.0000000  0  5 16 17 20 26  3                      0.000395510
  -3445721.881 7 -15843581.092 6  22212435.143        2073.535
 -15807343.692 7 -11797417.454 6  21613062.501       -1859.427
  -5913517.100 7  -4728794.532 7  21748325.647        2618.379
   -871035.350 5   -681495.137 5  24222783.456       -2577.381
 -29172499.400 8 -13849877.338 7  21720675.349       -1767.351
 93  5  8  3 45  0.0000000  0  6 16 17 22 20 26  3                   0.000392860
  -3383296.572 7 -15794938.009 6  22224314.248        2087.968
 -15862989.250 7 -11840777.585 6  21602473.500       -1850.378
  -2925544.32415  -2269516.25715  24881604.684       -3030.650
  -5834768.639 7  -4667432.108 7  21763310.843        2631.419
   -948302.756 5   -741703.348 5  24208079.045       -2573.967
 -29225454.059 8 -13891140.679 7  21710598.216       -1763.239
 93  5  8  3 45 30.0000000  0  6 16 17 22 20 26  3                   0.000390350
  -3320453.280 7 -15745969.192 6  22236272.987        2101.424
 -15918366.090 7 -11883928.315 6  21591935.773       -1841.432
  -3016327.543 5  -2340256.473 5  24864329.336       -3021.534
  -5755631.844 7  -4605767.095 7  21778369.979        2644.354
  -1025480.257 5   -801841.535 5  24193392.758       -2571.301
 -29278286.621 8 -13932308.876 7  21700544.595       -1759.131
 93  5  8  3 46  0.0000000  0  6 16 17 22 20 26  3                   0.000387810
  -3257216.593 7 -15696693.863 6  22248306.757        2114.417
 -15973468.039 7 -11926864.872 6  21581450.204       -1831.904
  -3106832.767 5  -2410779.926 5  24847106.467       -3012.043
  -5676109.224 7  -4543801.435 7  21793502.223        2657.111
  -1102583.292 5   -861921.688 5  24178720.869       -2568.741
 -29330995.719 8 -13973380.872 7  21690514.327       -1755.027
 93  5  8  3 46 30.0000000  0  6 16 17 22 20 26  3                   0.000385270
  -3193585.598 7 -15647111.283 6  22260415.206        2127.903
 -16028277.658 7 -11969573.627 6  21571020.154       -1821.998
  -3197045.408 5  -2481075.383 5  24829939.603       -3001.838
  -5596204.964 7  -4481538.389 7  21808707.516        2669.933
  -1179599.971 5   -921934.539 4  24164065.528       -2565.403
 -29383581.378 8 -14014356.688 7  21680507.787       -1750.784
 93  5  8  3 47  0.0000000  0  6 16 17 22 20 26  3                   0.000382720
  -3129554.504 7 -15597216.940 6  22272599.770        2141.095
 -16082799.848 7 -12012058.399 6  21560644.937       -1812.866
  -3286952.913 5  -2551133.092 5  24812830.956       -2991.817
  -5515924.616 7  -4418982.279 7  21823984.380        2682.212
  -1256504.663 5   -981860.080 4  24149430.656       -2561.220
 -29436045.413 8 -14055237.708 7  21670524.227       -1746.964
 93  5  8  3 47 30.0000000  0  6 16 17 22 20 26  3                   0.000380200
  -3065117.708 7 -15547006.435 6  22284861.751        2154.643
 -16137044.361 7 -12054326.807 6  21550322.562       -1803.460
  -3376559.330 5  -2620956.333 5  24795779.382       -2981.860
  -5435270.401 7  -4356134.866 7  21839332.655        2694.704
  -1333251.338 5  -1041662.579 4  24134826.187       -2555.170
 -29488386.248 8 -14096022.748 7  21660564.123       -1742.749
 93  5  8  3 48  0.0000000  0  6 16 17 22 20 26  3                   0.000377700
  -3000267.075 7 -15496473.475 6  22297202.478        2168.751
 -16191005.633 7 -12096374.516 6  21540053.933       -1793.987
  -3465852.312 5  -2690535.190 5  24778787.504       -2970.978
  -5354240.386 7  -4292994.616 7  21854752.229        2707.163
  -1409801.260 5  -1101311.688 4  24120258.861       -2548.210
 -29540597.558 8 -14136706.852 7  21650628.484       -1738.337
 93  5  8  3 48 30.0000000  0  7 23 16 17 22 20 26  3                0.000375320
   -279759.47515   -226494.71611  23943885.476       -3627.893
  -2934988.226 7 -15445606.877 6  22309624.708        2183.109
 -16244678.564 7 -12138197.536 6  21529840.341       -1784.488
  -3554815.684 5  -2759857.187 5  24761858.078       -2960.075
  -5272833.948 7  -4229561.039 7  21870243.615        2719.773
  -1486139.692 5  -1160796.051 4  24105732.069       -2541.355
 -29592674.931 8 -14177286.590 7  21640718.642       -1733.782
 93  5  8  3 49  0.0000000  0  7 23 16 17 22 20 26  3                0.000372870
   -388527.225 5   -311250.888 1  23923187.411       -3623.012
  -2869290.671 7 -15394413.983 6  22322126.603        2196.720
 -16298082.276 7 -12179810.756 6  21519677.936       -1775.778
  -3643469.290 5  -2828937.802 5  24744987.656       -2950.117
  -5191060.219 7  -4165841.259 6  21885804.682        2731.845
  -1562287.794 5  -1220132.051 5  24091240.722       -2535.207
 -29644623.877 8 -14217766.250 7  21630832.846       -1729.611
 93  5  8  3 49 30.0000000  0  7 23 16 17 22 20 26  3                0.000370430
   -497132.596 5   -395874.343 1  23902519.768       -3617.352
  -2803181.359 7 -15342900.242 6  22334706.853        2210.579
 -16351221.552 7 -12221217.953 6  21509565.969       -1766.723
  -3731818.677 5  -2897781.377 5  24728175.020       -2939.766
  -5108925.399 7  -4101840.138 6  21901434.222        2743.798
  -1638258.242 5  -1279329.646 5  24076783.917       -2529.601
 -29696446.044 8 -14258147.128 7  21620971.004       -1725.405
 93  5  8  3 50  0.0000000  0  7 23 16 17 22 20 26  3                0.000368010
   -605572.443 5   -480371.391 1  23881884.025       -3612.064
  -2736647.694 7 -15291055.837 6  22347367.748        2225.022
 -16404087.779 7 -12262412.377 7  21499505.683       -1757.664
  -3819852.055 5  -2966378.885 5  24711423.204       -2929.342
  -5026430.946 7  -4037558.747 6  21917132.235        2755.716
  -1714073.278 5  -1338406.167 5  24062357.274       -2524.933
 -29748138.826 8 -14298427.197 7  21611134.243       -1721.093
 93  5  8  3 50 30.0000000  0  7 23 16 17 22 20 26  3                0.000365580
   -713854.853 5   -564751.237 2  23861278.313       -3606.803
  -2669677.569 7 -15238871.346 6  22360111.807        2239.556
 -16456680.401 7 -12303393.582 7  21489497.440       -1748.525
  -3907585.991 5  -3034742.863 5  24694727.498       -2919.599
  -4943582.567 7  -3973001.586 6  21932897.661        2767.585
  -1789755.217 5  -1397378.921 5  24047955.230       -2520.422
 -29799704.091 8 -14338607.882 7  21601321.935       -1716.721
 93  5  8  3 51  0.0000000  0  7 23 16 17 22 20 26  3                0.000363150
   -821985.211 5   -649008.489 5  23840701.495       -3601.959
  -2602280.110 7 -15186353.849 6  22372937.009        2253.539
 -16509003.909 7 -12344165.103 7  21479541.032       -1739.742
  -3995027.885 5  -3102879.295 5  24678087.724       -2909.808
  -4860382.949 7  -3908170.725 6  21948729.879        2779.006
  -1865291.931 5  -1456238.629 5  24033581.376       -2515.292
 -29851140.258 8 -14378687.970 7  21591533.901       -1712.631
 93  5  8  3 51 30.0000000  0  7 23 16 17 22 20 26  3                0.000360710
   -929977.173 5   -733157.919 5  23820150.946       -3597.840
  -2534455.667 7 -15133503.649 6  22385843.522        2267.700
 -16561052.568 7 -12384722.454 7  21469636.499       -1730.404
  -4082165.701 5  -3170778.782 5  24661505.616       -2899.678
  -4776835.105 7  -3843068.525 6  21964628.533        2790.589
  -1940669.042 5  -1514973.823 4  24019237.376       -2510.140
 -29902446.208 8 -14418666.609 7  21581770.722       -1708.240
 93  5  8  3 52  0.0000000  0  7 23 16 17 22 20 26  3                0.000358250
  -1037853.780 5   -817217.458 5  23799622.375       -3593.929
  -2466222.007 7 -15080334.574 6  22398828.314        2281.005
 -16612827.253 7 -12425066.304 7  21459784.170       -1721.231
  -4169008.142 5  -3238448.252 5  24644980.276       -2889.972
  -4692943.221 7  -3777698.241 6  21980592.862        2802.097
  -2015895.579 5  -1573591.845 4  24004922.004       -2504.939
 -29953621.880 8 -14458543.732 7  21572032.032       -1703.809
 93  5  8  3 52 30.0000000  0  7 23 16 17 22 20 26  3                0.000355770
  -1145615.950 5   -901187.855 5  23779116.056       -3589.979
  -2397603.763 7 -15026865.839 6  22411885.826        2293.473
 -16664332.175 7 -12465199.982 7  21449982.737       -1712.356
  -4255554.574 5  -3305886.939 5  24628511.227       -2879.601
  -4608711.963 7  -3712063.495 6  21996621.448        2813.446
  -2090965.954 5  -1632088.082 4  23990636.077       -2499.599
 -30004668.157 8 -14498319.999 7  21562318.727       -1699.404
 93  5  8  3 53  0.0000000  0  7 23 16 17 22 20 26  3                0.000353280
  -1253246.377 5   -985055.623 5  23758634.786       -3585.361
  -2328618.470 7 -14973111.070 6  22425013.195        2305.628
 -16715571.513 7 -12505126.674 7  21440232.137       -1703.645
  -4341786.991 5  -3373080.922 5  24612101.927       -2869.312
  -4524140.723 7  -3646163.855 6  22012714.725        2824.580
  -2165874.519 5  -1690458.369 4  23976382.229       -2494.431
 -30055580.141 8 -14537991.650 7  21552630.574       -1694.955
 93  5  8  3 53 30.0000000  0  7 23 16 17 22 20 26  3                0.000350780
  -1360735.765 5  -1068813.431 5  23738180.119       -3580.457
  -2259260.151 7 -14919065.625 6  22438211.917        2318.043
 -16766547.360 7 -12544848.069 7  21430532.222       -1694.806
  -4427712.551 5  -3440035.803 5  24595751.054       -2859.103
  -4439234.641 7  -3580003.286 6  22028872.020        2835.756
  -2240635.751 5  -1748713.693 4  23962154.449       -2489.600
 -30106358.141 8 -14577558.895 7  21542967.525       -1690.491
 93  5  8  3 54  0.0000000  0  7 23 16 17 22 20 26  3                0.000348270
  -1468061.586 5  -1152443.837 5  23717756.222       -3574.555
  -2189524.816 7 -14864726.441 6  22451482.213        2330.953
 -16817257.308 7 -12584362.263 7  21420882.785       -1685.868
  -4513327.591 5  -3506748.870 5  24579459.116       -2848.582
  -4353992.675 7  -3513580.999 6  22045092.999        2847.000
  -2315242.328 5  -1806848.550 5  23947958.014       -2484.237
 -30156997.408 8 -14617018.025 7  21533330.938       -1685.780
 93  5  8  3 54 30.0000000  0  7 23 16 17 22 20 26  3                0.000345760
  -1575202.439 5  -1235930.114 5  23697368.076       -3568.256
  -2119396.600 7 -14810081.114 6  22464826.905        2344.172
 -16867702.207 7 -12623669.936 7  21411283.577       -1677.213
  -4598622.306 5  -3573212.191 5  24563227.763       -2837.855
  -4268414.596 7  -3446896.808 6  22061378.436        2858.141
  -2389683.518 5  -1864854.521 5  23933791.804       -2478.548
 -30207493.484 8 -14656365.573 7  21523721.678       -1680.936
 93  5  8  3 55  0.0000000  0  7 23 16 17 22 20 26  3                0.000343240
  -1682153.659 5  -1319268.616 5  23677016.148       -3561.839
  -2048873.887 7 -14755128.337 6  22478246.904        2357.510
 -16917891.113 7 -12662778.129 7  21401732.849       -1668.670
  -4683611.094 5  -3639437.127 5  24547054.676       -2828.105
  -4182507.666 7  -3379956.354 6  22077726.187        2868.941
  -2463948.686 5  -1922723.323 5  23919659.632       -2472.269
 -30257849.838 8 -14695604.270 7  21514139.191       -1676.351
 93  5  8  3 55 30.0000000  0  7 23 16 17 22 20 26  3                0.000340730
  -1788910.380 6  -1402455.545 5  23656701.130       -3555.223
  -1977946.431 7 -14699860.209 6  22491743.961        2370.948
 -16967815.902 7 -12701680.511 7  21392232.327       -1659.557
  -4768295.254 5  -3705424.650 5  24530939.503       -2817.358
  -4096275.064 7  -3312762.124 6  22094135.727        2879.975
  -2538015.189 5  -1980437.328 5  23905564.957       -2465.338
 -30308064.789 8 -14734732.785 7  21504583.917       -1671.402
 93  5  8  3 56  0.0000000  0  7 23 16 17 22 20 26  3                0.000338230
  -1895472.807 5  -1485491.128 5  23636423.583       -3548.949
  -1906622.834 7 -14644283.432 6  22505316.275        2383.968
 -17017467.295 7 -12740369.866 7  21382783.118       -1650.563
  -4852647.765 5  -3771153.945 5  24514887.539       -2806.359
  -4009713.700 7  -3245311.724 6  22110607.984        2890.769
  -2611875.178 5  -2037990.478 5  23891508.823       -2458.674
 -30358130.978 8 -14773745.354 7  21495056.842       -1666.529
 93  5  8  3 56 30.0000000  0  7 23 16 17 22 20 26  3                0.000335730
  -2001854.983 5  -1568386.222 5  23616179.909       -3542.987
  -1834920.150 7 -14588411.223 6  22518960.928        2396.274
 -17066852.908 7 -12778852.128 7  21373385.692       -1641.738
  -4936670.513 5  -3836626.141 5  24498898.994       -2795.123
  -3922832.746 7  -3177612.313 6  22127140.770        2901.361
  -2685527.533 5  -2095381.853 5  23877493.065       -2451.480
 -30408053.598 8 -14812646.066 7  21485556.628       -1661.718
 93  5  8  3 57  0.0000000  0  7 23 16 17 22 20 26  3                0.000333250
  -2108051.609 6  -1651136.732 5  23595971.631       -3536.963
  -1762844.408 7 -14532248.313 6  22532676.632        2408.488
 -17115958.528 7 -12817116.225 7  21364041.273       -1632.215
  -5020343.623 6  -3901825.871 5  24482976.508       -2783.161
  -3835629.755 7  -3109661.928 6  22143734.852        2911.891
  -2758959.575 5  -2152601.528 5  23863519.728       -2444.409
 -30457825.840 8 -14851429.611 7  21476085.444       -1656.901
 93  5  8  3 57 30.0000000  0  7 23 16 17 22 20 26  3                0.000330790
  -2214073.131 6  -1733750.772 5  23575796.205       -3531.208
  -1690410.202 7 -14475806.109 6  22546460.500        2420.406
 -17164778.880 7 -12855158.021 7  21354750.813       -1622.516
  -5103652.912 6  -3966742.133 5  24467123.372       -2770.688
  -3748115.912 7  -3041469.342 6  22160388.142        2922.363
  -2832192.784 5  -2209666.252 5  23849584.155       -2437.916
 -30507454.506 8 -14890101.269 7  21466641.324       -1651.904
 93  5  8  3 58  0.0000000  0  7 23 16 17 22 20 26  3                0.000328330
  -2319925.272 6  -1816232.847 5  23555652.790       -3525.479
  -1617623.446 7 -14419089.196 6  22560311.123        2432.147
 -17213314.035 7 -12892977.572 7  21345514.839       -1613.053
  -5186591.036 5  -4031369.282 5  24451340.941       -2758.627
  -3660292.811 7  -2973035.777 6  22177099.982        2932.563
  -2905237.473 5  -2266584.068 5  23835684.293       -2431.565
 -30556936.527 8 -14928658.654 7  21457225.212       -1647.064
 93  5  8  3 58 30.0000000  0  7 23 16 17 22 20 26  3                0.000325870
  -2425599.984 6  -1898576.612 5  23535543.123       -3519.600
  -1544484.307 7 -14362097.649 6  22574229.067        2443.895
 -17261560.668 7 -12930572.308 7  21336333.883       -1603.413
  -5269169.895 6  -4095716.363 5  24435626.440       -2746.536
  -3572163.757 7  -2904363.817 6  22193870.293        2942.710
  -2978083.055 5  -2323346.750 5  23821822.195       -2424.948
 -30606271.045 8 -14967101.107 7  21447836.902       -1642.147
 93  5  8  3 59  0.0000000  0  7 23 16 17 22 20 26  3                0.000323410
  -2531106.044 6  -1980789.021 5  23515465.670       -3514.231
  -1470984.425 7 -14304825.051 6  22588216.022        2456.046
 -17309520.694 7 -12967943.717 7  21327207.210       -1594.020
  -5351392.416 6  -4159785.757 5  24419979.660       -2735.043
  -3483734.297 7  -2835457.742 6  22210698.024        2952.665
  -3050744.779 5  -2379966.138 5  23807995.248       -2418.970
 -30655459.192 8 -15005429.515 7  21438476.772       -1637.244
 93  5  8  3 59 30.0000000  0  7 23 16 17 22 20 26  3                0.000320940
  -2636454.261 6  -2062878.448 5  23495418.132       -3509.074
  -1397124.077 7 -14247271.532 6  22602270.913        2467.921
 -17357207.471 7 -13005102.204 7  21318132.403       -1585.179
  -5433278.328 6  -4223592.964 5  24404397.588       -2724.111
  -3395007.746 7  -2766320.175 6  22227582.236        2962.491
  -3123213.174 5  -2436434.888 5  23794205.462       -2412.239
 -30704500.378 8 -15043643.386 7  21429144.562       -1632.394
 93  5  8  4  0  0.0000000  0  7 23 16 17 22 20 26  3                0.000318450
  -2741640.433 6  -2144841.589 5  23475401.498       -3503.385
  -1322906.416 7 -14189439.623 6  22616394.017        2479.797
 -17404632.348 7 -13042056.619 7  21309107.763       -1576.525
  -5514831.549 6  -4287140.875 5  24388878.698       -2712.985
  -3305984.218 7  -2696951.236 6  22244522.787        2972.374
  -3195468.941 5  -2492738.009 5  23780455.114       -2404.971
 -30753389.955 8 -15081739.136 7  21419841.165       -1627.254
 93  5  8  4  0 30.0000000  0  7 23 16 17 22 20 26  3                0.000315950
  -2846664.062 6  -2226678.056 5  23455415.775       -3498.152
  -1248337.310 7 -14131333.847 6  22630584.162        2491.432
 -17451797.339 7 -13078808.508 7  21300132.604       -1567.936
  -5596057.718 5  -4350433.941 5  24373421.750       -2701.888
  -3216666.109 7  -2627352.729 6  22261519.749        2982.151
  -3267508.414 5  -2548872.586 5  23766745.747       -2397.712
 -30802125.999 8 -15119715.250 7  21410566.874       -1622.048
 93  5  8  4  1  0.0000000  0  7 23 16 17 22 20 26  3                0.000313430
  -2951524.248 6  -2308387.173 5  23435461.280       -3492.441
  -1173425.066 7 -14072960.668 6  22644839.784        2502.516
 -17498709.983 7 -13115363.798 7  21291205.503       -1559.541
  -5676954.423 5  -4413470.230 5  24358027.657       -2691.079
  -3127060.232 7  -2557529.975 6  22278571.077        2991.643
  -3339329.998 5  -2604837.293 5  23753078.548       -2390.031
 -30850710.514 8 -15157573.280 7  21401321.565       -1617.071
 93  5  8  4  1 30.0000000  0  7 23 16 17 22 20 26  3                0.000310910
  -3056208.141 6  -2389958.893 5  23415540.578       -3486.357
  -1098193.961 7 -14014339.091 6  22659155.714        2513.136
 -17545376.269 7 -13151727.096 7  21282325.303       -1551.277
  -5757522.215 5  -4476250.389 5  24342695.483       -2679.784
  -3037172.771 7  -2487487.819 6  22295675.535        3001.051
  -3410917.808 5  -2660619.909 5  23739455.844       -2382.320
 -30899145.912 8 -15195315.115 7  21392104.494       -1612.001
 93  5  8  4  2  0.0000000  0  7 23 16 17 22 20 26  3                0.000308370
  -3160704.459 6  -2471384.465 5  23395655.945       -3480.083
  -1022639.517 7 -13955465.494 6  22673533.290        2524.014
 -17591794.863 8 -13187897.388 7  21273492.188       -1543.053
  -5837747.985 6  -4538763.916 5  24327428.679       -2668.479
  -2947009.135 7  -2417230.464 6  22312832.647        3010.040
  -3482287.661 5  -2716232.667 5  23725875.523       -2375.470
 -30947432.478 8 -15232940.994 7  21382916.034       -1607.194
 93  5  8  4  2 30.0000000  0  7 23 16 17 22 20 26  3                0.000305830
  -3265003.842 6  -2552656.626 5  23375808.663       -3473.173
   -946744.030 7 -13896326.163 6  22687975.680        2535.560
 -17637954.264 7 -13223865.712 7  21264708.359       -1534.424
  -5917630.418 6  -4601009.894 5  24312228.033       -2656.933
  -2856567.816 7  -2346756.729 6  22330043.232        3019.280
  -3553441.794 6  -2771677.311 5  23712335.009       -2368.129
 -30995564.679 8 -15270446.587 7  21373756.875       -1601.950
 93  5  8  4  3  0.0000000  0  7 23 16 17 22 20 26  3                0.000303290
  -3369091.839 6  -2633764.036 5  23356001.356       -3466.245
   -870503.831 7 -13836918.225 6  22702483.788        2547.122
 -17683852.614 7 -13259630.624 7  21255974.086       -1525.568
  -5997159.853 6  -4662980.815 5  24297094.119       -2645.064
  -2765848.748 7  -2276066.546 6  22347306.791        3028.594
  -3624373.141 5  -2826948.378 5  23698837.747       -2360.722
 -31043537.767 8 -15307828.182 7  21364627.907       -1596.565
 93  5  8  4  3 30.0000000  0  7 23 16 17 22 20 26  3                0.000300740
  -3472979.697 6  -2714715.533 5  23336231.972       -3459.747
   -793910.314 7 -13777235.014 6  22717058.937        2559.192
 -17729489.948 7 -13295192.145 7  21247289.329       -1516.887
  -6076327.067 6  -4724669.635 5  24282028.690       -2632.726
  -2674851.811 7  -2205159.888 6  22364623.443        3037.802
  -3695088.456 6  -2882051.138 5  23685380.832       -2353.755
 -31091347.115 8 -15345082.188 7  21355530.053       -1591.022
 93  5  8  4  4  0.0000000  0  7 23 16 17 22 20 26  3                0.000298190
  -3576674.669 6  -2795516.679 5  23316499.827       -3453.157
   -716958.104 7 -13717272.257 6  22731702.539        2570.816
 -17774859.674 7 -13330545.144 7  21238655.595       -1507.799
  -6155125.010 5  -4786070.508 5  24267034.200       -2620.447
  -2583580.044 7  -2134039.053 6  22381992.144        3046.970
  -3765596.244 5  -2936992.160 5  23671963.877       -2346.745
 -31138991.133 8 -15382207.386 7  21346463.662       -1585.440
 93  5  8  4  4 30.0000000  0  7 23 16 17 22 20 26  3                0.000295620
  -3680170.484 6  -2876162.640 5  23296804.577       -3446.390
   -639667.471 7 -13657045.792 6  22746410.607        2581.770
 -17819960.199 7 -13365688.382 7  21230073.296       -1498.905
  -6233554.496 6  -4847184.304 5  24252109.385       -2608.016
  -2492035.089 7  -2062705.341 6  22399412.628        3056.054
  -3835887.136 5  -2991764.197 5  23658587.852       -2339.193
 -31186467.163 8 -15419201.662 7  21337429.265       -1579.786
 93  5  8  4  5  0.0000000  0  7 23 16 17 22 20 26  3                0.000293060
  -3783463.206 6  -2956650.387 5  23277148.713       -3439.778
   -562049.820 7 -13596564.528 6  22761180.873        2592.758
 -17864791.882 8 -13400622.151 7  21221542.023       -1489.863
  -6311596.532 6  -4907996.341 5  24237258.614       -2594.713
  -2400217.904 7  -1991159.479 6  22416884.671        3065.086
  -3905948.223 6  -3046357.127 5  23645255.348       -2331.384
 -31233771.275 8 -15456061.984 7  21328427.488       -1574.003
 93  5  8  4  5 30.0000000  0  7 23 16 17 22 20 26  3                0.000290510
  -3886555.211 6  -3036981.749 5  23257530.524       -3432.824
   -484104.006 7 -13535827.566 6  22776013.335        2603.603
 -17909358.242 7 -13435349.134 7  21213061.233       -1481.066
  -6389243.296 6  -4968500.251 5  24222482.983       -2581.642
  -2308135.404 6  -1919406.916 6  22434407.173        3073.821
  -3975770.369 5  -3100763.853 5  23631968.501       -2323.280
 -31280906.041 8 -15492790.360 7  21319458.096       -1568.480
 93  5  8  4  6  0.0000000  0  7 23 16 17 22 20 26  3                0.000287980
  -3989417.573 6  -3117134.164 5  23237956.681       -3424.699
   -405833.237 7 -13474837.353 6  22790907.582        2614.548
 -17953649.685 7 -13469861.930 7  21204633.098       -1471.764
  -6466496.901 6  -5028697.790 5  24207781.803       -2568.589
  -2215789.099 7  -1847448.780 6  22451980.466        3082.603
  -4045334.428 5  -3154969.504 5  23618729.684       -2314.382
 -31327868.832 8 -15529384.717 7  21310521.283       -1562.585
 93  5  8  4  6 30.0000000  0  7 23 16 17 22 20 26  3                0.000285460
  -4092042.159 6  -3197101.276 5  23218427.717       -3417.139
   -327227.999 7 -13413586.529 6  22805865.718        2625.696
 -17997669.053 7 -13504162.709 7  21196256.606       -1462.905
  -6543359.160 6  -5088590.439 5  24193155.850       -2555.708
  -2123182.224 6  -1775287.588 6  22469602.936        3091.039
  -4114628.317 5  -3208964.596 5  23605542.683       -2305.286
 -31374657.850 8 -15565843.665 8  21301617.597       -1557.027
 93  5  8  4  7  0.0000000  0  7 23 16 17 22 20 26  3                0.000282960
  -4194451.699 6  -3276900.789 5  23198939.688       -3410.236
   -248288.782 7 -13352075.467 6  22820887.479        2636.808
 -18041423.733 7 -13538257.232 7  21187930.240       -1454.224
  -6619838.777 6  -5148184.969 5  24178602.242       -2543.051
  -2030325.460 6  -1702931.671 6  22487272.957        3099.305
  -4183650.348 5  -3262747.879 5  23592408.537       -2296.300
 -31421279.536 8 -15602172.220 8  21292745.710       -1551.379
 93  5  8  4  7 30.0000000  0  7 23 16 17 22 20 26  3                0.000280450
  -4296647.568 6  -3356533.845 5  23179492.301       -3403.048
   -169019.407 7 -13290307.166 6  22835972.025        2647.539
 -18084920.617 7 -13572150.870 7  21179652.912       -1445.711
  -6695952.340 6  -5207494.136 5  24164118.141       -2531.253
  -1937220.698 6  -1630382.543 6  22504989.861        3107.566
  -4252403.738 6  -3316321.956 5  23579325.493       -2287.435
 -31467730.817 8 -15638368.019 8  21283906.309       -1545.694
 93  5  8  4  8  0.0000000  0  7 23 16 17 22 20 26  3                0.000277920
  -4398639.971 6  -3436008.385 5  23160083.767       -3396.704
    -89439.682 7 -13228296.979 6  22851115.251        2657.563
 -18128168.783 8 -13605850.696 7  21171423.038       -1437.706
  -6771716.618 6  -5266531.152 5  24149700.411       -2519.790
  -1843873.467 6  -1557644.461 6  22522753.250        3115.448
  -4320901.878 6  -3369697.017 5  23566290.487       -2279.212
 -31514012.990 8 -15674432.016 8  21275099.027       -1540.109
 93  5  8  4  8 30.0000000  0  7 23 16 17 22 20 26  3                0.000275370
  -4500450.157 6  -3515340.876 5  23140709.821       -3390.662
     -9564.285 7 -13166056.427 6  22866315.429        2667.327
 -18171181.659 7 -13639367.200 7  21163237.975       -1429.859
  -6847132.289 6  -5325296.678 5  24135349.564       -2507.954
  -1750286.816 6  -1484719.819 6  22540562.342        3123.566
  -4389154.532 5  -3422880.793 5  23553302.202       -2270.905
 -31560124.001 8 -15710362.657 8  21266324.470       -1534.229
 93  5  8  4  9  0.0000000  0  7 23 16 17 22 20 26  3                0.000272780
  -4602077.565 6  -3594530.965 5  23121371.077       -3384.354
     70592.755 7 -13103596.385 6  22881569.138        2676.588
 -18213964.615 8 -13672704.535 7  21155096.680       -1422.290
  -6922203.815 6  -5383793.907 5  24121063.935       -2496.569
  -1656464.248 6  -1411611.353 6  22558416.063        3131.316
  -4457157.773 6  -3475870.220 5  23540361.265       -2262.512
 -31606063.188 8 -15746159.401 8  21257582.523       -1528.560
 93  5  8  4  9 30.0000000  0  7 23 16 17 22 20 26  3                0.000270180
  -4703500.397 6  -3673561.680 5  23102071.211       -3377.267
    151037.871 7 -13040911.933 6  22896877.322        2686.280
 -18256510.238 8 -13705856.950 7  21147000.506       -1414.188
  -6996918.793 6  -5442013.297 5  24106846.009       -2484.503
  -1562406.749 6  -1338319.812 6  22576314.753        3139.087
  -4524905.677 6  -3528660.700 5  23527469.691       -2254.093
 -31651826.873 8 -15781819.407 8  21248874.082       -1522.704
 93  5  8  4 10  0.0000000  0  7 23 16 17 22 20 26  3                0.000267560
  -4804710.292 6  -3752426.435 5  23082811.633       -3370.053
    231771.954 7 -12978002.242 6  22912240.157        2695.968
 -18298814.037 8 -13738820.905 7  21138950.271       -1406.110
  -7071262.197 6  -5499943.306 5  24092699.022       -2471.759
  -1468119.622 6  -1264849.343 6  22594257.050        3146.670
  -4592390.831 6  -3581246.420 5  23514627.511       -2244.950
 -31697415.232 8 -15817342.776 8  21240198.796       -1516.834
 93  5  8  4 10 30.0000000  0  7 23 16 17 22 20 26  3                0.000264950
  -4905695.997 6  -3831116.516 5  23063594.758       -3362.328
    312808.609 7 -12914856.798 6  22927660.910        2706.481
 -18340877.085 8 -13771597.286 7  21130945.804       -1397.943
  -7145215.286 6  -5557569.000 5  24078625.683       -2458.362
  -1373604.704 6  -1191201.377 6  22612242.961        3154.330
  -4659591.724 6  -3633610.684 5  23501839.487       -2235.088
 -31742825.532 8 -15852727.395 8  21231557.488       -1510.724
 93  5  8  4 11  0.0000000  0  7 23 16 17 22 20 26  3                0.000262360
  -5006449.856 6  -3909625.915 5  23044421.729       -3354.768
    394156.329 6 -12851468.986 6  22943140.726        2716.454
 -18382690.880 8 -13804179.418 7  21122988.709       -1389.794
  -7218760.043 6  -5614876.544 5  24064630.430       -2444.663
  -1278861.113 6  -1117375.201 6  22630272.368        3161.703
  -4726494.776 6  -3685742.877 5  23489108.016       -2225.526
 -31788052.593 8 -15887969.250 8  21222951.146       -1504.811
 93  5  8  4 11 30.0000000  0  7 23 16 17 22 20 26  3                0.000259800
  -5106969.991 6  -3987953.189 5  23025293.262       -3346.861
    475804.388 6 -12787847.167 5  22958677.869        2726.322
 -18424255.805 8 -13836567.649 7  21115079.075       -1381.406
  -7291881.643 6  -5671854.427 5  24050715.728       -2430.450
  -1183893.949 6  -1043374.846 6  22648344.036        3169.206
  -4793119.029 6  -3737657.803 5  23476430.207       -2216.283
 -31833097.118 8 -15923068.853 8  21214379.331       -1498.583
 93  5  8  4 12  0.0000000  0  7 23 16 17 22 20 26  3                0.000257240
  -5207258.597 6  -4066100.057 5  23006209.012       -3339.073
    557736.850 6 -12724003.667 6  22974268.993        2735.826
 -18465573.025 8 -13868762.845 7  21107216.859       -1373.044
  -7364583.868 6  -5728505.497 5  24036880.904       -2416.365
  -1088706.512 6   -969202.833 6  22666457.657        3176.592
  -4859460.089 6  -3789352.032 5  23463806.153       -2206.677
 -31877956.920 8 -15958024.515 8  21205842.640       -1492.307
 93  5  8  4 12 30.0000000  0  7 23 16 17 22 20 26  3                0.000254690
  -5307316.101 6  -4144066.883 5  22987167.934       -3331.280
    639945.586 6 -12659944.946 5  22989912.626        2744.807
 -18506638.431 8 -13900761.825 7  21099402.249       -1364.386
  -7436872.890 6  -5784834.533 5  24023124.875       -2402.763
   -993302.742 6   -894862.238 6  22684611.590        3183.728
  -4925534.310 6  -3840838.361 5  23451233.089       -2198.175
 -31922631.753 8 -15992836.063 8  21197341.405       -1486.085
 93  5  8  4 13  0.0000000  0  7 23 16 17 22 20 26  3                0.000252130
  -5407136.219 6  -4221848.710 5  22968172.854       -3323.425
    722421.910 6 -12595677.705 5  23005607.530        2753.519
 -18547432.159 8 -13932549.122 7  21091639.532       -1355.291
  -7508752.842 6  -5840844.819 5  24009446.616       -2389.293
   -897680.272 6   -820351.248 6  22702808.052        3190.981
  -4991354.236 6  -3892126.583 5  23438707.840       -2189.914
 -31967114.299 8 -16027497.764 8  21188876.706       -1479.703
 93  5  8  4 13 30.0000000  0  7 23 16 17 22 20 26  3                0.000249540
  -5506720.793 6  -4299446.983 5  22949222.863       -3315.518
    805166.235 6 -12531201.643 5  23021353.359        2762.906
 -18587957.258 8 -13964127.090 7  21083927.972       -1346.242
  -7580237.559 6  -5896547.205 5  23995843.835       -2376.241
   -801843.669 6   -745673.409 6  22721045.198        3198.199
  -5056915.752 6  -3943213.405 5  23426231.836       -2180.653
 -32011404.495 8 -16062009.571 8  21180448.640       -1473.140
 93  5  8  4 14  0.0000000  0  7 23 16 17 22 20 26  3                0.000246940
  -5606076.724 6  -4376867.120 5  22930315.972       -3308.147
    888190.833 6 -12466507.161 5  23037152.401        2772.040
 -18628211.766 8 -13995494.204 7  21076267.693       -1337.529
  -7651331.865 6  -5951945.315 5  23982314.937       -2363.396
   -705795.054 6   -670830.362 6  22739322.805        3205.015
  -5122203.043 6  -3994086.519 5  23413807.661       -2171.906
 -32055499.445 8 -16096369.251 8  21172057.759       -1466.791
 93  5  8  4 14 30.0000000  0  7 23 16 17 22 20 26  3                0.000244310
  -5705204.370 6  -4454109.366 5  22911452.423       -3300.194
    971489.708 6 -12401598.939 5  23053003.768        2781.356
 -18668203.253 8 -14026656.372 7  21068657.653       -1328.541
  -7722040.396 6  -6007042.770 5  23968859.192       -2350.349
   -609540.824 6   -595827.062 6  22757639.664        3211.985
  -5187225.969 6  -4044753.667 5  23401433.954       -2162.641
 -32099401.150 8 -16130578.341 8  21163703.432       -1460.126
 93  5  8  4 15  0.0000000  0  7 23 16 17 22 20 26  3                0.000241660
  -5804098.195 6  -4531169.421 5  22892633.492       -3292.655
   1055066.431 6 -12336474.275 5  23068907.578        2790.410
 -18707934.554 8 -14057615.789 7  21061096.976       -1320.257
  -7792358.221 6  -6061835.891 5  23955478.250       -2337.503
   -513082.589 6   -520664.820 6  22775994.817        3218.543
  -5251959.625 6  -4095195.417 5  23389115.743       -2152.842
 -32143106.288 8 -16164634.264 8  21155386.451       -1453.784
 93  5  8  4 15 30.0000000  0  7 23 16 17 22 20 26  3                0.000239000
  -5902748.538 6  -4608039.745 5  22873860.686       -3283.838
   1138923.289 6 -12271131.288 5  23084865.002        2800.031
 -18747413.850 8 -14088378.840 7  21053584.227       -1311.483
  -7862283.915 6  -6116323.423 5  23942171.932       -2323.923
   -416426.000 6   -445348.039 6  22794387.776        3225.315
  -5316387.471 6  -4145398.911 5  23376855.621       -2142.323
 -32186615.663 8 -16198537.639 8  21147106.783       -1447.011
 93  5  8  4 16  0.0000000  0  7 23 16 17 22 20 26  3                0.000236340
  -6001124.185 6  -4684696.025 5  22855140.357       -3274.474
   1223057.656 6 -12205572.062 5  23100875.437        2808.921
 -18786627.900 8 -14118935.220 7  21046122.022       -1302.843
  -7931801.088 6  -6170492.610 5  23928943.329       -2310.477
   -319568.289 6   -369874.533 5  22812819.145        3231.897
  -5380507.599 6  -4195362.568 5  23364653.688       -2132.271
 -32229922.199 8 -16232282.969 8  21138865.737       -1440.283
 93  5  8  4 16 30.0000000  0  7 23 16 17 22 20 26  3                0.000233680
  -6099208.471 6  -4761125.267 5  22836475.238       -3264.757
   1307474.543 6 -12139792.696 5  23116939.165        2818.660
 -18825571.245 8 -14149280.633 7  21038711.402       -1293.539
  -8000898.763 6  -6224334.858 5  23915794.842       -2296.116
   -222503.700 6   -294239.801 5  22831289.924        3238.857
  -5444305.771 6  -4245075.355 5  23352513.232       -2121.129
 -32273015.135 8 -16265861.845 8  21130665.485       -1432.957
 93  5  8  4 17  0.0000000  0  7 23 16 17 22 20 26  3                0.000231040
  -6197014.806 6  -4837337.925 5  22817863.148       -3255.570
   1392175.428 6 -12073792.063 5  23133057.278        2828.045
 -18864242.002 8 -14179413.675 7  21031352.397       -1284.344
  -8069563.961 6  -6277840.205 5  23902727.907       -2281.446
   -125237.169 6   -218447.706 5  22849799.313        3245.587
  -5507779.252 6  -4294535.196 5  23340434.396       -2110.449
 -32315894.542 8 -16299274.335 8  21122505.904       -1425.830
 93  5  8  4 17 30.0000000  0  7 23 16 17 22 20 26  3                0.000228400
  -6294542.174 6  -4913333.218 5  22799304.489       -3246.267
   1477153.987 6 -12007575.012 5  23149228.201        2837.258
 -18902630.628 8 -14209326.851 7  21024047.406       -1274.754
  -8137787.391 6  -6331001.349 5  23889745.414       -2266.543
    -27771.161 6   -142500.199 5  22868346.284        3252.216
  -5570934.991 6  -4343747.400 5  23328415.963       -2099.897
 -32358558.265 8 -16332518.769 8  21114387.203       -1418.557
 93  5  8  4 18  0.0000000  0  7 23 16 17 22 20 26  3                0.000225770
  -6391808.042 6  -4989124.718 6  22780795.733       -3238.040
   1562403.755 6 -11941146.620 5  23165451.313        2846.332
 -18940734.543 8 -14239018.183 7  21016796.484       -1265.395
  -8205557.109 6  -6383808.812 5  23876848.973       -2251.306
     69891.347 6    -66399.587 5  22886930.838        3258.739
  -5633782.819 6  -4392719.654 5  23316456.291       -2089.655
 -32401004.567 8 -16365593.779 8  21106309.915       -1411.204
 93  5  8  4 18 30.0000000  0  7 23 16 17 22 20 26  3                0.000223150
  -6488838.651 6  -5064732.928 6  22762331.635       -3230.366
   1647926.575 6 -11874505.502 5  23181725.987        2855.349
 -18978562.876 8 -14268494.775 7  21009597.976       -1256.336
  -8272872.606 6  -6436262.400 5  23864039.261       -2236.305
    167744.659 6      9849.743 5  22905551.726        3264.882
  -5696318.074 6  -4441448.357 5  23304556.571       -2079.285
 -32443233.970 8 -16398499.773 8  21098273.870       -1404.148
 93  5  8  4 19  0.0000000  0  7 23 16 17 22 20 26  3                0.000220530
  -6585631.520 6  -5140155.901 6  22743912.580       -3222.160
   1733722.229 6 -11807651.801 5  23198052.033        2864.406
 -19016119.201 8 -14297759.407 7  21002451.095       -1247.480
  -8339740.183 6  -6488367.049 5  23851314.880       -2221.561
    265782.074 6     86242.534 5  22924208.042        3270.923
  -5758542.427 6  -4489934.796 5  23292715.718       -2068.771
 -32485248.323 8 -16431238.202 8  21090278.875       -1397.017
 93  5  8  4 19 30.0000000  0  7 23 16 17 22 20 26  3                0.000217920
  -6682169.962 6  -5215380.589 6  22725541.657       -3214.009
   1819792.870 6 -11740583.777 5  23214430.754        2873.559
 -19053417.013 8 -14326822.598 7  20995353.599       -1239.337
  -8406171.808 6  -6540131.852 5  23838673.240       -2207.333
    364001.148 6    162776.820 5  22942898.780        3276.859
  -5820436.321 6  -4538163.779 5  23280937.723       -2057.466
 -32527045.415 8 -16463807.337 8  21082325.271       -1389.814
 93  5  8  4 20  0.0000000  0  7 23 16 17 22 20 26  3                0.000215320
  -6778470.378 6  -5290419.806 6  22707216.472       -3205.951
   1906137.793 6 -11673302.065 5  23230861.667        2882.758
 -19090484.376 8 -14355706.241 8  20988300.000       -1231.944
  -8472180.251 6  -6591566.936 5  23826112.201       -2193.374
    462393.503 6    239446.156 5  22961622.331        3282.578
  -5881989.652 6  -4586127.360 5  23269224.444       -2046.065
 -32568629.105 8 -16496210.187 8  21074412.179       -1382.703
 93  5  8  4 20 30.0000000  0  7 23 16 17 22 20 26  3                0.000212720
  -6874513.806 6  -5365258.773 6  22688940.395       -3196.984
   1992758.103 6 -11605805.781 5  23247344.868        2891.780
 -19127333.142 8 -14384419.530 8  20981288.057       -1224.621
  -8537779.072 6  -6642682.922 5  23813629.552       -2179.950
    560955.468 6    316247.704 5  22980378.135        3288.192
  -5943188.323 6  -4633814.572 5  23257578.255       -2034.052
 -32609997.931 8 -16528445.598 8  21066539.890       -1375.480
 93  5  8  4 21  0.0000000  0  7 23 16 17 22 20 26  3                0.000210130
  -6970283.604 6  -5439884.541 6  22670715.784       -3187.830
   2079640.417 6 -11538105.286 5  23263877.921        2900.117
 -19163958.091 8 -14412958.410 8  20974318.421       -1217.153
  -8602969.901 6  -6693480.938 5  23801224.314       -2166.121
    659687.568 6    393181.775 5  22999166.299        3293.871
  -6004026.363 6  -4681220.808 5  23246000.779       -2021.738
 -32651146.644 8 -16560509.502 8  21058709.579       -1368.056
 93  5  8  4 21 30.0000000  0  7 23 16 17 22 20 26  3                0.000207530
  -7065783.961 6  -5514300.325 6  22652542.539       -3178.744
   2166756.024 6 -11470223.014 5  23280455.285        2907.666
 -19200359.216 8 -14441322.898 8  20967391.536       -1209.419
  -8667746.073 6  -6743955.778 5  23788897.447       -2152.064
    758586.825 6    470246.093 5  23017985.639        3299.490
  -6064501.831 6  -4728344.498 5  23234492.693       -2010.147
 -32692073.258 8 -16592400.361 8  21050921.410       -1360.506
 93  5  8  4 22  0.0000000  0  7 23 16 17 22 20 26  3                0.000204930
  -7161009.002 6  -5588501.615 6  22634421.573       -3169.089
   2254092.538 6 -11402168.642 5  23297074.970        2915.010
 -19236522.865 8 -14469502.337 8  20960509.721       -1201.132
  -8732090.029 6  -6794093.917 5  23776653.149       -2137.335
    857653.360 6    547440.776 5  23036837.210        3305.138
  -6124643.508 6  -4775208.068 5  23223048.156       -1999.217
 -32732773.352 8 -16624114.693 8  21043176.502       -1352.834
 93  5  8  4 22 30.0000000  0  7 23 16 17 22 20 26  3                0.000202310
  -7255943.391 6  -5662476.408 6  22616356.003       -3159.924
   2341638.058 6 -11333951.395 5  23313734.698        2921.434
 -19272436.561 8 -14497486.997 8  20953675.394       -1192.844
  -8796003.825 6  -6843896.867 5  23764490.562       -2123.307
    956884.529 6    624763.757 5  23055720.804        3310.350
  -6184459.049 6  -4821817.520 5  23211665.637       -1988.585
 -32773244.476 8 -16655650.609 8  21035474.954       -1345.382
 93  5  8  4 23  0.0000000  0  7 23 16 17 22 20 26  3                0.000199680
  -7350604.095 6  -5736237.947 6  22598342.629       -3150.997
   2429387.637 6 -11265575.102 5  23330432.837        2928.390
 -19308084.307 8 -14525264.427 8  20946891.910       -1183.878
  -8859475.326 6  -6893355.100 5  23752412.574       -2108.282
   1056280.285 6    702214.959 5  23074634.966        3315.750
  -6243951.990 6  -4868175.560 5  23200344.445       -1977.830
 -32813481.543 8 -16687004.145 8  21027818.095       -1337.542
 93  5  8  4 23 30.0000000  0  7 23 16 17 22 20 26  3                0.000197030
  -7445003.537 6  -5809795.893 6  22580379.050       -3142.159
   2517349.513 6 -11197033.444 5  23347171.560        2936.008
 -19343468.714 8 -14552836.673 8  20940158.391       -1174.900
  -8922501.694 6  -6942466.480 5  23740419.188       -2093.240
   1155832.621 6    779788.177 5  23093578.919        3321.113
  -6303131.759 6  -4914289.667 5  23189083.252       -1967.472
 -32853487.901 8 -16718177.919 8  21020205.104       -1329.680
 93  5  8  4 24  0.0000000  0  7 23 16 17 22 20 26  3                0.000194370
  -7539132.436 6  -5883143.032 6  22562466.679       -3132.882
   2605549.806 6 -11128305.999 5  23363955.890        2944.116
 -19378585.529 8 -14580200.398 8  20933475.878       -1166.001
  -8985078.341 6  -6991227.432 5  23728511.123       -2078.455
   1255540.156 6    857482.336 5  23112552.753        3326.211
  -6361989.451 6  -4960152.716 5  23177882.915       -1955.979
 -32893260.063 8 -16749169.190 8  21012636.754       -1321.881
 93  5  8  4 24 30.0000000  0  7 23 16 17 22 20 26  3                0.000191700
  -7632982.144 6  -5956272.616 6  22544607.293       -3123.845
   2693989.651 6 -11059391.838 5  23380785.329        2951.752
 -19413430.858 8 -14607352.571 8  20926844.927       -1157.187
  -9047216.094 6  -7039646.494 5  23716686.749       -2063.934
   1355399.435 6    935294.786 5  23131555.557        3330.960
  -6420495.157 6  -5005741.494 5  23166749.841       -1944.533
 -32932796.573 8 -16779976.837 8  21005113.163       -1314.181
 93  5  8  4 25  0.0000000  0  7 23 16 17 22 20 26  3                0.000189030
  -7726555.092 6  -6029186.552 6  22526800.702       -3114.312
   2782665.172 6 -10990294.077 5  23397659.569        2959.756
 -19448009.801 8 -14634297.162 8  20920264.773       -1148.354
  -9108900.130 6  -7087711.904 5  23704948.378       -2048.578
   1455403.266 6   1013219.781 5  23150585.723        3335.793
  -6478650.866 6  -5051057.598 5  23155683.335       -1932.454
 -32972099.842 8 -16810602.745 8  20997634.021       -1306.335
 93  5  8  4 25 30.0000000  0  7 23 16 17 22 20 26  3                0.000186370
  -7819828.702 6  -6101867.209 6  22509051.081       -3103.980
   2871573.539 6 -10921014.888 5  23414578.145        2967.446
 -19482331.285 8 -14661041.151 8  20913733.623       -1139.727
  -9170122.652 6  -7135417.697 5  23693298.148       -2032.921
   1555551.519 6   1091257.349 5  23169643.501        3340.716
  -6536439.361 6  -5096087.524 5  23144686.599       -1920.000
 -33011164.880 8 -16841042.999 8  20990200.217       -1298.262
 93  5  8  4 26  0.0000000  0  7 23 16 17 22 20 26  3                0.000183710
  -7912793.173 6  -6174307.003 6  22491360.657       -3093.583
   2960705.150 6 -10851561.706 5  23431539.572        2974.648
 -19516394.084 8 -14687583.546 8  20907251.770       -1131.033
  -9230881.517 6  -7182762.232 5  23681736.037       -2017.467
   1655843.026 6   1169406.567 5  23188728.287        3345.554
  -6593849.642 6  -5140822.757 5  23133761.280       -1907.222
 -33049988.097 8 -16871294.833 8  20982812.341       -1290.050
 93  5  8  4 26 30.0000000  0  7 23 16 17 22 20 26  3                0.000181060
  -8005458.793 6  -6246513.911 6  22473726.834       -3084.267
   3050042.369 6 -10781948.271 5  23448539.512        2981.210
 -19550201.064 8 -14713926.607 8  20900818.724       -1122.960
  -9291173.889 6  -7229743.309 5  23670262.587       -2001.932
   1756277.157 6   1247666.908 5  23207839.688        3349.989
  -6650884.578 6  -5185265.538 5  23122907.835       -1895.131
 -33088565.453 8 -16901355.085 8  20975471.244       -1282.060
 93  5  8  4 27  0.0000000  0  7 23 16 17 22 20 26  3                0.000178400
  -8097842.640 6  -6318501.259 6  22456147.123       -3074.737
   3139584.651 6 -10712175.058 5  23465578.697        2988.193
 -19583766.569 8 -14740081.522 8  20894431.475       -1114.843
  -9350994.717 6  -7276356.859 5  23658878.701       -1986.263
   1856845.011 6   1326031.404 5  23226976.890        3354.419
  -6707554.145 6  -5229423.571 5  23112123.881       -1882.820
 -33126900.620 8 -16931226.625 8  20968176.354       -1273.955
 93  5  8  4 27 30.0000000  0  7 23 16 17 22 20 26  3                0.000175760
  -8189942.054 6  -6390266.961 6  22438621.276       -3065.369
   3229339.285 6 -10642236.465 5  23482658.611        2995.413
 -19617087.073 8 -14766045.513 8  20888090.665       -1106.531
  -9410352.555 6  -7322609.630 5  23647583.207       -1970.937
   1957542.606 6   1404497.049 5  23246138.803        3358.714
  -6763863.105 6  -5273300.605 5  23101408.808       -1871.258
 -33164993.119 8 -16960909.049 8  20960927.542       -1265.826
 93  5  8  4 28  0.0000000  0  7 23 16 17 22 20 26  3                0.000173110
  -8281760.111 6  -6461813.427 6  22421148.870       -3055.926
   3319314.115 6 -10572126.184 5  23499780.539        3002.713
 -19650151.878 8 -14791810.267 8  20881798.691       -1097.985
  -9469249.069 6  -7368503.043 5  23636376.097       -1955.628
   2058368.839 6   1483062.928 5  23265325.800        3362.949
  -6819818.705 6  -5316902.362 5  23090760.577       -1859.232
 -33202839.018 8 -16990399.344 8  20953725.619       -1257.587
 93  5  8  4 28 30.0000000  0  7 23 16 17 22 20 26  3                0.000170460
  -8373291.491 6  -6533136.532 6  22403730.901       -3046.014
   3409512.973 6 -10501841.331 5  23516944.740        3010.598
 -19682954.013 8 -14817370.349 8  20875556.553       -1088.755
  -9527681.261 6  -7414034.570 5  23625256.606       -1939.815
   2159321.211 6   1561727.114 5  23284536.739        3367.129
  -6875410.237 6  -5360220.333 5  23080181.854       -1846.922
 -33240435.977 8 -17019695.657 8  20946571.199       -1249.125
 93  5  8  4 29  0.0000000  0  7 23 16 17 22 20 26  3                0.000167810
  -8464512.420 6  -6604217.716 6  22386372.307       -3035.475
   3499951.462 6 -10431369.800 5  23534154.653        3018.364
 -19715476.152 8 -14842712.242 8  20869367.648       -1079.493
  -9585644.573 6  -7459200.697 5  23614226.178       -1924.515
   2260399.984 6   1640489.731 5  23303771.953        3371.259
  -6930631.229 6  -5403249.640 5  23069673.854       -1834.526
 -33277778.497 8 -17048793.692 8  20939465.171       -1240.693
 93  5  8  4 29 30.0000000  0  7 23 16 17 22 20 26  3                0.000165160
  -8555419.618 6  -6675054.423 6  22369073.302       -3024.939
   3590611.112 6 -10360725.977 5  23551406.797        3025.665
 -19747723.754 8 -14867840.206 8  20863230.936       -1070.303
  -9643148.113 6  -7504008.582 5  23603283.677       -1909.014
   2361600.112 6   1719346.950 5  23323029.330        3375.461
  -6985477.760 6  -5445987.096 5  23059237.054       -1821.730
 -33314867.008 8 -17077693.804 8  20932407.286       -1232.033
 93  5  8  4 30  0.0000000  0  7 23 16 17 22 20 26  3                0.000162500
  -8646008.781 7  -6745643.320 6  22351834.706       -3014.366
   3681483.981 6 -10289915.963 5  23568699.567        3032.518
 -19779696.920 8 -14892754.336 8  20857146.798       -1061.383
  -9700184.169 6  -7548452.294 5  23592430.100       -1893.550
   2462923.992 6   1798300.623 5  23342310.833        3379.337
  -7039925.617 6  -5488413.956 5  23048876.072       -1808.236
 -33351693.986 8 -17106390.118 8  20925399.318       -1223.403
 93  5  8  4 30 30.0000000  0  7 23 16 17 22 20 26  3                0.000159840
  -8736281.489 7  -6815985.634 6  22334656.370       -3003.953
   3772565.953 6 -10218943.000 5  23586031.704        3039.448
 -19811410.649 8 -14917466.299 8  20851111.834       -1053.071
  -9756760.191 6  -7592537.462 5  23581664.393       -1878.294
   2564364.615 6   1877345.248 5  23361614.370        3383.183
  -7093979.752 6  -5530534.009 5  23038589.806       -1795.561
 -33388261.788 8 -17134884.486 8  20918440.705       -1214.749
 93  5  8  4 31  0.0000000  0  7 23 16 17 22 20 26  3                0.000157180
  -8826245.312 6  -6886087.248 6  22317536.811       -2993.681
   3863844.021 6 -10147817.239 5  23603400.454        3045.783
 -19842892.218 8 -14941997.376 8  20845121.042       -1045.654
  -9812884.993 6  -7636270.980 5  23570984.167       -1863.263
   2665916.970 6   1956476.907 5  23380938.862        3387.041
  -7147653.173 6  -5572357.393 5  23028375.958       -1782.554
 -33424570.022 8 -17163176.589 8  20911531.509       -1205.939
 93  5  8  4 31 30.0000000  0  7 23 16 17 22 20 26  3                0.000154510
  -8915904.180 6  -6955951.213 6  22300475.223       -2983.396
   3955313.110 6 -10076542.691 5  23620806.739        3052.391
 -19874147.562 8 -14966352.163 8  20839173.120       -1037.869
  -9868555.436 6  -7679650.540 5  23560390.492       -1847.874
   2767583.071 6   2035697.231 5  23400284.940        3390.827
  -7200934.447 6  -5613875.176 5  23018236.716       -1769.389
 -33460612.334 8 -17191261.482 8  20904672.826       -1196.988
 93  5  8  4 32  0.0000000  0  7 23 16 17 22 20 26  3                0.000151840
  -9005256.024 7  -7025575.943 6  22283471.662       -2973.388
   4046983.993 6 -10005110.839 5  23638251.257        3058.927
 -19905171.903 8 -14990526.938 8  20833269.318       -1030.418
  -9923762.124 6  -7722668.787 5  23549884.865       -1832.480
   2869358.238 6   2115002.576 5  23419652.172        3394.156
  -7253825.054 6  -5655088.553 5  23008171.984       -1756.664
 -33496388.253 8 -17219138.810 8  20897864.838       -1188.261
 93  5  8  4 32 30.0000000  0  7 23 16 17 22 20 26  3                0.000149180
  -9094305.012 6  -7094964.707 6  22266526.375       -2963.359
   4138848.728 6  -9933527.902 5  23655732.755        3065.129
 -19935969.554 8 -15014525.086 8  20827408.806       -1022.827
  -9978500.945 6  -7765322.326 5  23539468.426       -1816.763
   2971240.129 6   2194391.039 5  23439040.449        3397.687
  -7306330.308 6  -5696001.729 5  22998180.270       -1743.790
 -33531895.437 8 -17246806.720 8  20891107.827       -1179.336
 93  5  8  4 33  0.0000000  0  7 23 16 17 22 20 26  3                0.000146510
  -9183050.636 6  -7164117.068 6  22249638.668       -2953.135
   4230892.174 6  -9861805.768 5  23673247.620        3071.067
 -19966533.400 8 -15038341.054 8  20821592.672       -1014.664
 -10032761.943 6  -7807603.574 5  23529142.922       -1800.607
   3073222.317 6   2273857.602 5  23458446.925        3401.033
  -7358437.603 6  -5736604.744 5  22988264.663       -1730.110
 -33567134.866 8 -17274265.991 8  20884402.017       -1170.271
 93  5  8  4 33 30.0000000  0  7 23 16 17 22 20 26  3                0.000143850
  -9271486.409 6  -7233027.989 6  22232809.516       -2942.548
   4323117.961 6  -9789941.553 5  23690797.154        3077.202
 -19996836.858 8 -15061954.100 8  20815826.225       -1005.594
 -10086529.553 6  -7849500.451 5  23518911.517       -1783.908
   3175305.596 6   2353403.033 5  23477872.877        3404.456
  -7410136.372 6  -5776889.432 5  22978426.505       -1716.446
 -33602101.682 8 -17301512.835 8  20877748.195       -1161.065
 93  5  8  4 34  0.0000000  0  7 23 16 17 22 20 26  3                0.000141190
  -9359608.128 6  -7301694.183 6  22216040.355       -2932.291
   4415516.030 6  -9717943.067 5  23708380.473        3082.553
 -20026878.961 8 -15085363.501 8  20810109.392        -997.307
 -10139799.899 6  -7891009.787 5  23508774.407       -1767.621
   3277484.068 6   2433022.645 5  23497316.776        3407.322
  -7461431.651 6  -5816859.715 5  22968664.845       -1703.347
 -33636796.600 8 -17328547.821 8  20871146.045       -1152.201
 93  5  8  4 34 30.0000000  0  7 23 16 17 22 20 26  3                0.000138520
  -9447416.107 7  -7370115.920 6  22199330.914       -2921.388
   4508075.999 6  -9645818.429 5  23725994.465        3088.342
 -20056665.680 8 -15108573.906 8  20804441.055        -988.396
 -10192586.367 6  -7932142.037 5  23498729.507       -1751.476
   3379750.706 6   2512710.939 5  23516777.224        3410.465
  -7512333.093 6  -5856523.177 5  22958979.028       -1689.990
 -33671221.859 8 -17355372.672 8  20864594.970       -1142.986
 93  5  8  4 35  0.0000000  0  7 23 16 17 22 20 26  3                0.000135850
  -9534894.213 6  -7438280.604 6  22182684.587       -2910.499
   4600819.163 6  -9573551.018 5  23743643.005        3094.463
 -20086192.465 8 -15131581.764 8  20798822.407        -980.016
 -10244893.188 6  -7972900.612 5  23488776.111       -1735.596
   3482106.072 6   2592468.314 5  23536255.019        3413.342
  -7562837.481 6  -5895877.183 5  22949368.014       -1677.027
 -33705371.509 8 -17381982.759 8  20858096.530       -1133.835
 93  5  8  4 35 30.0000000  0  7 23 16 17 22 20 26  3                0.000133170
  -9622042.581 7  -7506188.355 6  22166100.809       -2899.419
   4693748.538 6  -9501138.581 5  23761326.359        3100.803
 -20115465.929 8 -15154392.231 8  20793251.973        -971.740
 -10296723.280 6  -8013287.694 5  23478912.944       -1719.777
   3584547.747 6   2672292.969 5  23555749.053        3416.139
  -7612947.425 6  -5934923.826 5  22939832.604       -1663.677
 -33739243.541 8 -17408376.543 8  20851650.843       -1124.538
 93  5  8  4 36  0.0000000  0  7 23 16 17 22 20 26  3                0.000130500
  -9708863.482 7  -7573840.930 6  22149579.077       -2888.729
   4786870.884 6  -9428575.718 5  23779046.985        3107.389
 -20144503.501 8 -15177018.878 9  20787726.287        -964.134
 -10348076.868 6  -8053303.423 5  23469140.774       -1703.828
   3687072.899 6   2752182.705 5  23575258.278        3418.832
  -7662650.680 6  -5973653.537 5  22930374.357       -1649.849
 -33772835.339 8 -17434551.945 8  20845258.568       -1115.152
 93  5  8  4 36 30.0000000  0  7 23 16 17 22 20 26  3                0.000127840
  -9795370.049 7  -7641248.576 6  22133117.592       -2878.401
   4880190.709 6  -9355858.964 5  23796805.443        3113.688
 -20173314.005 8 -15199468.604 9  20782243.692        -956.723
 -10398954.573 6  -8092948.394 5  23459459.364       -1687.908
   3789679.579 6   2832135.936 5  23594783.559        3421.409
  -7711940.662 6  -6012061.310 5  22920994.887       -1636.170
 -33806144.427 8 -17460507.056 8  20838920.137       -1105.742
 93  5  8  4 37  0.0000000  0  7 23 16 17 22 20 26  3                0.000125180
  -9881570.309 7  -7708417.581 6  22116714.216       -2868.182
   4973684.069 6  -9283007.000 5  23814596.741        3119.058
 -20201909.297 8 -15221750.616 9  20776802.357        -949.480
 -10449344.880 6  -8132213.581 5  23449870.413       -1671.182
   3892361.783 6   2912148.016 5  23614323.545        3424.005
  -7760820.275 6  -6050149.282 5  22911692.817       -1622.334
 -33839171.792 8 -17486242.646 8  20832635.147       -1096.204
 93  5  8  4 37 30.0000000  0  7 23 16 17 22 20 26  3                0.000122530
  -9967462.886 7  -7775346.803 6  22100369.351       -2857.842
   5067332.032 6  -9210034.579 5  23832417.831        3124.368
 -20230277.171 8 -15243855.428 9  20771404.116        -941.657
 -10499223.691 6  -8171080.132 5  23440378.325       -1653.983
   3995119.784 6   2992219.164 5  23633877.628        3426.597
  -7809276.715 6  -6087907.467 5  22902471.948       -1608.119
 -33871912.306 8 -17511754.716 8  20826404.901       -1086.604
 93  5  8  4 38  0.0000000  0  7 23 16 17 22 20 26  3                0.000119900
 -10053040.994 7  -7842030.965 6  22084084.437       -2847.172
   5161139.306 6  -9136938.034 5  23850268.625        3129.506
 -20258412.775 8 -15265779.257 9  20766049.902        -933.831
 -10548587.543 6  -8209545.445 5  23430984.549       -1636.862
   4097950.260 6   3072346.782 5  23653445.908        3428.966
  -7857316.495 6  -6125341.025 5  22893330.165       -1594.562
 -33904364.124 8 -17537041.817 8  20820229.476       -1077.003
 93  5  8  4 38 30.0000000  0  7 23 16 17 22 20 26  3                0.000117270
 -10138287.675 7  -7908456.849 6  22067862.536       -2835.709
   5255093.001 6  -9063727.322 5  23868147.514        3134.090
 -20286304.762 8 -15287513.259 9  20760742.249        -925.438
 -10597436.841 6  -8247609.857 5  23421689.182       -1619.445
   4200846.169 6   3152525.414 5  23673026.595        3430.923
  -7904959.054 6  -6162465.060 5  22884264.253       -1581.433
 -33936529.465 8 -17562105.701 8  20814108.511       -1067.465
 93  5  8  4 39  0.0000000  0  7 23 16 17 22 20 26  3                0.000114630
 -10223179.961 7  -7974606.609 6  22051707.972       -2823.808
   5349191.974 6  -8990403.440 5  23886053.653        3139.273
 -20313940.652 8 -15309047.684 9  20755483.279        -916.888
 -10645755.769 6  -8285260.931 5  23412494.286       -1601.982
   4303806.942 5   3232754.530 5  23692619.223        3432.987
  -7952190.054 6  -6199268.431 5  22875276.884       -1567.274
 -33968404.291 8 -17586943.216 8  20808043.001       -1057.802
 93  5  8  4 39 30.0000000  0  7 23 16 17 22 20 26  3                0.000112010
 -10307719.728 7  -8040481.684 6  22035620.408       -2812.091
   5443457.294 6  -8916949.946 5  23903991.861        3145.248
 -20341313.447 8 -15330377.098 9  20750274.293        -908.095
 -10693568.721 6  -8322517.710 5  23403395.627       -1585.730
   4406825.770 5   3313028.905 5  23712222.761        3434.847
  -7998990.338 6  -6235736.122 5  22866370.982       -1552.756
 -33999990.521 8 -17611555.834 8  20802032.342       -1048.116
 93  5  8  4 40  0.0000000  0  7 23 16 17 22 20 26  3                0.000109380
 -10391903.257 7  -8106079.190 6  22019600.665       -2800.198
   5537896.204 6  -8843361.241 5  23921963.160        3150.467
 -20368430.295 8 -15351507.083 9  20745113.956        -899.609
 -10740903.198 6  -8359401.742 5  23394387.990       -1569.860
   4509899.979 5   3393346.485 5  23731837.271        3436.589
  -8045358.222 6  -6271866.870 5  22857547.762       -1538.205
 -34031285.675 8 -17635941.639 8  20796077.116       -1038.398
 93  5  8  4 40 30.0000000  0  7 23 16 17 22 20 26  3                0.000106730
 -10475744.520 7  -8171409.983 6  22003646.391       -2789.251
   5632476.100 6  -8769662.603 5  23939961.261        3154.911
 -20395292.979 8 -15372439.024 9  20740002.146        -891.304
 -10787766.835 6  -8395918.856 5  23385469.925       -1554.288
   4613023.550 5   3473702.470 5  23751461.072        3438.259
  -8091282.246 6  -6307651.795 5  22848808.781       -1523.290
 -34062290.783 8 -17660101.455 8  20790176.980       -1028.755
 93  5  8  4 41  0.0000000  0  7 23 16 17 22 20 26  3                0.000104050
 -10559262.908 7  -8236489.190 6  21987753.086       -2778.595
   5727195.918 5  -8695854.891 5  23957985.494        3159.906
 -20421910.525 8 -15393179.935 9  20734936.942        -882.986
 -10834176.829 6  -8432082.396 5  23376638.632       -1539.617
   4716194.380 6   3554095.283 5  23771093.723        3439.916
  -8136752.798 6  -6343083.359 5  22840155.839       -1507.957
 -34093003.416 8 -17684033.352 8  20784332.547       -1018.848
 93  5  8  4 41 30.0000000  0  7 23 16 17 22 20 26  3                0.000101350
 -10642470.605 7  -8301326.279 6  21971918.877       -2768.479
   5822048.497 5  -8621943.822 5  23976034.821        3163.692
 -20448276.203 8 -15413724.584 9  20729919.566        -874.697
 -10880149.004 6  -8467904.841 5  23367890.260       -1524.745
   4819410.599 6   3634523.481 5  23790735.146        3441.243
  -8181773.629 6  -6378164.459 5  22831588.645       -1493.497
 -34123419.841 8 -17707734.440 8  20778544.573       -1009.072
 93  5  8  4 42  0.0000000  0  7 23 16 17 22 20 26  3                0.000098620
 -10725369.133 7  -8365922.468 6  21956143.706       -2758.183
   5917011.770 5  -8547946.495 5  23994105.703        3167.133
 -20474393.536 8 -15434075.734 9  20724949.706        -866.289
 -10925650.088 6  -8503360.234 5  23359231.562       -1508.368
   4922670.489 6   3714985.759 5  23810385.403        3442.692
  -8226363.054 6  -6412909.411 5  22823103.375       -1479.113
 -34153538.026 8 -17731203.128 8  20772813.079        -999.039
 93  5  8  4 42 30.0000000  0  7 23 16 17 22 20 26  3                0.000095890
 -10807960.917 7  -8430279.619 6  21940427.010       -2748.042
   6012085.211 5  -8473863.290 5  24012197.138        3171.072
 -20500254.644 8 -15454227.210 9  20720028.601        -857.845
 -10970648.177 6  -8538423.606 5  23350668.817       -1491.630
   5025973.988 6   3795481.982 5  23830044.252        3444.049
  -8270519.397 6  -6447316.939 5  22814700.383       -1464.674
 -34183352.375 8 -17754435.079 8  20767139.759        -988.874
 93  5  8  4 43  0.0000000  0  7 23 16 17 22 20 26  3                0.000093140
 -10890241.733 7  -8494394.482 6  21924769.548       -2737.121
   6107286.736 5  -8399680.280 5  24030313.196        3175.751
 -20525861.719 8 -15474180.737 9  20715155.698        -849.085
 -11015141.247 6  -8573093.470 5  23342201.969       -1474.308
   5129317.103 6   3876009.050 5  23849709.758        3445.600
  -8314238.039 6  -6481383.373 5  22806381.600       -1449.638
 -34212862.321 8 -17777429.813 8  20761524.215        -978.532
 93  5  8  4 43 30.0000000  0  7 23 16 17 22 20 26  3                0.000090410
 -10972183.435 7  -8558245.103 6  21909176.464       -2725.614
   6202622.827 5  -8325392.402 5  24048454.977        3180.108
 -20551205.777 8 -15493929.323 9  20710332.825        -840.694
 -11059092.508 6  -8607341.151 5  23333838.190       -1455.792
   5232701.811 6   3956568.549 5  23869383.327        3446.637
  -8357507.864 6  -6515100.062 5  22798147.260       -1435.149
 -34242060.939 8 -17800181.956 8  20755967.803        -968.337
 93  5  8  4 44  0.0000000  0  7 23 16 17 22 20 26  3                0.000087690
 -11053768.182 7  -8621817.570 6  21893651.381       -2713.451
   6298099.382 5  -8250995.092 5  24066623.736        3184.880
 -20576305.435 8 -15513487.476 9  20705556.623        -832.630
 -11102491.607 6  -8641158.620 5  23325579.775       -1437.750
   5336120.844 6   4037154.797 5  23889063.009        3447.838
  -8400344.622 6  -6548479.276 5  22789995.606       -1420.483
 -34270950.807 8 -17822693.512 8  20750470.217        -957.949
 93  5  8  4 44 30.0000000  0  7 23 16 17 22 20 26  3                0.000084980
 -11134984.991 7  -8685103.324 6  21878196.551       -2701.086
   6393720.418 5  -8176485.271 5  24084819.777        3189.804
 -20601157.815 8 -15532852.940 9  20700827.224        -824.446
 -11145365.196 6  -8674566.560 5  23317421.306       -1420.775
   5439574.379 6   4117767.951 5  23908748.839        3448.927
  -8442729.628 6  -6581506.529 5  22781930.057       -1405.374
 -34299527.192 8 -17844960.821 8  20745032.394        -947.510
 93  5  8  4 45  0.0000000  0  7 23 16 17 22 20 26  3                0.000082280
 -11215817.082 7  -8748089.322 6  21862814.548       -2687.687
   6489491.929 6  -8101858.107 5  24103045.297        3194.998
 -20625769.304 8 -15552030.695 9  20696143.887        -816.424
 -11187728.009 6  -8707576.478 5  23309359.614       -1403.486
   5543059.861 6   4198405.991 5  23928441.337        3450.083
  -8484659.556 6  -6614179.169 5  22773951.003       -1390.124
 -34327787.102 8 -17866981.505 8  20739654.544        -936.795
 93  5  8  4 45 30.0000000  0  7 23 16 17 22 20 26  3                0.000079590
 -11296252.839 7  -8810766.480 7  21847508.114       -2674.925
   6585419.519 6  -8027109.329 5  24121299.951        3200.073
 -20650142.444 8 -15571022.715 9  20691505.770        -808.616
 -11229580.680 6  -8740188.912 5  23301395.193       -1386.902
   5646578.940 6   4279070.189 5  23948140.915        3451.147
  -8526141.844 6  -6646502.980 5  22766057.078       -1375.413
 -34355724.167 8 -17888750.615 8  20734338.356        -926.037
 93  5  8  4 46  0.0000000  0  7 23 16 17 22 20 26  3                0.000076890
 -11376323.598 7  -8873159.240 7  21832270.984       -2663.239
   6681485.298 6  -7952252.887 5  24139580.994        3204.119
 -20674290.318 8 -15589839.224 9  20686910.868        -801.133
 -11270957.118 6  -8772430.270 5  23293521.510       -1371.590
   5750119.908 5   4359751.428 5  23967844.237        3451.608
  -8567184.224 6  -6678484.017 5  22758246.392       -1360.578
 -34383345.501 8 -17910273.705 8  20729082.046        -915.644
 93  5  8  4 46 30.0000000  0  7 23 16 17 22 20 26  3                0.000074170
 -11456044.786 7  -8935279.573 7  21817100.566       -2651.530
   6777678.204 6  -7877297.389 5  24157885.902        3208.714
 -20698205.527 8 -15608474.414 9  20682360.120        -793.466
 -11311867.946 6  -8804308.775 5  23285736.532       -1355.762
   5853678.388 5   4440446.383 5  23987551.067        3452.156
  -8607777.393 6  -6710115.000 5  22750521.701       -1345.962
 -34410650.562 8 -17931550.356 8  20723886.014        -905.032
 93  5  8  4 47  0.0000000  0  7 23 16 17 22 20 26  3                0.000071450
 -11535415.409 7  -8997126.755 7  21801996.610       -2639.804
   6874004.019 6  -7802238.316 5  24176215.878        3213.114
 -20721897.668 8 -15626935.807 9  20677851.400        -785.776
 -11352291.328 6  -8835807.456 5  23278044.314       -1339.050
   5957249.359 5   4521151.011 5  24007258.580        3452.638
  -8647938.144 6  -6741409.090 5  22742879.503       -1331.476
 -34437639.799 8 -17952580.896 8  20718750.129        -894.346
 93  5  8  4 47 30.0000000  0  7 23 16 17 22 20 26  3                0.000068720
 -11614451.766 7  -9058713.474 7  21786956.686       -2628.992
   6970446.615 6  -7727088.209 5  24194568.432        3216.537
 -20745355.144 8 -15645214.329 9  20673387.581        -777.854
 -11392225.164 6  -8866924.678 5  23270445.136       -1322.803
   6060827.064 5   4601860.936 5  24026968.494        3452.752
  -8687674.002 6  -6772372.020 5  22735317.918       -1317.286
 -34464313.395 8 -17973365.501 8  20713674.451        -883.899
 93  5  8  4 48  0.0000000  0  7 23 16 17 22 20 26  3                0.000065990
 -11693154.448 7  -9120040.186 7  21771980.161       -2617.550
   7066991.001 6  -7651858.832 5  24212940.274        3219.889
 -20768577.082 8 -15663309.333 9  20668968.601        -770.024
 -11431660.917 6  -8897653.830 5  23262940.641       -1306.094
   6164407.308 5   4682572.713 5  24046679.014        3452.756
  -8726979.956 6  -6802999.996 5  22727838.515       -1302.949
 -34490671.034 8 -17993903.907 8  20708658.783        -873.386
 93  5  8  4 48 30.0000000  0  7 23 16 17 22 20 26  3                0.000063250
 -11771503.041 7  -9181090.984 7  21757070.823       -2605.529
   7163650.559 6  -7576539.694 5  24231333.921        3224.071
 -20791556.930 8 -15681215.679 9  20664595.669        -761.776
 -11470579.874 6  -8927980.233 5  23255534.121       -1288.356
   6267991.065 5   4763287.338 5  24066390.445        3453.002
  -8765851.603 6  -6833289.594 5  22720441.616       -1288.330
 -34516707.050 8 -18014191.690 8  20703704.284        -862.441
 93  5  8  4 49  0.0000000  0  7 23 16 17 22 20 26  3                0.000060510
 -11849493.836 7  -9241862.963 7  21742229.498       -2593.856
   7260423.519 6  -7501132.237 5  24249748.862        3227.477
 -20814286.841 8 -15698927.275 9  20660270.122        -753.460
 -11508968.918 6  -8957893.728 5  23248229.007       -1270.925
   6371578.142 5   4844004.582 5  24086102.674        3452.846
  -8804277.346 6  -6863231.680 5  22713129.557       -1273.197
 -34542416.804 8 -18034225.236 8  20698811.699        -851.669
 93  5  8  4 49 30.0000000  0  7 23 16 17 22 20 26  3                0.000057770
 -11927128.198 7  -9302357.206 7  21727456.215       -2581.840
   7357294.656 6  -7425648.230 5  24268182.629        3230.582
 -20836772.295 8 -15716448.383 9  20655991.294        -745.882
 -11546835.973 6  -8987400.495 5  23241023.337       -1253.465
   6475163.991 5   4924720.783 5  24105814.851        3452.687
  -8842238.554 6  -6892811.810 5  22705905.448       -1257.473
 -34567800.567 8 -18054004.778 8  20693981.344        -840.892
 93  5  8  4 50  0.0000000  0  7 23 16 17 22 20 26  3                0.000055040
 -12004391.944 7  -9362562.661 7  21712753.523       -2569.221
   7454270.548 5  -7350082.539 5  24286636.617        3234.358
 -20859031.640 8 -15733793.294 9  20651755.277        -738.059
 -11584166.021 6  -9016488.841 5  23233919.310       -1235.371
   6578746.766 5   5005434.599 5  24125526.067        3452.699
  -8879718.848 6  -6922017.139 5  22698773.323       -1241.324
 -34592855.006 8 -18073527.704 8  20689213.695        -829.756
 93  5  8  4 50 30.0000000  0  7 23 16 17 22 20 26  3                0.000052310
 -12081293.727 7  -9422486.069 7  21698119.856       -2557.555
   7551342.475 5  -7274442.057 5  24305108.685        3237.032
 -20881061.609 8 -15750959.473 9  20647563.001        -730.527
 -11620962.667 6  -9045161.522 5  23226917.620       -1217.770
   6682321.574 5   5086142.206 5  24145236.152        3452.412
  -8916719.501 6  -6950848.752 5  22691732.617       -1225.274
 -34617580.153 8 -18092794.019 8  20684508.763        -818.707
 93  5  8  4 51  0.0000000  0  7 23 16 17 22 20 26  3                0.000049570
 -12157838.946 7  -9482131.646 7  21683553.559       -2545.485
   7648494.982 5  -7198738.767 5  24323595.622        3239.889
 -20902865.025 8 -15767949.118 9  20643413.862        -723.252
 -11657235.686 6  -9073426.153 5  23220015.349       -1200.429
   6785890.980 5   5166845.696 5  24164945.116        3452.223
  -8953230.652 6  -6979299.006 5  22684784.879       -1208.856
 -34641968.691 8 -18111798.051 8  20679867.556        -807.472
 93  5  8  4 51 30.0000000  0  7 23 16 17 22 20 26  3                0.000046830
 -12234024.070 7  -9541496.629 7  21669055.915       -2533.611
   7745734.134 5  -7122968.088 5  24342099.535        3242.836
 -20924460.534 8 -15784776.776 9  20639304.456        -716.464
 -11692992.337 6  -9101288.449 5  23213210.957       -1183.319
   6889450.221 5   5247541.178 5  24184652.125        3451.634
  -8989252.098 6  -7007367.618 5  22677930.114       -1192.713
 -34666020.207 8 -18130539.473 8  20675290.796        -796.278
 93  5  8  4 52  0.0000000  0  7 23 16 17 22 20 26  3                0.000044090
 -12309855.082 7  -9600585.663 7  21654625.722       -2521.913
   7843064.328 5  -7047126.343 5  24360620.708        3245.690
 -20945838.687 8 -15801435.046 9  20635236.584        -708.789
 -11728237.035 6  -9128751.859 5  23206503.863       -1166.571
   6992995.406 6   5328225.717 5  24204356.422        3451.180
  -9024789.254 6  -7035058.834 5  22671167.885       -1176.539
 -34689734.231 8 -18149017.927 8  20670778.218        -784.999
 93  5  8  4 52 30.0000000  0  7 23 16 17 22 20 26  3                0.000041330
 -12385338.653 7  -9659403.959 7  21640261.440       -2510.305
   7940476.966 5  -6971220.367 5  24379157.594        3248.643
 -20966990.345 8 -15817916.831 9  20631211.539        -701.392
 -11762986.275 6  -9155829.136 5  23199891.159       -1150.072
   7096524.085 5   5408897.391 5  24224056.909        3450.656
  -9059835.703 6  -7062367.682 5  22664498.704       -1159.914
 -34713108.286 8 -18167231.459 8  20666330.368        -773.549
 93  5  8  4 53  0.0000000  0  7 23 16 17 22 20 26  3                0.000038580
 -12460462.106 7  -9717941.668 7  21625965.765       -2497.972
   8037986.520 5  -6895238.891 5  24397713.378        3252.030
 -20987922.080 8 -15834227.249 9  20627228.347        -694.159
 -11797235.265 6  -9182516.591 5  23193374.110       -1133.167
   7200032.124 6   5489553.046 5  24243753.677        3449.756
  -9094385.463 6  -7089289.578 5  22657923.274       -1143.618
 -34736142.274 8 -18185179.995 8  20661946.992        -762.333
 93  5  8  4 53 30.0000000  0  7 23 16 17 22 20 26  3                0.000035820
 -12535212.475 7  -9776188.663 7  21611741.124       -2485.214
   8135602.685 5  -6819174.291 5  24416289.370        3255.719
 -21008631.532 8 -15850364.465 9  20623287.226        -686.309
 -11830969.037 6  -9208802.656 5  23186954.645       -1115.675
   7303515.253 5   5570189.219 5  24263445.697        3449.186
  -9128449.145 6  -7115832.668 5  22651440.706       -1127.318
 -34758835.373 8 -18202862.930 8  20657628.681        -750.730
 93  5  8  4 54  0.0000000  0  7 23 16 17 22 20 26  3                0.000033070
 -12609573.460 7  -9834132.240 7  21597590.650       -2472.313
   8233319.992 5  -6743031.071 5  24434884.507        3258.767
 -21029098.229 8 -15866312.498 9  20619392.302        -678.219
 -11864178.481 6  -9234680.157 5  23180635.033       -1098.397
   7406981.246 6   5650812.004 5  24283134.456        3448.495
  -9162023.592 6  -7141994.518 5  22645051.834       -1111.135
 -34781175.306 8 -18220270.652 8  20653377.454        -738.905
 93  5  8  4 54 30.0000000  0  7 23 16 17 22 20 26  3                0.000030310
 -12683558.839 7  -9891783.100 7  21583511.825       -2459.855
   8331116.685 5  -6666825.744 5  24453494.649        3261.287
 -21049338.278 8 -15882083.931 9  20615540.958        -670.961
 -11896879.855 6  -9260161.668 5  23174412.059       -1081.417
   7510416.689 6   5731411.094 5  24302817.280        3447.327
  -9195132.345 6  -7167793.466 5  22638751.880       -1096.115
 -34803170.672 8 -18237409.862 8  20649191.863        -727.486
 93  5  8  4 55  0.0000000  0  7 23 16 17 22 20 26  3                0.000027540
 -12757158.880 7  -9949133.759 7  21569506.190       -2446.809
   8428993.922 5  -6590557.752 5  24472120.485        3263.779
 -21069352.096 8 -15897679.087 9  20611732.504        -663.189
 -11929068.470 6  -9285243.670 5  23168287.119       -1064.433
   7613820.146 5   5811985.177 5  24322494.135        3446.258
  -9227790.728 6  -7193241.549 5  22632537.188       -1080.977
 -34824817.683 8 -18254277.647 8  20645072.614        -715.802
 93  5  8  4 55 30.0000000  0  7 23 16 17 22 20 26  3                0.000024760
 -12830369.611 7 -10006181.035 7  21555574.527       -2433.823
   8526940.467 6  -6514235.702 5  24490759.199        3265.996
 -21089122.682 8 -15913084.712 9  20607970.467        -654.751
 -11960750.568 6  -9309931.029 5  23162258.519       -1047.514
   7717194.781 5   5892536.849 5  24342165.922        3445.374
  -9259981.387 6  -7218325.139 5  22626411.602       -1064.891
 -34846109.278 8 -18270868.477 8  20641020.970        -703.750
 93  5  8  4 56  0.0000000  0  7 23 16 17 22 20 26  3                0.000021960
 -12903195.005 7 -10062928.034 7  21541716.208       -2421.263
   8624945.824 6  -6437867.901 5  24509409.187        3267.636
 -21108641.340 8 -15928294.020 9  20604256.100        -646.395
 -11991923.034 6  -9334221.238 5  23156326.108       -1030.611
   7820539.136 5   5973064.901 5  24361832.173        3444.247
  -9291689.424 6  -7243032.639 5  22620378.159       -1048.863
 -34867041.493 8 -18287179.279 8  20637037.668        -691.905
 93  5  8  4 56 30.0000000  0  7 23 16 17 22 20 26  3                0.000019150
 -12975637.329 7 -10119376.557 7  21527930.963       -2408.201
   8723008.834 6  -6361455.262 5  24528069.885        3269.801
 -21127901.942 8 -15943302.255 9  20600590.818        -637.822
 -12022580.583 6  -9358110.168 5  23150492.334       -1013.163
   7923849.412 5   6053566.357 5  24381492.184        3442.980
  -9322904.101 6  -7267355.708 5  22614437.710       -1032.032
 -34887613.800 8 -18303209.643 8  20633122.877        -679.880
 93  5  8  4 57  0.0000000  0  7 23 16 17 22 20 26  3                0.000016330
 -13047685.597 7 -10175518.010 7  21514220.695       -2395.047
   8821133.993 6  -6284994.039 5  24546742.789        3271.887
 -21146907.552 8 -15958111.781 9  20596974.082        -629.131
 -12052711.001 6  -9381588.382 5  23144758.628        -995.468
   8027118.782 5   6134036.023 5  24401142.970        3441.617
  -9353607.928 6  -7291280.722 5  22608594.856       -1014.813
 -34907828.377 8 -18318961.264 8  20629276.108        -667.933
 93  5  8  4 57 30.0000000  0  7 23 16 17 22 20 26  3                0.000013510
 -13119345.548 7 -10231356.901 7  21500584.315       -2382.314
   8919335.146 5  -6208473.624 5  24565429.889        3274.810
 -21165650.123 8 -15972716.361 9  20593407.600        -620.443
 -12082300.110 6  -9404644.845 5  23139127.808        -977.038
   8130347.666 5   6214474.123 5  24420787.263        3440.335
  -9383795.939 6  -7314803.821 5  22602850.152        -997.885
 -34927680.207 8 -18334430.209 8  20625498.296        -655.702
 93  5  8  4 58  0.0000000  0  7 23 16 17 22 20 26  3                0.000010690
 -13190626.330 7 -10286900.308 7  21487019.986       -2369.838
   9017614.971 5  -6131891.908 5  24584131.884        3277.240
 -21184137.350 8 -15987121.961 9  20589889.526        -612.181
 -12111330.834 6  -9427266.137 5  23133603.600        -958.520
   8233537.118 5   6294881.433 5  24440422.216        3438.925
  -9413487.814 6  -7337940.298 5  22597199.826        -981.603
 -34947163.377 8 -18349611.888 8  20621791.082        -643.467
 93  5  8  4 58 30.0000000  0  7 23 16 17 22 20 26  3                0.000007890
 -13261544.739 7 -10342161.343 7  21473524.700       -2357.893
   9115969.181 5  -6055252.264 5  24602847.923        3279.956
 -21202388.184 8 -16001343.354 9  20586416.831        -604.542
 -12139815.896 6  -9449462.219 5  23128182.590        -940.338
   8336676.803 5   6375249.981 5  24460048.299        3437.172
  -9442693.821 6  -7360698.151 5  22591642.200        -965.441
 -34966284.142 8 -18364511.167 8  20618152.469        -631.412
 93  5  8  4 59  0.0000000  0  8 23 21 16 17 22 20 26  3             0.000005100
 -13332104.549 7 -10397142.986 7  21460097.553       -2345.937
   -242443.60015   -186744.67811  24420777.768       -3522.697
   9214404.835 5  -5978549.198 5  24621579.531        3282.507
 -21220408.933 8 -16015385.479 9  20582987.654        -596.546
 -12167752.872 6  -9471231.245 5  23122866.520        -922.023
   8439765.975 5   6455579.209 5  24479664.670        3435.594
  -9471414.909 6  -7383078.183 5  22586176.477        -949.197
 -34985038.077 8 -18379124.595 8  20614583.502        -618.945
 93  5  8  4 59 30.0000000  0  8 23 21 16 17 22 20 26  3             0.000002300
 -13402308.261 7 -10451847.123 7  21446738.121       -2334.108
   -348046.396 5   -269032.412 2  24400681.452       -3517.382
   9312910.356 5  -5901791.649 5  24640324.265        3284.478
 -21238194.861 8 -16029244.624 9  20579603.377        -589.102
 -12195143.221 6  -9492574.387 5  23117654.101        -903.973
   8542807.133 5   6535871.062 5  24499273.167        3433.950
  -9499647.388 6  -7405077.479 5  22580804.045        -932.703
 -35003418.264 8 -18393446.796 8  20611085.672        -606.510
 93  5  8  4 59 59.9990000  0  8 23 21 16 17 22 20 26  3            -0.000000490
 -13472142.802 7 -10506263.598 7  21433448.824       -2321.547
   -453483.493 5   -351191.066 4  24380617.427       -3511.946
   9411462.909 5  -5824997.411 5  24659077.982        3286.126
 -21255758.227 8 -16042930.324 9  20576260.482        -581.744
 -12221994.967 6  -9513497.826 5  23112544.688        -886.261
   8645792.782 5   6616119.581 5  24518871.378        3432.106
  -9527370.306 6  -7426679.713 5  22575528.267        -915.350
 -35021423.370 8 -18407476.719 8  20607659.982        -594.003
 93  5  8  5  0 29.9990000  0  8 23 21 16 17 22 20 26  3            -0.000003270
 -13541593.830 7 -10560381.243 7  21420232.661       -2308.479
   -558761.720 5   -433225.916 5  24360583.934       -3506.841
   9510074.363 5  -5748157.286 5  24677843.035        3288.056
 -21273101.619 8 -16056444.634 9  20572960.305        -574.472
 -12248317.464 6  -9534008.796 5  23107535.829        -868.585
   8748728.645 5   6696329.230 5  24538459.602        3430.266
  -9554566.911 6  -7447871.816 5  22570352.820        -897.833
 -35039051.316 8 -18421212.768 8  20604305.486        -581.412
 93  5  8  5  0 59.9990000  0  8 23 21 16 17 22 20 26  3            -0.000006050
 -13610649.750 7 -10614190.992 7  21407091.700       -2295.188
   -663894.169 5   -515147.181 5  24340577.324       -3502.160
   9608739.361 5  -5671275.421 5  24696618.883        3289.550
 -21290229.284 8 -16069790.847 9  20569701.424        -567.295
 -12274111.117 6  -9554107.711 5  23102626.827        -850.975
   8851605.509 5   6776493.047 5  24558036.236        3428.172
  -9581241.178 6  -7468656.902 5  22565276.637        -880.453
 -35056302.487 8 -18434655.213 8  20601022.239        -568.833
 93  5  8  5  1 29.9990000  0  8 23 21 16 17 22 20 26  3            -0.000008830
 -13679305.466 7 -10667688.910 7  21394026.934       -2281.777
   -768893.770 5   -596964.956 5  24320596.146       -3497.747
   9707459.318 5  -5594350.815 5  24715404.484        3291.951
 -21307147.226 8 -16082973.630 9  20566482.180        -560.472
 -12299379.134 6  -9573797.107 5  23097818.503        -833.456
   8954424.263 5   6856611.559 5  24577602.160        3426.441
  -9607394.844 6  -7489036.360 5  22560299.821        -863.028
 -35073171.789 8 -18447800.115 8  20597811.831        -555.908
 93  5  8  5  1 59.9990000  0  7 23 21 17 22 20 26  3               -0.000011580
 -13747556.190 7 -10720871.227 7  21381039.064       -2268.426
   -873755.904 5   -678675.579 5  24300641.201       -3493.324
 -21323850.062 8 -16095988.811 9  20563303.412        -553.058
 -12324122.478 6  -9593077.572 5  23093110.102        -816.086
   9057189.041 5   6936688.000 5  24597158.037        3424.429
  -9633029.657 6  -7509011.495 5  22555421.879        -846.187
 -35089650.293 8 -18460640.487 8  20594676.042        -542.979
 93  5  8  5  2 29.9990000  0  7 23 21 17 22 20 26  3               -0.000014330
 -13815413.839 7 -10773747.271 7  21368126.204       -2255.513
   -978497.235 5   -760292.117 5  24280709.597       -3489.395
 -21340322.992 8 -16108824.833 9  20560168.261        -545.182
 -12348343.657 6  -9611951.193 5  23088501.232        -798.716
   9159890.954 5   7016715.323 5  24616701.948        3422.287
  -9658169.427 6  -7528600.873 5  22550638.110        -829.900
 -35105742.376 8 -18473179.772 8  20591614.182        -530.097
 93  5  8  5  2 59.9990000  0  7 23 21 17 22 20 26  3               -0.000017100
 -13882891.688 7 -10826327.366 7  21355285.483       -2242.862
  -1083111.734 5   -841809.800 5  24260802.042       -3484.905
 -21356558.347 8 -16121475.744 9  20557078.799        -537.070
 -12372051.203 6  -9630424.634 5  23083989.657        -781.594
   9262522.856 5   7096688.256 5  24636233.453        3419.868
  -9682821.139 6  -7547809.941 5  22545947.374        -813.577
 -35121450.967 8 -18485420.216 8  20588625.012        -517.257
 93  5  8  5  3 29.9990000  0  7 23 21 17 22 20 26  3               -0.000019890
 -13949983.609 7 -10878606.749 7  21342518.492       -2229.623
  -1187588.756 5   -923220.361 5  24240920.936       -3480.059
 -21372546.249 8 -16133933.829 9  20554036.676        -528.494
 -12395238.939 6  -9648492.992 5  23079577.381        -763.970
   9365080.646 5   7176603.413 5  24655749.871        3417.437
  -9706981.978 6  -7566636.516 5  22541349.258        -796.898
 -35136774.977 8 -18497360.979 8  20585708.530        -504.332
 93  5  8  5  3 59.9990000  0  7 23 21 17 22 20 26  3               -0.000022680
 -14016672.220 7 -10930571.826 7  21329828.159       -2216.000
  -1291927.592 5  -1004523.262 5  24221065.932       -3475.778
 -21388259.764 8 -16146178.107 9  20551046.147        -518.864
 -12417884.951 6  -9666139.159 5  23075267.625        -745.579
   9467565.420 5   7256461.625 5  24675252.076        3414.990
  -9730637.428 6  -7585069.293 5  22536847.725        -779.952
 -35151709.572 8 -18508998.322 8  20582866.898        -491.355
 93  5  8  5  4 29.9990000  0  7 23 21 17 22 20 26  3               -0.000025480
 -14082946.647 7 -10982214.223 7  21317216.497       -2202.150
  -1396131.846 5  -1085721.308 5  24201237.390       -3471.125
 -21403691.871 8 -16158203.078 9  20548109.700        -509.984
 -12439978.319 6  -9683354.784 5  23071063.406        -727.351
   9569975.310 5   7336261.501 5  24694740.074        3412.522
  -9753782.184 6  -7603104.156 5  22532443.424        -762.857
 -35166251.752 8 -18520329.865 8  20580099.452        -478.311
 93  5  8  5  4 59.9990000  0  7 23 21 17 22 20 26  3               -0.000028290
 -14148799.580 7 -11033528.132 7  21304685.032       -2188.115
  -1500191.637 5  -1166806.737 5  24181435.078       -3466.383
 -21418865.667 8 -16170026.826 9  20545222.178        -501.646
 -12461523.271 6  -9700143.066 5  23066963.363        -708.974
   9672307.361 5   7416000.759 5  24714212.685        3409.688
  -9776404.678 6  -7620732.011 5  22528138.396        -745.325
 -35180400.129 8 -18531354.562 8  20577407.276        -465.191
 93  5  8  5  5 29.9990000  0  7 23 21 17 22 20 26  3               -0.000031100
 -14214239.445 7 -11084520.200 7  21292232.036       -2174.482
  -1604121.296 5  -1247790.829 5  24161658.685       -3462.038
 -21433800.796 8 -16181664.561 9  20542379.795        -493.830
 -12482521.126 6  -9716504.980 5  23062967.969        -690.821
   9774552.993 5   7495672.662 5  24733669.392        3406.831
  -9798499.268 6  -7637948.500 5  22523933.803        -727.500
 -35194158.520 8 -18542075.372 8  20574789.270        -452.124
 93  5  8  5  5 59.9990000  0  7 23 21 17 22 20 26  3               -0.000033900
 -14279280.712 7 -11135201.634 7  21279855.163       -2161.804
  -1707917.309 5  -1328670.784 5  24141906.725       -3457.609
 -21448502.997 8 -16193120.814 9  20539582.125        -486.553
 -12502988.122 6  -9732453.305 5  23059073.054        -673.749
   9876708.627 5   7575274.357 5  24753108.818        3403.372
  -9820064.445 6  -7654752.562 5  22519830.165        -710.256
 -35207526.381 8 -18552491.883 8  20572245.319        -439.367
 93  5  8  5  6 29.9990000  0  6 23 21 17 22 26  3                  -0.000036760
 -14343936.301 7 -11185582.565 7  21267551.830       -2148.733
  -1811561.852 5  -1409432.694 5  24122183.123       -3452.183
 -21462991.609 8 -16204410.620 9  20536824.913        -479.520
 -12522941.532 6  -9748001.412 5  23055275.952        -656.360
  -9841096.805 6  -7671141.340 5  22515828.019        -691.972
 -35220503.278 8 -18562603.730 8  20569775.931        -426.023
 93  5  8  5  6 59.9990000  0  6 23 21 17 22 26  3                  -0.000039550
 -14408208.253 7 -11235664.558 7  21255321.057       -2136.172
  -1915039.947 5  -1490064.927 5  24102491.205       -3446.460
 -21477264.714 8 -16215532.506 9  20534108.742        -472.014
 -12542367.374 6  -9763138.398 5  23051579.643        -638.637
  -9861573.893 6  -7687097.474 5  22511931.574        -673.400
 -35233078.127 8 -18572402.308 8  20567382.955        -412.657
 93  5  8  5  7 29.9990000  0  6 23 21 17 22 26  3                  -0.000042320
 -14472100.628 7 -11285450.784 7  21243162.956       -2123.212
  -2018352.802 5  -1570568.327 5  24082831.517       -3440.931
 -21491313.308 8 -16226479.448 9  20531435.542        -464.533
 -12561260.795 6  -9777860.470 5  23047984.123        -620.913
  -9881502.453 6  -7702626.171 5  22508139.168        -655.356
 -35245251.645 8 -18581888.159 8  20565066.331        -399.220
 93  5  8  5  7 59.9990000  0  6 23 21 17 22 26  3                  -0.000045060
 -14535600.352 7 -11334931.031 7  21231079.429       -2110.082
  -2121494.462 5  -1650938.386 5  24063204.957       -3435.279
 -21505132.358 8 -16237247.507 9  20528805.974        -456.884
 -12579625.239 6  -9792170.408 5  23044489.302        -603.333
  -9900897.941 6  -7717739.505 5  22504448.504        -637.690
 -35257023.762 8 -18591061.223 8  20562825.972        -385.814
 93  5  8  5  8 29.9990000  0  6 23 21 17 22 26  3                  -0.000047800
 -14598692.472 7 -11384093.683 7  21219073.090       -2096.254
  -2224465.007 5  -1731175.112 5  24043610.662       -3429.748
 -21518719.839 8 -16247835.147 9  20526220.343        -449.279
 -12597449.641 6  -9806059.568 5  23041097.960        -585.277
  -9919757.673 6  -7732435.378 5  22500859.453        -619.927
 -35268387.712 8 -18599916.232 8  20560663.566        -372.235
 93  5  8  5  8 59.9990000  0  6 23 21 17 22 26  3                  -0.000050540
 -14661372.997 7 -11432935.606 7  21207145.417       -2082.372
  -2327275.195 5  -1811286.884 5  24024046.585       -3424.081
 -21532081.177 8 -16258246.555 9  20523677.805        -441.397
 -12614740.967 6  -9819533.297 5  23037807.117        -567.488
  -9938096.197 6  -7746725.088 5  22497370.165        -602.666
 -35279347.751 8 -18608456.507 8  20558577.753        -358.669
 93  5  8  5  9 29.9990000  0  6 23 21 17 22 26  3                  -0.000053300
 -14723627.800 7 -11481445.797 7  21195298.481       -2068.022
  -2429917.703 5  -1891267.916 5  24004513.840       -3418.389
 -21545213.367 8 -16268479.423 9  20521178.783        -434.041
 -12631508.616 6  -9832598.944 5  23034616.447        -550.241
  -9955917.033 6  -7760611.397 5  22493978.991        -585.307
 -35289898.377 8 -18616677.771 8  20556570.153        -344.823
 93  5  8  5  9 59.9990000  0  6 23 21 17 22 26  3                  -0.000056080
 -14785465.204 7 -11529630.732 7  21183531.147       -2054.620
  -2532389.939 5  -1971116.392 5  23985013.280       -3412.997
 -21558127.495 8 -16278542.360 9  20518721.245        -427.004
 -12647762.666 6  -9845264.427 5  23031523.468        -533.347
  -9973219.305 6  -7774093.655 5  22490686.233        -568.076
 -35300039.284 8 -18624579.755 8  20554640.458        -331.415
 93  5  8  5 10 29.9990000  0  6 23 21 17 22 26  3                  -0.000058860
 -14846894.795 7 -11577497.896 7  21171841.470       -2040.783
  -2634688.462 5  -2050829.472 5  23965546.474       -3406.995
 -21570827.541 8 -16288438.491 9  20516304.467        -419.698
 -12663501.019 6  -9857528.098 5  23028528.221        -515.939
  -9989991.759 6  -7787163.081 5  22487494.102        -550.147
 -35309768.333 8 -18632160.820 8  20552788.962        -317.455
 93  5  8  5 10 59.9990000  0  6 23 21 17 22 26  3                  -0.000061620
 -14907923.591 7 -11625052.759 7  21160227.860       -2027.729
  -2736808.249 5  -2130403.219 5  23946114.074       -3401.035
 -21583306.055 8 -16298161.993 9  20513929.779        -412.042
 -12678718.161 6  -9869385.549 5  23025632.605        -498.506
 -10006228.061 6  -7799814.678 5  22484404.639        -532.270
 -35319079.987 8 -18639416.648 8  20551016.968        -303.544
 93  5  8  5 11 29.9990000  0  6 23 21 17 22 26  3                  -0.000064390
 -14968560.602 7 -11672302.330 7  21148688.968       -2014.394
  -2838763.526 5  -2209848.842 5  23926712.028       -3395.664
 -21595558.228 8 -16307709.124 9  20511598.436        -404.508
 -12693413.173 6  -9880836.171 5  23022836.649        -480.923
 -10021932.505 6  -7812051.863 5  22481415.613        -514.560
 -35327973.597 8 -18646346.714 8  20549324.539        -289.424
 93  5  8  5 11 59.9990000  0  6 23 21 17 22 26  3                  -0.000067170
 -15028792.911 7 -11719236.554 7  21137227.174       -2000.895
  -2940558.700 5  -2289169.657 5  23907341.243       -3390.809
 -21607576.392 8 -16317073.907 9  20509311.429        -396.526
 -12707573.393 6  -9891870.111 5  23020141.599        -462.986
 -10037112.503 6  -7823880.416 5  22478526.781        -497.444
 -35336445.543 8 -18652948.209 8  20547712.334        -275.488
 93  5  8  5 12 29.9990000  0  6 23 21 17 22 26  3                  -0.000069960
 -15088616.004 7 -11765851.904 7  21125843.203       -1987.323
  -3042208.707 5  -2368377.394 5  23887998.002       -3386.159
 -21619350.029 8 -16326248.148 9  20507070.921        -388.395
 -12721193.458 6  -9902483.155 5  23017549.432        -444.945
 -10051781.316 6  -7835310.642 5  22475735.662        -480.623
 -35344498.362 8 -18659223.113 8  20546180.055        -261.674
 93  5  8  5 12 59.9990000  0  6 23 21 17 22 26  3                  -0.000072790
 -15148032.054 7 -11812150.085 7  21114536.601       -1973.582
  -3143728.493 5  -2447483.668 5  23868679.625       -3381.757
 -21630877.067 8 -16335230.251 9  20504877.498        -380.021
 -12734267.479 6  -9912670.675 5  23015061.728        -426.547
 -10065949.950 6  -7846351.088 5  22473039.698        -463.882
 -35352136.888 8 -18665175.214 8  20544726.500        -247.724
 93  5  8  5 13 29.9990000  0  6 23 21 17 22 26  3                  -0.000075650
 -15207025.855 7 -11858119.230 8  21103310.300       -1959.448
  -3245107.777 5  -2526480.453 5  23849387.116       -3376.755
 -21642160.484 8 -16344022.509 9  20502730.386        -372.338
 -12746791.995 6  -9922430.021 5  23012678.654        -408.432
 -10079609.465 6  -7856994.828 5  22470439.977        -446.716
 -35359354.817 8 -18670799.552 8  20543353.022        -233.773
 93  5  8  5 13 59.9990000  0  6 23 21 17 22 26  3                  -0.000078520
 -15265603.257 7 -11903763.917 8  21092163.467       -1945.749
  -3346328.405 5  -2605353.604 5  23830125.790       -3371.251
 -21653208.547 8 -16352631.379 9  20500628.011        -364.132
 -12758763.140 6  -9931758.148 5  23010400.124        -389.605
 -10092748.992 6  -7867233.378 5  22467939.821        -428.974
 -35366154.936 8 -18676098.327 8  20542058.949        -219.698
 93  5  8  5 14 29.9990000  0  6 23 21 17 22 26  3                  -0.000081370
 -15323779.455 7 -11949095.975 8  21081092.935       -1932.598
  -3447384.211 5  -2684098.338 5  23810894.801       -3365.794
 -21664016.576 8 -16361053.202 9  20498571.315        -356.483
 -12770178.760 6  -9940653.433 5  23008227.924        -371.365
 -10105342.611 6  -7877046.564 5  22465543.479        -410.474
 -35372532.638 8 -18681067.949 8  20540845.247        -205.717
 93  5  8  5 14 59.9990000  0  6 23 21 17 22 26  3                  -0.000084200
 -15381564.596 7 -11994123.310 8  21070096.775       -1919.504
  -3548278.374 5  -2762717.114 5  23791694.676       -3360.433
 -21674608.397 8 -16369306.557 9  20496556.001        -349.586
 -12781056.691 6  -9949129.686 5  23006157.648        -353.752
 -10117382.990 6  -7886428.669 5  22463252.113        -392.222
 -35378494.603 8 -18685713.636 8  20539710.752        -191.865
 93  5  8  5 15 29.9990000  0  6 23 21 17 22 26  3                  -0.000087020
 -15438946.492 7 -12038836.425 8  21059177.326       -1906.028
  -3649000.132 5  -2841201.530 5  23772528.729       -3354.476
 -21684992.484 8 -16377398.032 9  20494579.907        -342.717
 -12791408.463 6  -9957195.967 5  23004187.563        -336.330
 -10128870.739 6  -7895380.102 5  22461066.168        -373.754
 -35384034.214 8 -18690030.193 8  20538656.763        -177.712
 93  5  8  5 15 59.9990000  0  6 23 21 17 22 26  3                  -0.000089840
 -15495921.674 7 -12083232.638 8  21048335.180       -1892.310
  -3749550.646 5  -2919552.562 5  23753394.069       -3349.053
 -21695161.199 8 -16385321.689 9  20492644.878        -335.230
 -12801230.341 6  -9964849.423 5  23002318.363        -318.636
 -10139815.413 6  -7903908.394 5  22458983.562        -355.834
 -35389147.892 8 -18694014.870 8  20537683.668        -163.405
 93  5  8  5 16 29.9990000  0  6 23 21 17 22 26  3                  -0.000092660
 -15552482.039 7 -12127305.599 8  21037571.983       -1878.442
  -3849935.134 5  -2997774.179 5  23734291.766       -3343.318
 -21705106.574 8 -16393071.322 9  20490752.216        -327.925
 -12810534.023 6  -9972099.005 5  23000548.348        -301.684
 -10150223.076 6  -7912018.260 5  22457002.490        -338.342
 -35393831.421 8 -18697664.362 8  20536792.345        -149.192
 93  5  8  5 16 59.9990000  0  6 23 21 17 22 26  3                  -0.000095510
 -15608618.816 7 -12171048.496 8  21026889.446       -1864.199
  -3950143.135 5  -3075858.280 5  23715223.012       -3337.109
 -21714831.324 8 -16400649.021 9  20488901.638        -320.426
 -12819327.395 6  -9978950.924 5  22998875.058        -284.569
 -10160110.843 6  -7919723.003 5  22455121.324        -321.000
 -35398088.398 8 -18700981.470 8  20535982.376        -134.889
 93  5  8  5 17 29.9990000  0  6 23 21 17 22 26  3                  -0.000098370
 -15664331.413 8 -12214460.858 8  21016287.907       -1850.111
  -4050149.350 5  -3153785.104 5  23696192.807       -3329.993
 -21724315.854 8 -16408039.547 9  20487096.648        -311.852
 -12827597.300 6  -9985395.060 5  22997301.730        -266.907
 -10169462.012 6  -7927009.556 5  22453341.975        -302.468
 -35401909.382 8 -18703958.845 8  20535255.269        -120.177
 93  5  8  5 17 59.9990000  0  6 23 21 17 22 26  3                  -0.000101220
 -15719628.630 8 -12257549.550 8  21005765.452       -1836.447
  -4149944.044 5  -3231547.184 5  23677202.652       -3322.867
 -21733538.530 8 -16415226.031 9  20485341.615        -303.004
 -12835338.386 6  -9991427.066 5  22995828.757        -249.211
 -10178259.019 6  -7933864.366 5  22451667.253        -283.868
 -35405292.463 8 -18706594.977 8  20534611.165        -105.601
 93  5  8  5 18 29.9990000  0  6 23 21 17 22 26  3                  -0.000104060
 -15774518.885 7 -12300321.129 8  20995320.122       -1822.536
  -4249524.745 5  -3309142.536 5  23658252.825       -3315.451
 -21742502.312 8 -16422210.776 9  20483635.685        -294.342
 -12842556.918 6  -9997051.857 5  22994455.122        -231.564
 -10186495.337 6  -7940282.274 5  22450100.076        -265.025
 -35408241.168 8 -18708892.681 8  20534050.043         -90.934
 93  5  8  5 18 59.9990000  0  6 23 21 17 22 26  3                  -0.000106860
 -15828989.762 7 -12342765.914 8  20984954.677       -1808.968
  -4348880.685 5  -3386562.656 5  23639345.727       -3308.467
 -21751211.352 8 -16428997.013 9  20481978.322        -286.308
 -12849238.836 6 -10002258.512 5  22993183.542        -213.994
 -10194160.579 6  -7946255.159 5  22448641.589        -246.143
 -35410745.737 8 -18710844.269 8  20533573.414         -76.283
 93  5  8  5 19 29.9990000  0  6 23 21 17 22 26  3                  -0.000109650
 -15883050.738 7 -12384891.293 8  20974667.081       -1794.956
  -4448033.565 5  -3463824.585 5  23620478.297       -3301.773
 -21759682.302 8 -16435597.736 9  20480366.368        -278.533
 -12855397.434 6 -10007057.443 5  22992011.849        -196.664
 -10201270.913 6  -7951795.637 5  22447288.457        -228.001
 -35412808.621 8 -18712451.699 8  20533180.975         -61.473
 93  5  8  5 19 59.9990000  0  6 23 21 17 22 26  3                  -0.000112470
 -15936678.909 7 -12426679.433 8  20964461.886       -1780.406
  -4546995.094 5  -3540937.477 5  23601646.454       -3295.828
 -21767933.444 8 -16442027.167 9  20478796.376        -271.836
 -12861042.919 6 -10011456.511 5  22990937.316        -179.818
 -10207845.955 6  -7956919.046 5  22446037.362        -210.520
 -35414427.730 8 -18713713.325 8  20532872.847         -46.791
 93  5  8  5 20 29.9990000  0  6 23 21 17 22 26  3                  -0.000115310
 -15989874.812 7 -12468130.745 8  20954338.953       -1766.065
  -4645772.704 5  -3617907.012 5  23582849.254       -3289.581
 -21775992.212 8 -16448306.689 9  20477262.915        -265.736
 -12866182.947 6 -10015461.665 5  22989958.970        -163.001
 -10213899.045 6  -7961635.724 5  22444885.847        -193.235
 -35415601.223 8 -18714627.731 8  20532649.533         -31.831
 93  5  8  5 20 59.9990000  0  6 23 21 17 22 26  3                  -0.000118170
 -16042645.031 7 -12509250.338 8  20944297.035       -1751.938
  -4744371.189 5  -3694736.964 5  23564086.432       -3283.799
 -21783871.091 8 -16454446.051 9  20475763.744        -259.490
 -12870820.166 6 -10019075.087 5  22989077.211        -146.239
 -10219436.213 6  -7965950.374 5  22443832.290        -175.978
 -35416327.331 8 -18715193.508 8  20532511.380         -16.872
 93  5  8  5 21 29.9990000  0  6 23 21 17 22 26  3                  -0.000121080
 -16094989.807 7 -12550038.427 8  20934336.212       -1737.797
  -4842792.185 5  -3771428.604 5  23545357.747       -3277.639
 -21791553.313 8 -16460432.198 9  20474301.666        -252.816
 -12874954.841 6 -10022296.943 5  22988290.450        -129.373
 -10224456.887 6  -7969862.577 5  22442876.688        -158.663
 -35416602.250 8 -18715407.711 8  20532459.282          -1.835
 93  5  8  5 21 59.9990000  0  6 23 21 17 22 26  3                  -0.000124010
 -16146953.216 7 -12590529.349 8  20924447.726       -1725.918
  -4941055.474 5  -3847997.381 5  23526658.661       -3272.602
 -21799062.968 8 -16466283.859 9  20472872.606        -247.120
 -12878604.058 6 -10025140.448 5  22987595.966        -113.152
 -10228971.514 6  -7973380.461 5  22442017.554        -141.702
 -35416457.151 8 -18715294.648 8  20532486.833          11.871
 93  5  8  5 22 29.9990000  0  6 23 21 17 22 26  3                  -0.000126920
 -16198541.058 7 -12630727.609 8  20914630.982       -1713.131
  -5039135.817 5  -3924423.578 5  23507994.358       -3266.054
 -21806364.515 8 -16471973.359 9  20471483.278        -239.468
 -12881728.502 6 -10027575.046 5  22987001.199         -95.001
 -10232948.155 6  -7976479.140 5  22441260.679        -123.205
 -35415871.590 8 -18714838.348 8  20532598.269          26.980
 93  5  8  5 22 59.9990000  0  6 23 21 17 22 26  3                  -0.000129810
 -16249735.289 7 -12670619.193 8  20904888.967       -1699.878
  -5137023.234 5  -4000699.455 5  23489367.168       -3259.642
 -21813423.747 8 -16477474.037 9  20470139.977        -231.071
 -12884303.622 6 -10029581.659 5  22986511.083         -76.673
 -10236357.128 6  -7979135.446 5  22440611.776        -104.106
 -35414832.737 8 -18714028.841 8  20532795.931          42.031
 93  5  8  5 23 29.9990000  0  6 23 21 17 22 26  3                  -0.000132650
 -16300534.230 7 -12710202.727 8  20895222.209       -1686.831
  -5234711.841 5  -4076820.450 5  23470777.686       -3253.033
 -21820231.133 8 -16482778.482 9  20468844.565        -222.945
 -12886326.721 6 -10031158.098 5  22986126.167         -58.323
 -10239187.440 6  -7981340.866 5  22440073.471         -84.860
 -35413339.759 8 -18712865.457 8  20533079.883          57.049
 93  5  8  5 23 59.9990000  0  6 23 21 17 22 26  3                  -0.000135460
 -16350935.942 7 -12749476.744 8  20885631.038       -1673.304
  -5332211.948 5  -4152794.473 5  23452223.801       -3246.929
 -21826792.780 8 -16487891.442 9  20467595.817        -214.566
 -12887804.191 6 -10032309.331 5  22985844.910         -40.430
 -10241442.020 6  -7983097.694 5  22439644.358         -65.730
 -35411399.031 8 -18711353.193 8  20533449.230          72.038
 93  5  8  5 24 29.9990000  0  6 23 21 17 22 26  3                  -0.000138270
 -16400925.489 7 -12788429.600 8  20876118.314       -1659.194
  -5429531.124 5  -4228627.570 5  23433704.258       -3240.987
 -21833106.645 8 -16492811.308 9  20466394.220        -206.430
 -12888755.052 6 -10033050.259 5  22985663.934         -23.092
 -10243136.016 6  -7984417.662 5  22439322.110         -47.200
 -35409008.881 8 -18709490.730 8  20533903.993          87.054
 93  5  8  5 24 59.9990000  0  6 23 21 17 22 26  3                  -0.000141100
 -16450483.226 7 -12827045.976 8  20866687.743       -1644.649
  -5526669.418 5  -4304319.707 5  23415219.132       -3234.794
 -21839176.252 8 -16497540.860 9  20465239.051        -198.324
 -12889189.001 6 -10033388.423 5  22985581.193          -5.963
 -10244274.111 6  -7985304.447 5  22439105.331         -28.754
 -35406166.603 8 -18707275.945 8  20534444.778         102.219
 93  5  8  5 25 29.9990000  0  6 23 21 17 22 26  3                  -0.000143950
 -16499604.149 8 -12865321.973 8  20857340.346       -1630.014
  -5623622.522 5  -4379867.546 5  23396769.874       -3228.684
 -21845009.593 8 -16502086.307 9  20464129.048        -190.603
 -12889111.186 6 -10033327.758 5  22985596.339          11.168
 -10244871.355 6  -7985769.821 5  22438991.919         -11.120
 -35402870.449 8 -18704707.497 8  20535071.926         117.288
 93  5  8  5 25 59.9990000  0  6 23 21 17 22 26  3                  -0.000146830
 -16548269.638 8 -12903243.096 8  20848079.526       -1614.802
  -5720378.984 5  -4455262.154 5  23378357.477       -3221.900
 -21850609.350 8 -16506449.734 9  20463063.467        -182.978
 -12888508.347 6 -10032857.967 5  22985710.802          28.797
 -10244937.495 6  -7985821.366 5  22438979.457           6.546
 -35399113.017 8 -18701779.630 8  20535786.979         132.727
 93  5  8  5 26 29.9990000  0  6 23 21 17 22 26  3                  -0.000149730
 -16596489.897 8 -12940817.277 8  20838903.516       -1599.946
  -5816934.781 5  -4530500.422 5  23359982.778       -3215.277
 -21855993.084 8 -16510644.835 9  20462038.785        -175.886
 -12887370.282 6 -10031971.149 5  22985927.212          47.168
 -10244474.692 6  -7985460.703 5  22439067.337          24.362
 -35394893.642 8 -18698491.791 8  20536589.813         148.323
 93  5  8  5 26 59.9990000  0  6 23 21 17 22 26  3                  -0.000152630
 -16644272.727 8 -12978050.615 8  20829810.602       -1585.718
  -5913287.368 5  -4605580.304 5  23341648.243       -3208.399
 -21861161.052 8 -16514671.807 9  20461055.426        -168.675
 -12885681.865 6 -10030655.546 5  22986248.958          65.300
 -10243474.626 6  -7984681.398 5  22439257.495          42.295
 -35390208.395 8 -18694840.936 8  20537481.337         163.831
 93  5  8  5 27 29.9990000  0  6 23 21 17 22 26  3                  -0.000155530
 -16691640.254 8 -13014960.321 8  20820796.813       -1572.202
  -6009436.003 6  -4680501.251 5  23323352.111       -3201.386
 -21866120.558 8 -16518536.343 9  20460111.679        -161.863
 -12883452.121 6 -10028918.011 5  22986673.155          83.359
 -10241943.701 6  -7983488.468 5  22439548.993          59.790
 -35385059.210 8 -18690828.573 8  20538461.199         179.278
 93  5  8  5 27 59.9990000  0  6 23 21 17 22 26  3                  -0.000158430
 -16738610.805 8 -13051560.722 8  20811858.580       -1559.148
  -6105377.649 6  -4755260.939 5  23305095.238       -3194.718
 -21870877.003 8 -16522242.654 9  20459206.546        -155.083
 -12880695.257 6 -10026769.805 5  22987197.725         100.451
 -10239886.161 6  -7981885.199 5  22439940.304          77.633
 -35379445.846 8 -18686454.527 8  20539529.440         194.777
 93  5  8  5 28 29.9990000  0  6 23 21 17 22 26  3                  -0.000161320
 -16785186.899 8 -13087853.740 9  20802995.424       -1545.838
  -6201121.535 6  -4829866.534 5  23286875.913       -3188.182
 -21875415.361 8 -16525779.008 9  20458342.794        -147.510
 -12877429.965 6 -10024225.477 5  22987819.044         117.101
 -10237280.130 6  -7979854.487 5  22440436.329          96.079
 -35373365.186 8 -18681716.330 8  20540686.739         210.342
 93  5  8  5 28 59.9990000  0  6 23 21 17 22 26  3                  -0.000164220
 -16831358.146 8 -13123831.305 9  20794209.320       -1531.985
  -6296658.228 6  -4904310.657 5  23268696.090       -3180.726
 -21879721.521 8 -16529134.451 9  20457523.441        -139.502
 -12873680.239 6 -10021303.601 5  22988532.612         133.083
 -10234116.340 6  -7977389.137 6  22441038.441         114.926
 -35366816.699 8 -18676613.607 8  20541932.855         226.165
 93  5  8  5 29 29.9990000  0  6 23 21 17 22 26  3                  -0.000167130
 -16877106.380 8 -13159479.237 9  20785503.516       -1517.605
  -6391970.047 6  -4978579.580 5  23250558.844       -3173.316
 -21883793.188 8 -16532307.159 9  20456748.627        -131.663
 -12869453.157 6 -10018009.716 5  22989337.023         148.959
 -10230392.943 6  -7974487.812 5  22441747.032         133.398
 -35359795.604 8 -18671142.612 8  20543268.911         241.778
 93  5  8  5 29 59.9990000  0  6 23 21 17 22 26  3                  -0.000170050
 -16922404.402 8 -13194776.371 9  20776883.792       -1502.089
  -6487053.189 6  -5052670.289 5  23232464.996       -3165.680
 -21887614.579 8 -16535284.853 9  20456021.429        -123.119
 -12864746.650 6 -10014342.346 5  22990232.442         164.985
 -10226096.393 6  -7971139.819 5  22442564.606         153.033
 -35352298.367 8 -18665300.595 8  20544695.454         257.763
 93  5  8  5 30 29.9990000  0  6 23 21 17 22 26  3                  -0.000172970
 -16967241.179 8 -13229714.089 9  20768351.471       -1486.864
  -6581906.788 6  -5126582.140 5  23214414.890       -3157.655
 -21891182.358 8 -16538064.925 9  20455342.332        -114.697
 -12859554.332 6 -10010296.394 5  22991220.299         181.398
 -10221219.067 6  -7967339.285 5  22443492.822         172.120
 -35344326.556 8 -18659088.806 8  20546212.395         273.627
 93  5  8  5 30 59.9990000  0  6 23 21 17 22 26  3                  -0.000175910
 -17011633.453 8 -13264305.434 9  20759903.858       -1472.532
  -6676513.202 6  -5200301.345 5  23196411.931       -3149.419
 -21894512.262 8 -16540659.632 9  20454708.699        -107.151
 -12853865.490 6 -10005863.503 5  22992303.019         198.116
 -10215791.869 6  -7963110.269 6  22444525.287         189.759
 -35335880.852 8 -18652507.712 8  20547819.613         289.322
 93  5  8  5 31 29.9990000  0  6 23 21 17 22 26  3                  -0.000178860
 -17055598.052 8 -13298563.527 9  20751537.690       -1458.458
  -6770874.075 6  -5273829.279 5  23178455.786       -3141.331
 -21897610.779 8 -16543074.053 9  20454119.087         -99.394
 -12847667.598 6 -10001033.971 5  22993482.512         215.140
 -10209837.718 6  -7958470.663 5  22445658.273         207.286
 -35326958.175 8 -18645554.971 7  20549517.296         305.292
 93  5  8  5 31 59.9990000  0  6 23 21 17 22 26  3                  -0.000181810
 -17099147.392 7 -13332498.055 9  20743250.456       -1445.002
  -6864996.995 6  -5347171.746 5  23160544.419       -3133.550
 -21900476.580 8 -16545307.126 9  20453573.575         -91.878
 -12840959.519 6  -9995806.935 5  22994758.988         232.141
 -10203352.110 6  -7953416.928 5  22446892.669         224.946
 -35317553.844 8 -18638226.925 7  20551306.887         321.352
 93  5  8  5 32 29.9990000  0  6 23 21 17 22 26  3                  -0.000184770
 -17142305.223 8 -13366127.505 9  20735037.622       -1432.110
  -6958887.498 6  -5420333.112 5  23142677.558       -3125.729
 -21903126.668 8 -16547372.124 9  20453069.484         -84.647
 -12833737.445 6  -9990179.325 5  22996132.917         249.397
 -10196347.453 7  -7947958.736 6  22448225.344         242.143
 -35307670.602 8 -18630525.674 7  20553187.695         337.434
 93  5  8  5 32 59.9990000  0  7 23 21 17 22 26 28  3               -0.000187670
 -17185072.906 7 -13399452.943 9  20726899.195       -1418.943
  -7052552.862 6  -5493319.050 5  23124853.428       -3118.762
 -21905564.425 8 -16549271.653 9  20452605.596         -77.713
 -12826002.584 6  -9984152.157 5  22997604.649         266.239
 -10188818.790 6  -7942092.206 6  22449658.265         259.976
   -374247.51915   -307133.25011  24632930.586       -3751.714
 -35297304.357 8 -18622448.079 7  20555160.130         353.454
 93  5  8  5 33 29.9990000  0  7 23 21 17 22 26 28  3               -0.000190580
 -17227431.313 8 -13432459.473 9  20718838.807       -1405.044
  -7146014.300 6  -5566146.100 5  23107067.847       -3112.127
 -21907780.339 8 -16550998.322 9  20452183.869         -70.168
 -12817767.338 6  -9977735.125 5  22999171.623         282.650
 -10180730.535 6  -7935789.685 5  22451197.360         279.185
   -486779.854 5   -394820.777 2  24611515.905       -3750.641
 -35286455.641 8 -18613994.530 7  20557224.679         369.404
 93  5  8  5 33 59.9990000  0  7 23 21 17 22 26 28  3               -0.000193480
 -17269366.034 8 -13465135.859 9  20710858.951       -1390.581
  -7239275.482 6  -5638817.151 5  23089321.145       -3105.385
 -21909766.060 8 -16552545.627 9  20451805.911         -62.230
 -12809029.045 6  -9970926.084 5  23000834.724         299.984
 -10172052.806 6  -7929027.798 5  22452848.746         299.323
   -599278.848 5   -482482.220 3  24590107.883       -3749.290
 -35275126.811 8 -18605166.866 7  20559380.557         385.695
 93  5  8  5 34 29.9990000  0  7 23 21 17 22 26 28  3               -0.000196380
 -17310862.597 8 -13497470.821 9  20702962.467       -1375.709
  -7332340.337 6  -5711335.113 5  23071611.446       -3098.845
 -21911520.464 8 -16553912.693 9  20451472.021         -54.553
 -12799771.602 6  -9963712.446 5  23002596.285         317.180
 -10162773.663 6  -7921797.261 5  22454614.233         319.503
   -711738.081 5   -570112.681 3  24568707.208       -3747.950
 -35263314.924 8 -18595962.776 7  20561628.312         401.723
 93  5  8  5 34 59.9990000  0  7 23 21 17 22 26 28  3               -0.000199270
 -17351917.631 8 -13529461.727 9  20695149.836       -1361.142
  -7425214.191 6  -5783704.263 5  23053938.407       -3092.555
 -21913042.516 8 -16555098.689 9  20451182.441         -46.780
 -12790006.077 6  -9956102.981 5  23004454.548         334.059
 -10152889.610 6  -7914095.368 5  22456495.073         339.465
   -824160.116 5   -657714.108 4  24547314.166       -3746.794
 -35251022.815 8 -18586384.524 7  20563967.442         417.759
 93  5  8  5 35 29.9990000  0  7 23 21 17 22 26 28  3               -0.000202160
 -17392533.295 8 -13561110.268 9  20687420.957       -1346.529
  -7517887.279 6  -5855917.051 5  23036303.198       -3085.439
 -21914326.620 8 -16556099.275 9  20450938.130         -38.743
 -12779726.169 6  -9948092.690 5  23006410.680         351.455
 -10142409.881 6  -7905929.355 5  22458489.461         359.154
   -936539.107 5   -745282.027 4  24525929.012       -3744.695
 -35238246.816 8 -18576429.194 7  20566398.659         433.959
 93  5  8  5 35 59.9990000  0  7 23 21 17 22 26 28  3               -0.000205040
 -17432717.940 8 -13592422.954 9  20679774.180       -1332.572
  -7610345.331 6  -5927962.196 5  23018709.120       -3078.395
 -21915375.418 8 -16556916.504 9  20450738.418         -31.290
 -12768921.724 6  -9939673.620 5  23008466.720         368.679
 -10131356.661 6  -7897316.456 5  22460592.926         377.542
  -1048835.951 5   -832785.986 4  24504559.516       -3741.748
 -35224982.404 8 -18566093.281 7  20568922.840         450.162
 93  5  8  5 36 29.9990000  0  7 23 21 17 22 26 28  3               -0.000207910
 -17472487.629 8 -13623412.287 9  20672206.170       -1318.878
  -7702580.242 6  -5999833.497 5  23001157.281       -3070.558
 -21916203.570 8 -16557561.794 9  20450580.807         -23.998
 -12757609.533 6  -9930858.914 5  23010620.069         385.364
 -10119766.819 6  -7888285.364 6  22462798.389         395.001
  -1161047.615 5   -920223.569 4  24483206.388       -3739.185
 -35211230.265 8 -18555377.314 7  20571539.790         466.372
 93  5  8  5 36 59.9990000  0  7 23 21 17 22 26 28  3               -0.000210800
 -17511857.782 8 -13654090.300 9  20664714.116       -1305.640
  -7794574.491 6  -6071517.285 5  22983650.704       -3062.319
 -21916815.163 8 -16558038.357 9  20450464.468         -16.670
 -12745808.092 6  -9921663.075 5  23012865.945         401.617
 -10107663.454 6  -7878854.147 6  22465101.277         411.930
  -1273193.532 5  -1007609.920 4  24461865.683       -3737.008
 -35196993.240 8 -18544283.519 7  20574249.041         482.608
 93  5  8  5 37 29.9990000  0  7 23 21 17 22 26 28  3               -0.000213680
 -17550827.874 8 -13684456.599 9  20657298.280       -1292.421
  -7886316.743 6  -6143004.720 5  22966192.695       -3054.048
 -21917207.881 8 -16558344.360 9  20450389.842          -9.573
 -12733517.044 6  -9912085.592 5  23015204.595         417.679
 -10095050.126 6  -7869025.580 6  22467501.623         428.868
  -1385273.092 5  -1094944.504 4  24440537.499       -3734.965
 -35182270.977 8 -18532811.622 7  20577050.593         498.587
 93  5  8  5 37 59.9990000  0  7 23 21 17 22 26 28  3               -0.000216570
 -17589400.118 8 -13714512.878 9  20649958.311       -1278.966
  -7977813.699 6  -6214300.964 5  22948781.178       -3045.846
 -21917388.854 8 -16558485.364 9  20450355.374          -2.472
 -12720741.081 6  -9902130.321 5  23017635.853         434.060
 -10081928.152 6  -7858800.647 5  22469998.594         446.076
  -1497294.247 5  -1182233.597 4  24419220.770       -3733.270
 -35167067.857 8 -18520965.042 7  20579943.920         514.801
 93  5  8  5 38 29.9990000  0  7 23 21 17 22 26 28  3               -0.000219460
 -17627565.135 8 -13744251.832 9  20642695.759       -1265.133
  -8069065.229 6  -6285405.993 5  22931416.652       -3037.643
 -21917353.076 8 -16558457.463 9  20450362.059           5.042
 -12707469.564 6  -9891788.918 5  23020161.174         450.863
 -10068284.122 6  -7848168.902 6  22472594.996         463.758
  -1609278.226 5  -1269493.755 4  24397910.722       -3732.231
 -35151379.308 8 -18508740.184 7  20582929.282         530.986
 93  5  8  5 38 59.9990000  0  7 23 21 17 22 26 28  3               -0.000222370
 -17665309.381 8 -13773662.920 9  20635513.112       -1251.040
  -8160081.503 6  -6356327.747 5  22914097.227       -3030.031
 -21917086.951 8 -16558250.084 9  20450412.622          12.816
 -12693690.323 6  -9881051.864 5  23022783.417         467.847
 -10054097.124 6  -7837114.064 6  22475294.519         482.085
  -1721226.925 5  -1356726.469 4  24376607.828       -3730.791
 -35135202.875 8 -18496135.156 7  20586007.454         547.323
 93  5  8  5 39 29.9990000  0  7 23 21 17 22 26 28  3               -0.000225280
 -17702623.905 8 -13802739.151 9  20628412.387       -1236.539
  -8250866.307 6  -6427069.079 5  22896821.533       -3022.327
 -21916585.729 8 -16557859.503 9  20450508.218          20.703
 -12679395.350 6  -9869912.917 5  23025503.584         485.201
 -10039352.549 6  -7825624.817 5  22478100.176         500.967
  -1833122.711 5  -1443917.819 4  24355314.808       -3728.860
 -35118531.704 8 -18483144.623 7  20589179.847         563.919
 93  5  8  5 39 59.9990000  0  7 23 21 17 22 26 28  3               -0.000228200
 -17739499.800 8 -13831473.574 9  20621395.116       -1221.713
  -8341427.845 6  -6497636.450 5  22879588.382       -3014.994
 -21915848.472 8 -16557285.011 9  20450648.580          28.542
 -12664585.587 6  -9858372.885 5  23028322.104         502.007
 -10024045.815 6  -7813697.438 6  22481012.737         519.533
  -1944957.192 5  -1531061.445 4  24334033.250       -3726.751
 -35101363.339 8 -18469766.657 7  20592446.585         580.506
 93  5  8  5 40 29.9990000  0  7 23 21 17 22 26 28  3               -0.000231130
 -17775926.166 8 -13859857.754 9  20614463.544       -1206.657
  -8431760.683 6  -6568025.626 5  22862398.573       -3007.219
 -21914870.980 8 -16556523.305 9  20450834.592          36.611
 -12649283.910 6  -9846449.489 5  23031233.680         518.092
 -10008183.590 6  -7801337.227 6  22484031.377         537.985
  -2056728.407 5  -1618155.771 5  24312764.091       -3724.477
 -35083695.740 7 -18455999.709 7  20595808.711         597.149
 93  5  8  5 40 59.9990000  0  7 23 21 17 22 26 28  3               -0.000234080
 -17811897.517 8 -13887887.346 9  20607618.382       -1191.590
  -8521858.868 6  -6638231.979 5  22845253.882       -2999.378
 -21913660.455 8 -16555580.030 9  20451064.770          43.962
 -12633513.454 6  -9834160.791 5  23034234.336         533.386
  -9991770.522 6  -7788547.804 6  22487154.664         556.205
  -2168423.419 5  -1705190.749 5  24291508.840       -3721.861
 -35065527.500 7 -18441842.625 7  20599265.757         613.776
 93  5  8  5 41 29.9990000  0  7 23 21 17 22 26 28  3               -0.000237030
 -17847411.988 8 -13915560.934 9  20600860.130       -1176.105
  -8611717.759 6  -6708251.827 5  22828154.317       -2991.355
 -21912223.332 8 -16554460.173 9  20451338.293          51.765
 -12617280.175 6  -9821511.486 5  23037323.611         548.744
  -9974806.499 6  -7775329.083 5  22490383.052         574.696
  -2280034.948 5  -1792160.619 5  24270269.260       -3719.016
 -35046857.968 7 -18427294.935 7  20602818.606         630.532
 93  5  8  5 41 59.9990000  0  7 23 21 17 22 26 28  3               -0.000240010
 -17882471.648 8 -13942880.125 9  20594188.540       -1161.388
  -8701348.317 6  -6778093.764 5  22811098.040       -2983.964
 -21910558.819 8 -16553163.140 9  20451654.917          58.943
 -12600598.242 6  -9808512.606 5  23040497.887         563.101
  -9957304.635 6  -7761691.258 5  22493713.448         592.017
  -2391570.811 6  -1879071.604 5  24249044.774       -3716.868
 -35027694.086 8 -18412362.019 7  20606465.189         646.700
 93  5  8  5 42 29.9990000  0  7 23 21 17 22 26 28  3               -0.000243020
 -17917096.844 8 -13969860.771 9  20587599.583       -1146.908
  -8790740.741 6  -6847750.167 5  22794086.694       -2975.488
 -21908678.054 8 -16551697.594 9  20452012.734          66.475
 -12583476.838 6  -9795171.227 5  23043756.078         578.584
  -9939279.504 6  -7747645.679 5  22497143.602         609.757
  -2503036.652 5  -1965928.028 5  24227833.651       -3713.901
 -35008040.117 8 -18397047.247 7  20610205.462         663.374
 93  5  8  5 42 59.9990000  0  7 23 21 17 22 26 28  3               -0.000246020
 -17951293.527 8 -13996507.516 9  20581092.066       -1132.996
  -8879880.531 6  -6917209.668 5  22777124.204       -2967.009
 -21906572.571 8 -16550056.943 9  20452413.328          74.184
 -12565878.720 6  -9781458.392 5  23047104.822         594.862
  -9920715.521 6  -7733180.192 5  22500676.265         627.816
  -2614406.421 6  -2052709.553 5  24206641.232       -3710.667
 -34987887.762 8 -18381344.097 7  20614040.438         679.984
 93  5  8  5 43 29.9990000  0  7 23 21 17 22 26 28  3               -0.000249020
 -17985083.363 8 -14022837.225 9  20574662.227       -1119.807
  -8968759.130 6  -6986465.687 5  22760211.326       -2958.310
 -21904222.269 8 -16548225.527 9  20452860.640          82.318
 -12547787.123 6  -9767361.034 5  23050547.626         611.002
  -9901609.174 6  -7718292.132 5  22504312.278         645.638
  -2725676.629 6  -2139413.467 5  24185467.018       -3707.445
 -34967235.044 8 -18365251.055 7  20617970.464         696.501
 93  5  8  5 43 59.9990000  0  7 23 21 17 22 26 28  3               -0.000252010
 -18018481.071 8 -14048861.393 9  20568306.666       -1106.629
  -9057372.254 6  -7055514.813 5  22743348.509       -2949.060
 -21901636.470 8 -16546210.594 9  20453352.649          90.104
 -12529213.309 6  -9752887.968 5  23054082.163         627.296
  -9881975.301 6  -7702993.019 5  22508048.520         663.362
  -2836840.289 6  -2226034.366 5  24164313.432       -3703.518
 -34946086.966 7 -18348772.034 7  20621994.821         713.261
 93  5  8  5 44 29.9990000  0  7 23 21 17 22 26 28  3               -0.000254970
 -18051483.619 8 -14074577.654 9  20562026.405       -1093.316
  -9145708.852 6  -7124348.487 5  22726538.294       -2940.010
 -21898822.922 8 -16544018.229 9  20453888.137          97.645
 -12510143.129 6  -9738028.057 5  23057711.025         644.201
  -9861805.865 6  -7687276.541 5  22511886.565         681.331
  -2947885.633 6  -2312563.112 5  24143181.944       -3699.463
 -34924436.270 7 -18331901.371 7  20626114.767         730.039
 93  5  8  5 44 59.9990000  0  7 23 21 17 22 26 28  3               -0.000257920
 -18084082.617 8 -14099979.438 9  20555823.111       -1080.033
  -9233781.878 6  -7192976.769 5  22709778.525       -2931.663
 -21895783.161 8 -16541649.558 9  20454466.716         104.969
 -12490574.160 6  -9722779.550 5  23061435.027         660.112
  -9841098.541 6  -7671140.928 6  22515826.727         699.115
  -3058819.661 6  -2399005.143 5  24122071.748       -3696.322
 -34902281.440 7 -18314637.855 7  20630330.559         746.640
 93  5  8  5 45 29.9990000  0  7 23 21 17 22 26 28  3               -0.000260870
 -18116279.887 8 -14125068.186 9  20549696.161       -1066.351
  -9321611.248 6  -7261415.204 5  22693065.278       -2923.696
 -21892530.038 8 -16539114.654 9  20455085.607         111.612
 -12470543.398 6  -9707171.209 5  23065246.743         675.116
  -9819858.409 6  -7654590.158 5  22519868.870         716.839
  -3169667.693 5  -2485380.103 5  24100977.734       -3693.553
 -34879627.524 7 -18296985.434 7  20634641.396         763.297
 93  5  8  5 45 59.9990000  0  7 23 21 17 22 26 28  3               -0.000263820
 -18148058.441 8 -14149830.676 9  20543648.966       -1052.353
  -9409201.400 6  -7329667.225 5  22676397.299       -2915.803
 -21889079.184 8 -16536425.664 9  20455742.393         118.473
 -12450059.660 6  -9691209.814 5  23069144.451         690.358
  -9798081.789 6  -7637621.361 5  22524012.873         734.810
  -3280430.802 5  -2571688.931 5  24079900.233       -3690.874
 -34856469.146 7 -18278939.958 7  20639048.296         780.218
 93  5  8  5 46 29.9990000  0  7 23 21 17 22 26 28  3               -0.000266770
 -18179418.955 8 -14174267.436 9  20537681.190       -1038.444
  -9496558.269 6  -7397737.483 5  22659773.753       -2908.080
 -21885410.808 8 -16533567.183 9  20456440.439         126.050
 -12429118.744 6  -9674892.227 5  23073129.513         705.525
  -9775760.998 6  -7620228.525 5  22528260.122         753.200
  -3391113.877 6  -2657935.374 5  24058837.265       -3688.052
 -34832803.462 7 -18260499.165 7  20643551.766         797.247
 93  5  8  5 46 59.9990000  0  7 23 21 17 22 26 28  3               -0.000269730
 -18210373.347 8 -14198387.697 9  20531790.677       -1025.059
  -9583683.744 6  -7465627.403 5  22643194.343       -2900.068
 -21881511.405 8 -16530528.665 9  20457182.577         134.127
 -12407737.407 6  -9658231.466 5  23077198.200         720.157
  -9752888.921 6  -7602406.090 6  22532612.546         771.931
  -3501720.521 5  -2744122.266 5  24037789.595       -3685.319
 -34808632.141 7 -18241664.362 7  20648151.453         814.127
 93  5  8  5 47 29.9990000  0  7 23 21 17 22 26 28  3               -0.000272690
 -18240928.361 8 -14222196.793 9  20525976.251       -1011.771
  -9670567.005 6  -7533328.614 5  22626660.682       -2892.062
 -21877370.883 8 -16527302.277 9  20457970.421         142.047
 -12385911.180 6  -9641224.035 5  23081351.547         735.259
  -9729452.038 6  -7584143.605 5  22537072.329         790.574
  -3612235.741 6  -2830237.943 5  24016759.001       -3682.071
 -34783956.632 7 -18222436.693 7  20652846.991         830.792
 93  5  8  5 47 59.9990000  0  7 23 21 17 22 26 28  3               -0.000275630
 -18271074.900 8 -14245687.570 9  20520239.595        -998.014
  -9757197.651 6  -7600832.969 5  22610175.501       -2883.417
 -21872980.438 8 -16523881.135 9  20458805.853         150.530
 -12363614.400 6  -9623849.897 5  23085594.653         751.217
  -9705456.540 6  -7565445.793 5  22541638.469         808.972
  -3722629.547 5  -2916258.946 5  23995751.688       -3677.560
 -34758775.586 7 -18202815.090 7  20657638.893         847.620
 93  5  8  5 48 29.9990000  0  7 23 21 17 22 26 28  3               -0.000278570
 -18300807.314 8 -14268855.667 9  20514581.689        -983.983
  -9843571.495 6  -7668137.177 5  22593739.518       -2874.741
 -21868341.898 8 -16520266.669 9  20459688.473         158.624
 -12340836.463 6  -9606100.830 5  23089929.255         767.426
  -9680910.351 6  -7546318.883 5  22546309.561         827.509
  -3832882.633 6  -3002170.329 5  23974771.138       -3672.641
 -34733089.851 7 -18182800.229 7  20662526.629         864.669
 93  5  8  5 48 59.9990000  0  7 23 21 17 22 26 28  3               -0.000281490
 -18330118.769 8 -14291695.726 9  20509003.842        -969.902
  -9929686.212 6  -7735239.488 5  22577352.174       -2866.063
 -21863468.742 8 -16516469.387 9  20460615.812         166.385
 -12317576.105 6  -9587975.956 5  23094355.151         783.515
  -9655816.054 6  -7526764.858 6  22551084.729         845.465
  -3942989.823 6  -3087967.999 5  23953818.386       -3667.690
 -34706896.014 7 -18162389.442 7  20667511.163         881.539
 93  5  8  5 49 29.9990000  0  7 23 21 17 22 26 28  3               -0.000284420
 -18358996.071 7 -14314197.523 9  20503508.536        -955.085
 -10015545.421 6  -7802142.719 5  22561013.756       -2857.908
 -21858365.059 8 -16512492.484 9  20461586.937         173.883
 -12293829.943 6  -9569472.439 5  23098873.801         799.499
  -9630192.902 6  -7506798.748 5  22555960.733         862.651
  -4052945.633 6  -3173647.734 5  23932894.751       -3662.629
 -34680192.386 7 -18141581.408 7  20672592.881         898.526
 93  5  8  5 49 59.9990000  0  7 23 21 17 22 26 28  3               -0.000287370
 -18387435.403 8 -14336358.018 9  20498096.652        -940.978
 -10101167.173 6  -7868860.912 5  22544720.506       -2850.288
 -21853043.378 8 -16508345.705 9  20462599.768         180.892
 -12269615.484 6  -9550604.027 5  23103481.814         814.580
  -9604066.312 6  -7486440.371 5  22560932.531         879.209
  -4162763.089 6  -3259219.677 5  23911996.897       -3658.758
 -34652982.858 7 -18120379.187 7  20677770.528         915.187
 93  5  8  5 50 29.9990000  0  7 23 21 17 22 26 28  3               -0.000290350
 -18415455.745 8 -14358192.015 9  20492764.545        -926.993
 -10186559.854 6  -7935400.588 5  22528470.572       -2842.667
 -21847499.380 8 -16504025.693 9  20463654.775         188.864
 -12244950.005 6  -9531384.223 5  23108175.194         829.674
  -9577427.362 6  -7465682.747 5  22566001.522         896.769
  -4272477.219 6  -3344711.133 5  23891118.837       -3655.590
 -34625267.473 7 -18098782.777 7  20683044.506         932.257
 93  5  8  5 50 59.9990000  0  7 23 21 17 22 26 28  3               -0.000293370
 -18443052.870 7 -14379696.263 9  20487512.871        -912.876
 -10271723.261 6  -8001761.616 5  22512264.905       -2834.917
 -21841703.151 8 -16499509.145 9  20464757.881         197.501
 -12219836.613 6  -9511815.344 5  23112953.787         844.518
  -9550265.091 6  -7444517.299 6  22571170.194         914.041
  -4382094.532 6  -3430127.122 5  23870259.433       -3652.292
 -34597038.267 7 -18076785.994 7  20688416.626         949.391
 93  5  8  5 51 29.9990000  0  7 23 21 17 22 26 28  3               -0.000296430
 -18470226.914 8 -14400870.815 9  20482341.900        -898.828
 -10356654.293 6  -8067941.616 5  22496102.720       -2827.103
 -21835650.848 8 -16494793.053 9  20465909.656         205.959
 -12194273.835 6  -9491896.278 5  23117818.434         859.755
  -9522578.138 6  -7422943.068 5  22576439.027         931.841
  -4491615.267 6  -3515467.824 5  23849418.399       -3649.003
 -34568298.002 7 -18054390.972 7  20693885.492         966.441
 93  5  8  5 51 59.9990000  0  7 23 21 17 22 26 28  3               -0.000299500
 -18496994.940 8 -14421729.000 9  20477248.158        -885.601
 -10441343.287 6  -8133932.983 5  22479986.946       -2818.573
 -21829354.397 8 -16489886.711 9  20467107.767         214.017
 -12168253.975 6  -9471621.183 5  23122770.273         875.058
  -9494357.551 6  -7400952.975 5  22581809.127         949.597
  -4601043.897 6  -3600736.770 5  23828594.767       -3646.095
 -34539050.190 7 -18031600.487 7  20699451.199         983.367
 93  5  8  5 52 29.9990000  0  7 23 21 17 22 26 28  3               -0.000302570
 -18523358.092 8 -14442271.678 9  20472231.328        -871.952
 -10525775.007 6  -8199723.867 5  22463920.131       -2810.132
 -21822810.874 8 -16484787.843 9  20468352.887         222.026
 -12141773.992 6  -9450987.401 5  23127809.552         890.334
  -9465600.530 6  -7378544.879 5  22587281.471         967.365
  -4710367.646 6  -3685924.008 5  23807791.258       -3642.090
 -34509289.465 7 -18008410.297 7  20705114.628        1000.467
 93  5  8  5 52 59.9990000  0  7 23 21 17 22 26 28  3               -0.000305640
 -18549315.231 8 -14462498.008 9  20467291.860        -858.500
 -10609943.564 6  -8265309.735 5  22447903.359       -2800.949
 -21816043.444 8 -16479514.525 9  20469640.631         229.052
 -12114836.160 6  -9429996.867 5  23132935.394         905.659
  -9436318.841 6  -7355727.951 5  22592853.720         984.815
  -4819561.991 6  -3771010.440 5  23787011.865       -3637.522
 -34479017.970 7 -17984822.124 7  20710874.758        1017.510
 93  5  8  5 53 29.9990000  0  7 23 21 17 22 26 28  3               -0.000308680
 -18574870.838 8 -14482411.442 9  20462428.847        -845.069
 -10693836.410 6  -8330680.752 5  22431938.934       -2791.616
 -21809079.357 8 -16474087.950 9  20470965.774         235.337
 -12087440.287 6  -9408649.489 5  23138148.485         920.933
  -9406509.564 6  -7332499.952 5  22598526.085        1002.519
  -4928625.287 6  -3855994.713 5  23766257.621       -3633.119
 -34448238.069 7 -17960837.794 7  20716732.126        1034.427
 93  5  8  5 53 59.9990000  0  7 23 21 17 22 26 28  3               -0.000311690
 -18600016.529 8 -14502005.470 9  20457643.847        -831.302
 -10777444.829 6  -8395830.128 5  22416028.759       -2782.325
 -21801921.923 8 -16468510.717 9  20472327.962         241.900
 -12059596.796 6  -9386953.251 5  23143447.015         935.155
  -9376171.993 6  -7308860.296 5  22604299.069        1019.923
  -5037547.160 6  -3940868.810 5  23745530.401       -3628.308
 -34416941.319 7 -17936450.712 7  20722687.600        1051.632
 93  5  8  5 54 29.9990000  0  7 23 21 17 22 26 28  3               -0.000314680
 -18624753.606 8 -14521281.090 9  20452936.566        -817.864
 -10860781.242 6  -8460767.547 5  22400170.216       -2773.286
 -21794567.078 8 -16462779.661 9  20473727.614         248.325
 -12031330.763 6  -9364927.757 5  23148826.649         949.343
  -9345307.351 6  -7284809.916 5  22610172.574        1037.749
  -5146324.858 6  -4025630.575 5  23724830.619       -3623.572
 -34385134.207 7 -17911665.941 7  20728740.290        1068.529
 93  5  8  5 54 59.9990000  0  7 23 21 17 22 26 28  3               -0.000317640
 -18649085.079 7 -14540240.647 9  20448306.302        -804.112
 -10943835.547 6  -8525485.162 5  22384365.427       -2763.665
 -21787015.817 8 -16456895.545 9  20475164.629         255.242
 -12002638.378 6  -9342570.071 5  23154286.989         963.476
  -9313902.554 6  -7260338.609 5  22616148.576        1055.939
  -5254957.834 6  -4110279.518 5  23704158.331       -3618.596
 -34352817.439 7 -17886484.033 7  20734889.844        1085.666
 93  5  8  5 55 29.9990000  0  7 23 21 17 22 26 28  3               -0.000320580
 -18672999.048 7 -14558874.888 9  20443755.493        -790.259
 -11026607.847 6  -8589983.012 5  22368614.259       -2754.623
 -21779248.209 8 -16450842.859 9  20476642.794         262.643
 -11973522.709 6  -9319882.607 5  23159827.446         977.436
  -9281950.898 6  -7235441.213 5  22622228.848        1074.081
  -5363444.383 6  -4194814.395 5  23683514.155       -3613.755
 -34319989.107 7 -17860903.521 6  20741136.890        1102.682
 93  5  8  5 55 59.9990000  0  7 23 21 17 22 26 28  3               -0.000323510
 -18696499.716 7 -14577187.076 9  20439283.348        -776.339
 -11109113.138 6  -8654272.807 5  22352914.160       -2745.760
 -21771245.314 8 -16444606.818 9  20478165.701         270.989
 -11943988.953 6  -9296869.246 5  23165447.018         991.476
  -9249452.870 6  -7210118.068 5  22628412.973        1092.493
  -5471777.345 6  -4279229.622 5  23662899.015       -3608.561
 -34286646.204 7 -17834922.036 6  20747482.018        1119.952
 93  5  8  5 56 29.9990000  0  7 23 21 17 22 26 28  3               -0.000326450
 -18719584.126 7 -14595174.908 9  20434890.500        -762.528
 -11191358.781 6  -8718360.258 5  22337263.423       -2737.226
 -21762994.265 8 -16438177.431 9  20479735.803         279.042
 -11914031.241 6  -9273525.570 5  23171148.138        1005.791
  -9216410.117 6  -7184370.444 5  22634700.913        1110.286
  -5579955.764 6  -4363524.455 5  23642312.948       -3603.352
 -34252787.249 7 -17808538.433 6  20753924.937        1137.131
 93  5  8  5 56 59.9990000  0  7 23 21 17 22 26 28  3               -0.000329410
 -18742247.245 8 -14612834.466 9  20430577.858        -748.405
 -11273350.980 6  -8782250.283 5  22321660.717       -2729.153
 -21754497.457 8 -16431556.519 9  20481352.626         287.314
 -11883649.102 6  -9249851.241 5  23176929.754        1019.454
  -9182842.304 6  -7158213.673 5  22641088.332        1127.357
  -5687977.020 6  -4447696.739 5  23621757.257       -3598.173
 -34218411.031 7 -17781751.756 6  20760466.527        1154.224
 93  5  8  5 57 29.9990000  0  7 23 21 17 22 26 28  3               -0.000332410
 -18764476.935 8 -14630156.280 9  20426347.663        -733.719
 -11355098.935 6  -8845949.944 5  22306104.276       -2720.854
 -21745746.082 8 -16424737.261 9  20483017.803         295.896
 -11852848.821 6  -9225850.987 5  23182790.628        1033.757
  -9148764.967 6  -7131659.890 5  22647573.063        1144.230
  -5795839.046 6  -4531744.963 5  23601232.057       -3592.695
 -34183515.183 7 -17754560.203 6  20767107.040        1171.817
 93  5  8  5 57 59.9990000  0  7 23 21 17 22 26 28  3               -0.000335450
 -18786274.842 8 -14647141.640 9  20422199.846        -719.349
 -11436600.584 6  -8909457.648 5  22290595.064       -2712.596
 -21736748.523 8 -16417726.165 9  20484729.896         303.798
 -11821629.969 6  -9201524.591 5  23188731.345        1047.490
  -9114197.285 6  -7104724.046 5  22654150.997        1160.045
  -5903542.272 6  -4615669.503 5  23580736.635       -3587.541
 -34148098.185 7 -17726962.538 6  20773846.656        1188.997
 93  5  8  5 58 29.9990000  0  7 23 21 17 22 26 28  3               -0.000338540
 -18807639.628 8 -14663789.503 9  20418134.230        -705.172
 -11517839.471 6  -8972760.625 5  22275135.808       -2703.400
 -21727519.451 8 -16410534.673 9  20486486.091         311.400
 -11789991.955 6  -9176871.600 5  23194751.852        1061.767
  -9079159.822 6  -7077422.108 5  22660818.303        1175.813
  -6011082.509 6  -4699467.017 5  23560272.222       -3581.826
 -34112163.932 7 -17698961.801 6  20780684.832        1206.342
 93  5  8  5 58 59.9990000  0  7 23 21 17 22 26 28  3               -0.000341620
 -18828584.679 8 -14680110.305 9  20414148.528        -691.321
 -11598799.016 6  -9035845.932 5  22259729.703       -2693.935
 -21718061.455 8 -16403164.800 9  20488285.985         319.020
 -11757928.645 6  -9151887.259 5  23200853.580        1075.705
  -9043636.240 6  -7049741.348 5  22667578.522        1192.320
  -6118457.457 6  -4783135.698 5  23539838.857       -3576.472
 -34075707.943 7 -17670554.536 6  20787622.139        1223.726
 93  5  8  5 59 29.9990000  0  7 23 21 17 22 26 28  3               -0.000344740
 -18849120.144 8 -14696111.949 9  20410240.903        -677.909
 -11679472.161 6  -9098708.041 5  22244378.169       -2684.235
 -21708382.856 8 -16395623.026 9  20490127.808         326.223
 -11725446.475 6  -9126576.450 5  23207034.652        1089.828
  -9007620.834 6  -7021677.408 5  22674431.727        1208.891
  -6225669.741 6  -4866677.645 5  23519437.194       -3570.948
 -34038733.407 7 -17641743.217 6  20794658.058        1241.047
 93  5  8  5 59 59.9990000  0  7 23 21 17 22 26 28  3               -0.000347830
 -18869268.533 8 -14711811.959 9  20406406.690        -665.166
 -11759850.870 6  -9161340.705 5  22229082.307       -2674.124
 -21698487.812 8 -16387912.586 9  20492010.826         333.698
 -11692543.518 6  -9100937.782 5  23213296.224        1103.799
  -8971095.912 6  -6993216.444 5  22681382.248        1226.372
  -6332713.099 6  -4950087.986 5  23499067.573       -3565.174
 -34001239.734 7 -17612527.364 6  20801792.836        1258.427
 93  5  8  6  0 29.9990000  0  7 23 21 17 22 26 28  3               -0.000350880
 -18889041.757 8 -14727219.637 9  20402643.973        -653.007
 -11839928.192 6  -9223738.542 5  22213843.916       -2664.223
 -21688364.501 8 -16380024.287 9  20493937.312         341.479
 -11659219.362 6  -9074970.971 5  23219637.090        1117.941
  -8934035.971 6  -6964338.554 5  22688434.684        1244.563
  -6439579.837 6  -5033360.684 5  23478731.553       -3558.989
 -33963222.938 7 -17582903.866 6  20809027.061        1275.921
 93  5  8  6  0 59.9990000  0  7 23 21 17 22 26 28  3               -0.000353890
 -18908440.924 8 -14742335.875 9  20398952.319        -640.040
 -11919710.181 6  -9285906.255 5  22198662.015       -2654.533
 -21678003.065 8 -16371950.440 9  20495908.990         349.468
 -11625474.469 6  -9048676.231 5  23226058.329        1131.847
  -8896429.750 6  -6935034.982 6  22695590.952        1262.494
  -6546258.558 6  -5116486.915 5  23458431.384       -3552.613
 -33924681.842 7 -17552871.847 6  20816361.313        1293.321
 93  5  8  6  1 29.9990000  0  7 23 21 17 22 26 28  3               -0.000356870
 -18927442.209 8 -14757142.036 9  20395336.442        -626.681
 -11999203.314 6  -9347848.896 5  22183534.797       -2645.006
 -21667391.424 8 -16363681.609 9  20497928.289         358.111
 -11591304.547 6  -9022050.289 5  23232560.725        1146.242
  -8858287.680 6  -6905313.855 5  22702849.195        1280.454
  -6652732.728 6  -5199453.710 5  23438170.142       -3545.713
 -33885616.925 7 -17522431.648 6  20823795.096        1310.840
 93  5  8  6  1 59.9990000  0  7 23 21 17 22 26 28  3               -0.000359840
 -18946042.330 8 -14771635.626 9  20391796.893        -613.084
 -12078411.910 6  -9409569.783 6  22168461.994       -2635.651
 -21656517.771 8 -16355208.629 9  20499997.337         366.773
 -11556701.255 6  -8995086.735 5  23239145.675        1160.496
  -8819609.352 6  -6875174.929 5  22710208.907        1297.918
  -6759000.387 6  -5282259.588 5  23417947.853       -3538.866
 -33846027.895 7 -17491583.047 6  20831328.961        1328.200
 93  5  8  6  2 29.9990000  0  7 23 21 17 22 26 28  3               -0.000362810
 -18964214.445 8 -14785795.701 9  20388338.897        -598.512
 -12157339.118 6  -9471071.395 6  22153442.741       -2626.211
 -21645382.740 8 -16346531.974 9  20502116.310         375.431
 -11521667.461 6  -8967787.681 5  23245812.371        1174.911
  -8780407.630 6  -6844628.122 5  22717669.114        1315.249
  -6865061.817 6  -5364904.812 5  23397764.894       -3531.879
 -33805912.214 7 -17460324.061 6  20838962.797        1345.774
 93  5  8  6  2 59.9990000  0  7 23 21 17 22 26 28  3               -0.000365800
 -18981952.858 8 -14799617.821 9  20384963.354        -584.052
 -12235985.364 6  -9532354.095 6  22138476.522       -2616.954
 -21633990.419 8 -16337654.837 9  20504284.360         384.019
 -11486215.754 6  -8940162.972 5  23252558.259        1188.577
  -8740695.009 6  -6813683.196 5  22725226.135        1332.292
  -6970922.845 6  -5447393.851 5  23377620.093       -3525.625
 -33765275.411 7 -17428659.034 6  20846695.484        1363.114
 93  5  8  6  3 29.9990000  0  7 23 21 17 22 26 28  3               -0.000368800
 -18999267.435 8 -14813109.677 9  20381668.633        -570.283
 -12314360.345 6  -9593425.466 6  22123562.210       -2607.855
 -21622347.950 8 -16328582.765 9  20506499.718         392.095
 -11450363.253 6  -8912225.976 5  23259381.029        1201.690
  -8700470.031 6  -6782339.045 5  22732880.793        1349.471
  -7076605.391 6  -5529743.831 5  23357509.452       -3519.878
 -33724119.133 7 -17396589.215 6  20854527.092        1380.553
 93  5  8  6  3 59.9990000  0  7 23 21 17 22 26 28  3               -0.000371810
 -19016180.325 8 -14826288.540 9  20378450.152        -556.944
 -12392459.540 6  -9654281.932 6  22108700.446       -2598.611
 -21610479.832 8 -16319334.890 9  20508758.042         399.259
 -11414123.018 6  -8883986.937 5  23266277.969        1214.556
  -8659739.056 6  -6750600.624 5  22740631.947        1366.080
  -7182114.314 6  -5611958.526 5  23337431.992       -3513.915
 -33682443.375 7 -17364114.586 6  20862457.783        1397.861
 93  5  8  6  4 29.9990000  0  7 23 21 17 22 26 28  3               -0.000374820
 -19032693.134 8 -14839155.640 9  20375307.869        -543.934
 -12470285.601 6  -9714925.569 6  22093890.617       -2589.622
 -21598393.053 8 -16309916.601 9  20511057.991         406.758
 -11377492.852 6  -8855443.887 5  23273248.230        1227.724
  -8618510.271 6  -6718474.311 5  22748477.208        1382.659
  -7287444.149 6  -5694033.654 5  23317388.210       -3507.813
 -33640246.387 7 -17331233.811 6  20870487.573        1415.141
 93  5  8  6  4 59.9990000  0  7 23 21 17 22 26 28  3               -0.000377830
 -19048816.760 8 -14851719.481 9  20372239.553        -530.823
 -12547843.952 6  -9775360.587 6  22079131.734       -2581.061
 -21586076.817 8 -16300319.540 9  20513401.818         414.258
 -11340463.242 6  -8826589.616 5  23280294.544        1241.039
  -8576778.997 6  -6685956.399 5  22756418.478        1399.286
  -7392587.202 6  -5775963.250 5  23297380.042       -3501.657
 -33597527.996 7 -17297946.754 6  20878616.365        1432.469
 93  5  8  6  5 29.9990000  0  7 23 21 17 22 26 28  3               -0.000380840
 -19064538.147 8 -14863969.895 9  20369247.854        -517.175
 -12625146.923 6  -9835596.644 6  22064421.719       -2572.319
 -21573540.733 8 -16290551.144 9  20515787.425         421.551
 -11303024.802 6  -8797416.819 5  23287419.068        1254.945
  -8534554.589 6  -6653054.245 5  22764453.756        1415.475
  -7497532.322 6  -5857738.606 5  23277409.624       -3494.710
 -33554292.342 7 -17264256.654 6  20886844.049        1449.711
 93  5  8  6  5 59.9990000  0  7 23 21 17 22 26 28  3               -0.000383850
 -19079844.718 8 -14875897.068 9  20366335.011        -503.156
 -12702174.977 6  -9895618.441 6  22049763.445       -2562.890
 -21560772.793 8 -16280602.092 9  20518216.925         429.743
 -11265164.709 6  -8767915.485 5  23294623.611        1269.103
  -8491848.539 6  -6619776.838 5  22772580.260        1431.668
  -7602257.338 6  -5939342.487 5  23257481.192       -3487.059
 -33510536.883 7 -17230161.486 6  20895170.384        1467.065
 93  5  8  6  6 29.9990000  0  7 23 21 17 22 26 28  3               -0.000386880
 -19094725.490 8 -14887492.462 9  20363503.263        -488.927
 -12778919.168 6  -9955419.061 6  22035159.615       -2553.250
 -21547749.032 8 -16270453.691 9  20520695.218         438.548
 -11226887.465 6  -8738089.061 5  23301907.220        1282.572
  -8448647.480 6  -6586113.656 5  22780801.159        1448.478
  -7706750.759 6  -6020765.881 5  23237596.466       -3479.210
 -33466258.135 7 -17195658.569 6  20903596.280        1484.628
 93  5  8  6  6 59.9990000  0  7 23 21 17 22 26 28  3               -0.000389910
 -19109182.613 8 -14898757.719 9  20360752.345        -474.844
 -12855365.177 6 -10014987.357 6  22020612.436       -2543.163
 -21534463.403 8 -16260101.257 9  20523223.428         447.114
 -11188217.001 6  -8707956.200 5  23309265.864        1295.496
  -8404940.020 6  -6552055.872 5  22789118.442        1465.304
  -7811006.144 6  -6102003.782 5  23217757.281       -3471.101
 -33421456.609 7 -17160748.295 6  20912122.009        1502.094
 93  5  8  6  7 29.9990000  0  7 23 21 17 22 26 28  3               -0.000392940
 -19123234.131 8 -14909706.938 9  20358078.377        -462.106
 -12931503.870 6 -10074316.161 6  22006123.498       -2532.796
 -21520927.311 8 -16249553.640 9  20525799.244         455.377
 -11149168.773 6  -8677529.049 5  23316696.645        1307.716
  -8360740.090 6  -6517614.356 6  22797529.447        1481.484
  -7915024.566 6  -6183057.052 5  23197963.543       -3463.497
 -33376130.265 7 -17125429.064 6  20920747.609        1519.502
 93  5  8  6  7 59.9990000  0  7 23 21 17 22 26 28  3               -0.000395980
 -19136911.873 8 -14920364.899 9  20355475.509        -449.769
 -13007337.186 6 -10133406.995 6  21991693.097       -2522.843
 -21507138.273 8 -16238808.934 9  20528423.249         463.709
 -11109760.394 6  -8646821.243 5  23324195.636        1319.428
  -8316042.996 6  -6482785.446 5  22806034.802        1498.242
  -8018821.514 6  -6263937.742 5  23178211.347       -3456.367
 -33330280.343 7 -17089701.861 6  20929472.718        1536.839
 93  5  8  6  8 29.9990000  0  7 23 21 17 22 26 28  3               -0.000399010
 -19150216.974 8 -14930732.499 9  20352943.680        -437.293
 -13082881.919 6 -10192272.967 6  21977317.430       -2513.510
 -21493103.999 8 -16227873.131 9  20531093.750         471.823
 -11070004.955 6  -8615842.906 5  23331761.061        1330.917
  -8270842.008 6  -6447563.932 5  22814636.445        1514.976
  -8122414.461 6  -6344659.440 5  23158498.305       -3449.915
 -33283912.240 7 -17053570.867 6  20938295.919        1554.084
 93  5  8  6  8 59.9990000  0  7 23 21 17 22 26 28  3               -0.000402050
 -19163146.053 8 -14940807.092 9  20350483.284        -424.703
 -13158146.951 6 -10250920.995 6  21962994.814       -2504.300
 -21478829.045 8 -16216749.772 9  20533810.218         479.628
 -11029889.163 6  -8584583.864 5  23339394.303        1343.364
  -8225147.467 6  -6411957.772 5  22823331.958        1531.152
  -8225815.963 6  -6425232.007 5  23138821.546       -3443.557
 -33237026.315 7 -17017036.389 6  20947217.602        1571.379
 93  5  8  6  9 29.9990000  0  7 23 21 17 22 26 28  3               -0.000405080
 -19175691.069 8 -14950582.411 9  20348096.130        -411.509
 -13233134.882 6 -10309353.122 6  21948724.734       -2494.915
 -21464323.634 8 -16205446.857 9  20536570.408         487.463
 -10989398.845 5  -8553033.057 5  23347099.731        1355.839
  -8178966.513 6  -6375972.567 5  22832119.703        1547.668
  -8329027.507 6  -6505656.545 5  23119180.594       -3437.291
 -33189621.185 7 -16980097.322 6  20956238.535        1588.692
 93  5  8  6  9 59.9990000  0  7 23 21 17 22 26 28  3               -0.000408120
 -19187823.815 8 -14960036.505 9  20345787.283        -397.473
 -13307838.714 6 -10367563.860 6  21934509.173       -2485.394
 -21449576.848 8 -16193955.846 9  20539376.586         495.609
 -10948532.974 6  -8521189.486 5  23354875.657        1368.456
  -8132281.884 6  -6339594.954 5  22841003.732        1564.461
  -8432048.797 6  -6585932.832 5  23099576.306       -3430.820
 -33141698.015 7 -16942754.601 6  20965358.136        1605.867
 93  5  8  6 10 29.9990000  0  7 23 21 17 22 26 28  3               -0.000411170
 -19199533.800 8 -14969161.145 9  20343559.078        -383.565
 -13382249.174 6 -10425546.001 6  21920349.278       -2475.506
 -21434586.224 8 -16182274.831 9  20542229.151         503.681
 -10907280.924 5  -8489045.056 5  23362726.033        1381.564
  -8085094.952 6  -6302825.941 5  22849983.003        1581.093
  -8534863.716 6  -6666048.290 5  23080011.229       -3423.462
 -33093252.360 7 -16905004.726 6  20974577.211        1623.436
 93  5  8  6 10 59.9990000  0  7 23 21 17 22 26 28  3               -0.000414200
 -19210845.036 8 -14977975.082 9  20341406.577        -370.516
 -13456366.002 6 -10483299.343 6  21906245.172       -2465.643
 -21419357.266 8 -16170408.110 9  20545127.003         511.580
 -10865635.512 6  -8456594.122 5  23370651.262        1394.734
  -8037418.253 6  -6265675.229 5  22859055.706        1597.399
  -8637447.482 6  -6745983.633 5  23060490.195       -3415.325
 -33044285.098 7 -16866848.446 6  20983895.411        1640.893
 93  5  8  6 11 29.9990000  0  7 23 21 17 22 26 28  3               -0.000417220
 -19221766.922 8 -14986485.633 9  20339328.328        -357.411
 -13530187.652 6 -10540822.644 6  21892197.288       -2455.652
 -21403892.073 8 -16158357.297 9  20548070.008         519.835
 -10823601.705 6  -8423840.512 5  23378649.251        1407.732
  -7989255.870 6  -6228146.101 5  22868220.739        1613.633
  -8739781.311 6  -6825724.231 5  23041016.608       -3406.748
 -32994796.066 7 -16828285.559 6  20993312.831        1658.350
 93  5  8  6 11 59.9990000  0  7 23 21 17 22 26 28  3               -0.000420220
 -19232301.750 8 -14994694.568 9  20337323.544        -345.097
 -13603716.353 6 -10598117.714 6  21878205.383       -2446.298
 -21388170.611 8 -16146106.807 9  20551061.835         528.051
 -10781171.633 5  -8390778.098 5  23386723.685        1420.940
  -7940610.745 6  -6190240.821 5  22877477.622        1629.224
  -8841850.208 6  -6905258.362 5  23021593.595       -3397.855
 -32944782.736 7 -16789314.117 6  21002830.133        1675.597
 93  5  8  6 12 29.9990000  0  7 23 21 17 22 26 28  3               -0.000423200
 -19242471.810 8 -15002619.289 9  20335388.075        -332.921
 -13676966.539 6 -10655195.773 6  21864266.205       -2436.982
 -21372211.674 8 -16133671.271 9  20554098.813         535.806
 -10738346.183 6  -8357407.689 5  23394873.253        1433.935
  -7891506.918 6  -6151978.103 5  22886822.115        1644.254
  -8943648.497 6  -6984581.662 5  23002222.134       -3388.711
 -32894251.781 7 -16749939.368 6  21012446.046        1692.844
 93  5  8  6 12 59.9990000  0  7 23 21 17 22 26 28  3               -0.000426170
 -19252265.609 8 -15010250.804 9  20333524.245        -319.783
 -13749927.119 7 -10712048.127 6  21850382.314       -2427.047
 -21356017.055 8 -16121052.081 9  20557180.609         543.746
 -10695138.137 6  -8323739.102 5  23403096.030        1446.552
  -7841952.269 6  -6113364.071 5  22896251.774        1659.422
  -9045176.274 6  -7063694.190 5  22982902.318       -3379.903
 -32843201.545 7 -16710159.974 6  21022160.742        1710.225
 93  5  8  6 13 29.9990000  0  7 23 21 17 22 26 28  3               -0.000429150
 -19261658.400 8 -15017569.852 9  20331736.891        -306.477
 -13822591.216 6 -10768669.451 6  21836554.528       -2417.108
 -21339589.848 8 -16108251.657 9  20560306.685         551.397
 -10651560.751 6  -8289782.707 5  23411388.491        1458.439
  -7791942.843 6  -6074395.667 5  22905768.288        1674.601
  -9146445.869 6  -7142605.494 5  22963631.039       -3371.517
 -32791631.591 7 -16669975.590 6  21031974.076        1727.451
 93  5  8  6 13 59.9990000  0  7 23 21 17 22 26 28  3               -0.000432140
 -19270658.922 8 -15024583.237 9  20330024.186        -293.736
 -13894949.669 7 -10825052.635 6  21822785.131       -2406.834
 -21322933.486 8 -16095272.674 9  20563476.363         558.732
 -10607634.429 5  -8255554.440 5  23419747.052        1469.692
  -7741471.512 6  -6035067.366 5  22915372.438        1690.106
  -9247465.694 6  -7221322.199 5  22944407.456       -3363.237
 -32739544.200 7 -16629388.012 6  21041886.126        1744.669
 93  5  8  6 14 29.9990000  0  7 23 21 17 22 26 28  3               -0.000435140
 -19279277.696 8 -15031299.163 9  20328384.152        -280.886
 -13966994.153 7 -10881191.172 6  21809075.399       -2396.263
 -21306059.190 8 -16082123.864 9  20566687.448         566.226
 -10563379.529 6  -8221070.160 5  23428168.762        1480.565
  -7690533.524 6  -5995375.430 5  22925065.567        1705.760
  -9348235.824 6  -7299844.326 5  22925231.489       -3354.792
 -32686940.585 7 -16588398.181 6  21051896.377        1761.935
 93  5  8  6 14 59.9990000  0  7 23 21 17 22 26 28  3               -0.000438140
 -19287513.223 8 -15037716.431 9  20326817.066        -268.061
 -14038728.874 7 -10937088.322 6  21795424.853       -2386.048
 -21288956.888 8 -16068797.400 9  20569941.895         574.053
 -10518804.346 5  -8186336.239 5  23436651.348        1491.469
  -7639119.786 6  -5955312.777 5  22934849.257        1722.031
  -9448751.261 6  -7378168.009 5  22906104.132       -3346.069
 -32633821.320 7 -16547006.562 6  21062004.467        1779.234
 93  5  8  6 15 29.9990000  0  7 23 21 17 22 26 28  3               -0.000441020
 -19295190.272 8 -15043698.549 9  20325356.200        -247.660
 -14109982.180 7 -10992610.366 6  21781865.707       -2367.903
 -21271434.315 8 -16055143.443 9  20573276.487         590.397
 -10473716.530 6  -8151202.910 5  23445231.424        1510.612
  -7587033.572 6  -5914726.088 5  22944760.702        1746.457
  -9548821.673 6  -7456144.898 5  22887061.558       -3329.049
 -32580003.240 7 -16505070.404 6  21072245.630        1804.583
 93  5  8  6 15 59.9990000  0  7 23 21 17 22 26 28  3               -0.000443860
 -19302442.837 8 -15049349.882 9  20323976.064        -235.658
 -14180884.019 7 -11047858.556 6  21768373.760       -2359.107
 -21253602.411 8 -16041248.449 9  20576669.739         598.387
 -10428236.150 5  -8115763.710 5  23453886.151        1521.521
  -7534408.024 6  -5873719.209 5  22954775.121        1761.852
  -9648564.114 6  -7533866.253 5  22868081.106       -3320.365
 -32525611.690 7 -16462687.375 6  21082595.433        1821.271
 93  5  8  6 16 29.9990000  0  7 23 21 17 22 26 28  3               -0.000446700
 -19309315.225 8 -15054704.990 9  20322668.359        -222.454
 -14251526.069 7 -11102904.294 6  21754930.954       -2350.424
 -21235519.779 8 -16027158.080 9  20580110.625         607.102
 -10382409.023 5  -8080054.288 5  23462606.396        1533.553
  -7481320.185 6  -5832352.067 5  22964877.266        1777.214
  -9748035.151 6  -7611376.127 5  22849152.404       -3311.246
 -32470712.172 7 -16419908.548 6  21093042.431        1838.364
 93  5  8  6 16 59.9990000  0  7 23 21 17 22 26 28  3               -0.000449550
 -19315792.387 8 -15059752.124 9  20321435.752        -209.290
 -14321914.950 7 -11157752.752 6  21741536.468       -2341.968
 -21217180.549 8 -16012867.775 9  20583600.412         615.608
 -10336226.236 5  -8044067.734 5  23471394.858        1545.444
  -7427769.426 6  -5790624.176 5  22975067.501        1792.755
  -9847241.567 6  -7688679.774 5  22830273.680       -3302.620
 -32415301.723 7 -16376731.592 6  21103586.839        1855.418
 93  5  8  6 17 29.9990000  0  7 23 21 17 22 26 28  3               -0.000452400
 -19321872.775 8 -15064490.070 9  20320278.745        -196.098
 -14392032.965 7 -11212390.152 6  21728193.495       -2332.550
 -21198577.024 8 -15998371.516 9  20587140.499         624.551
 -10289681.457 5  -8007799.148 5  23480251.984        1557.466
  -7373759.299 6  -5748538.365 5  22985345.418        1807.740
  -9946191.864 6  -7765783.865 5  22811444.235       -3294.027
 -32359377.850 7 -16333154.559 6  21114229.134        1872.646
 93  5  8  6 17 59.9990000  0  7 23 21 17 22 26 28  3               -0.000455260
 -19327565.683 8 -15068926.094 9  20319195.444        -183.258
 -14461881.209 7 -11266817.314 6  21714901.838       -2323.796
 -21179717.507 8 -15983675.775 9  20590729.335         632.836
 -10242785.754 5  -7971257.030 5  23489176.260        1569.047
  -7319303.270 6  -5706105.102 5  22995708.331        1822.879
 -10044890.475 6  -7842691.835 5  22792662.528       -3285.683
 -32302943.922 7 -16289180.073 6  21124967.719        1889.551
 93  5  8  6 18 29.9990000  0  7 23 21 17 22 26 28  3               -0.000458120
 -19332879.374 8 -15073066.625 9  20318184.264        -171.070
 -14531450.210 7 -11321026.901 6  21701663.090       -2313.818
 -21160611.474 8 -15968787.963 9  20594365.157         640.883
 -10195552.919 5  -7934452.281 5  23498163.809        1579.779
  -7264389.909 6  -5663315.482 5  23006158.149        1838.051
 -10143344.830 6  -7919409.487 5  22773927.277       -3277.829
 -32246001.725 7 -16244809.546 6  21135803.637        1906.454
 93  5  8  6 18 59.9990000  0  7 23 21 17 22 26 28  3               -0.000460980
 -19337827.981 8 -15076922.677 9  20317242.694        -158.954
 -14600701.736 7 -11374989.120 6  21688485.102       -2303.005
 -21141264.393 8 -15953712.318 9  20598046.768         648.788
 -10148000.706 5  -7897398.686 5  23507213.299        1590.221
  -7209013.687 6  -5620165.179 5  23016695.902        1853.417
 -10241557.112 6  -7995938.489 5  22755238.238       -3269.675
 -32188546.766 7 -16200039.458 6  21146737.058        1923.493
 93  5  8  6 19 29.9990000  0  7 23 21 17 22 26 28  3               -0.000463840
 -19342417.514 8 -15080498.923 9  20316369.449        -147.017
 -14669623.354 7 -11428694.246 6  21675370.016       -2291.941
 -21121678.850 8 -15938450.846 9  20601773.890         656.832
 -10100137.672 5  -7860102.804 5  23516321.997        1600.567
  -7153185.651 6  -5576662.794 5  23027319.599        1868.447
 -10339514.599 6  -8072268.999 5  22736597.451       -3260.645
 -32130580.584 7 -16154871.016 6  21157767.712        1940.701
 93  5  8  6 19 59.9990000  0  7 23 21 17 22 26 28  3               -0.000466710
 -19346650.236 8 -15083797.134 9  20315563.998        -135.040
 -14738229.216 7 -11482153.331 6  21662314.741       -2281.461
 -21101865.437 8 -15923011.821 9  20605544.109         664.286
 -10051972.078 5  -7822571.143 5  23525486.545        1610.660
  -7096906.016 6  -5532808.570 5  23038029.395        1883.746
 -10437195.719 6  -8148384.108 5  22718009.418       -3251.104
 -32072104.096 7 -16109304.922 6  21168895.408        1957.692
 93  5  8  6 20 29.9990000  0  7 23 21 17 22 26 28  3               -0.000469570
 -19350523.974 8 -15086815.636 9  20314826.778        -123.126
 -14806512.432 7 -11535361.011 6  21649320.648       -2270.667
 -21081824.236 8 -15907395.302 9  20609357.828         671.981
 -10003504.371 5  -7784804.178 5  23534709.508        1620.645
  -7040173.837 6  -5488601.682 5  23048825.192        1898.442
 -10534583.115 6  -8224270.357 5  22699477.018       -3241.157
 -32013118.747 7 -16063342.337 6  21180119.949        1974.571
 93  5  8  6 20 59.9990000  0  7 23 21 17 22 26 28  3               -0.000472430
 -19354030.010 8 -15089547.591 9  20314159.550        -110.461
 -14874476.950 7 -11588320.357 6  21636387.282       -2260.224
 -21061543.955 8 -15891592.483 9  20613216.996         680.352
  -9954721.877 5  -7746791.904 5  23543992.976        1631.738
  -6982999.854 6  -5444050.509 5  23059704.959        1913.249
 -10631656.957 6  -8299912.295 5  22681004.457       -3230.183
 -31953619.852 7 -16016979.563 6  21191442.508        1991.900
 93  5  8  6 21 29.9990000  0  7 23 21 17 22 26 28  3               -0.000475280
 -19357163.483 8 -15091989.259 9  20313563.283         -98.528
 -14942131.060 7 -11641037.814 6  21623513.223       -2250.201
 -21041002.660 8 -15875586.266 9  20617125.940         689.003
  -9905603.180 5  -7708517.563 5  23553340.534        1642.895
  -6925378.364 6  -5399150.657 5  23070669.835        1928.240
 -10728395.484 6  -8375292.942 5  22662595.780       -3219.135
 -31893603.236 7 -15970213.362 6  21202863.512        2008.953
 93  5  8  6 21 59.9990000  0  7 23 21 17 22 26 28  3               -0.000478110
 -19359929.648 8 -15094144.699 9  20313036.737         -85.974
 -15009483.850 7 -11693520.491 6  21610696.495       -2240.041
 -21020198.828 8 -15859375.498 9  20621084.700         697.803
  -9856139.734 5  -7669974.728 5  23562752.529        1654.329
  -6867302.071 6  -5353896.420 5  23081721.258        1943.327
 -10824806.682 6  -8450418.541 5  22644249.243       -3208.462
 -31833071.873 7 -15923046.082 6  21214382.349        2026.103
 93  5  8  6 22 29.9990000  0  7 23 21 17 22 26 28  3               -0.000480940
 -19362320.574 8 -15096007.764 9  20312581.754         -73.247
 -15076538.625 7 -11745770.948 6  21597936.501       -2230.285
 -20999128.643 8 -15842957.173 9  20625094.204         706.924
  -9806348.427 5  -7631176.304 5  23572227.925        1665.128
  -6808786.004 6  -5308299.511 5  23092856.578        1957.770
 -10920916.675 6  -8525309.417 5  22625960.343       -3198.804
 -31772030.987 7 -15875481.775 6  21225997.818        2043.100
 93  5  8  6 22 59.9990000  0  7 23 21 17 22 26 28  3               -0.000483770
 -19364316.535 8 -15097563.044 9  20312201.857         -59.776
 -15143303.080 7 -11797795.169 6  21585231.486       -2220.626
 -20977789.423 8 -15826329.206 9  20629154.724         715.747
  -9756226.869 5  -7592120.500 5  23581765.629        1676.226
  -6749835.073 6  -5262363.711 5  23104074.564        1972.391
 -11016732.295 6  -8599970.904 5  22607727.487       -3188.837
 -31710478.194 7 -15827518.553 6  21237711.068        2060.231
 93  5  8  6 23 29.9990000  0  7 23 21 17 22 26 28  3               -0.000486620
 -19365911.010 8 -15098805.494 9  20311898.565         -46.330
 -15209777.397 7 -11849593.317 6  21572581.834       -2210.946
 -20956188.301 8 -15809497.158 9  20633265.209         724.320
  -9705782.046 5  -7552812.878 5  23591364.872        1686.778
  -6690442.839 6  -5216084.037 5  23115376.677        1987.167
 -11112249.957 6  -8674400.207 5  22589550.952       -3178.998
 -31648413.948 7 -15779156.796 6  21249521.143        2077.211
 93  5  8  6 23 59.9990000  0  7 23 21 17 22 26 28  3               -0.000489490
 -19367087.097 8 -15099721.920 9  20311674.870         -32.117
 -15275961.049 7 -11901164.983 6  21559987.490       -2201.292
 -20934338.032 8 -15792470.978 9  20637423.419         732.371
  -9655032.218 5  -7513267.555 5  23601021.857        1696.511
  -6630612.423 6  -5169462.963 5  23126762.247        2001.537
 -11207468.446 6  -8748596.455 5  22571431.375       -3168.889
 -31585839.372 7 -15730397.394 6  21261428.640        2094.155
 93  5  8  6 24 29.9990000  0  7 23 21 17 22 26 28  3               -0.000492380
 -19367846.707 8 -15100313.817 9  20311530.350         -18.539
 -15341853.896 7 -11952510.029 6  21547448.560       -2191.352
 -20912244.411 8 -15775255.177 9  20641627.788         740.686
  -9603991.146 5  -7473495.268 5  23610734.654        1706.626
  -6570351.655 6  -5122506.532 5  23138229.124        2016.103
 -11302377.855 6  -8822551.818 5  22553370.405       -3158.191
 -31522757.874 7 -15681243.001 6  21273432.778        2111.114
 93  5  8  6 24 59.9990000  0  7 23 21 17 22 26 28  3               -0.000495270
 -19368205.723 8 -15100593.572 9  20311461.858          -5.731
 -15407434.285 7 -12003611.616 6  21534968.810       -2180.678
 -20889902.968 8 -15757846.250 9  20645879.044         748.804
  -9552634.503 5  -7433477.128 5  23620507.064        1717.017
  -6509639.595 6  -5075198.433 5  23149782.328        2031.301
 -11396952.761 6  -8896246.495 5  22535373.216       -3146.815
 -31459163.979 7 -15631689.322 6  21285534.400        2128.141
 93  5  8  6 25 29.9990000  0  7 23 21 17 22 26 28  3               -0.000498150
 -19368199.690 8 -15100588.858 9  20311463.007           6.175
 -15472693.036 7 -12054462.594 6  21522550.388       -2169.834
 -20867312.573 8 -15740243.353 9  20650177.799         757.267
  -9500972.953 5  -7393221.439 5  23630338.148        1727.251
  -6448475.055 6  -5027537.754 5  23161421.642        2046.337
 -11491192.506 6  -8969680.075 5  22517440.130       -3135.843
 -31395063.977 7 -15581741.261 6  21297732.216        2144.997
 93  5  8  6 25 59.9990000  0  7 23 21 17 22 26 28  3               -0.000501000
 -19367838.972 8 -15100307.771 9  20311531.579          17.563
 -15537629.120 7 -12105062.103 6  21510193.302       -2159.470
 -20844466.632 8 -15722441.324 9  20654525.199         765.715
  -9449001.833 5  -7352724.467 5  23640228.234        1737.362
  -6386861.115 6  -4979526.945 5  23173146.696        2061.157
 -11585105.901 6  -9042859.307 5  22499569.292       -3125.240
 -31330459.392 7 -15531400.050 6  21310026.286        2161.603
 93  5  8  6 26 29.9990000  0  7 23 21 17 22 26 28  3               -0.000503820
 -19367152.378 8 -15099772.761 9  20311662.179          28.095
 -15602253.701 7 -12155418.915 6  21497895.687       -2148.993
 -20821361.255 8 -15704437.129 9  20658921.996         774.582
  -9396726.239 5  -7311990.232 5  23650176.008        1747.646
  -6324801.459 6  -4931168.770 5  23184955.871        2076.081
 -11678702.636 6  -9115791.804 5  22481758.225       -3114.541
 -31265355.791 7 -15480669.986 6  21322415.288        2178.245
 93  5  8  6 26 59.9990000  0  7 23 21 17 22 26 28  3               -0.000506620
 -19366152.081 8 -15098993.308 9  20311852.715          38.576
 -15666576.083 7 -12205540.244 6  21485655.530       -2139.215
 -20797997.990 8 -15686231.990 9  20663367.979         783.073
  -9344151.682 5  -7271023.083 5  23660180.615        1757.179
  -6262304.336 6  -4882469.699 5  23196848.710        2090.287
 -11771980.510 6  -9188475.853 5  22464007.681       -3103.936
 -31199758.619 7 -15429555.302 6  21334897.869        2194.740
 93  5  8  6 27 29.9990000  0  7 23 21 17 22 26 28  3               -0.000509410
 -19364829.573 8 -15097962.774 9  20312104.354          49.852
 -15730611.551 7 -12255437.985 6  21473469.887       -2129.651
 -20774369.372 8 -15667820.087 9  20667864.556         792.172
  -9291291.879 5  -7229833.719 5  23670238.966        1766.890
  -6199387.871 6  -4833443.912 5  23208821.310        2104.043
 -11864947.490 6  -9260917.634 5  22446316.899       -3093.669
 -31133665.326 7 -15378054.038 6  21347474.481        2211.346
 93  5  8  6 27 59.9990000  0  7 23 21 17 22 26 28  3               -0.000512200
 -19363167.091 8 -15096667.318 9  20312420.704          60.749
 -15794365.500 7 -12305116.364 6  21461337.975       -2120.676
 -20750478.286 8 -15649203.660 9  20672410.946         800.408
  -9238153.671 5  -7188427.269 5  23680350.393        1775.477
  -6136061.526 6  -4784098.742 5  23220871.904        2117.523
 -11957604.469 6  -9333117.844 5  22428685.055       -3083.395
 -31067078.431 7 -15326168.165 6  21360145.159        2227.471
 93  5  8  6 28 29.9990000  0  7 23 21 17 22 26 28  3               -0.000514990
 -19361184.767 8 -15095122.647 9  20312797.974          71.511
 -15857846.814 7 -12354582.334 6  21449257.917       -2111.295
 -20726347.646 8 -15630400.564 9  20677002.840         808.349
  -9184759.406 5  -7146821.291 5  23690511.432        1784.220
  -6072340.104 6  -4734445.664 5  23232997.691        2130.599
 -12049947.300 6  -9405073.277 5  22411112.740       -3072.731
 -31000009.854 7 -15273906.954 6  21372907.915        2243.564
 93  5  8  6 28 59.9990000  0  7 23 21 17 22 26 28  3               -0.000517800
 -19358874.724 8 -15093322.613 9  20313237.518          82.530
 -15921049.050 7 -12403830.793 6  21437230.893       -2102.132
 -20701985.715 8 -15611417.245 9  20681638.718         815.692
  -9131110.523 5  -7105016.966 5  23700721.313        1792.295
  -6008232.879 6  -4684492.007 5  23245196.976        2143.227
 -12141979.760 6  -9476786.870 5  22393599.603       -3062.852
 -30932460.546 7 -15221271.125 6  21385762.076        2259.467
 93  5  8  6 29 29.9990000  0  7 23 21 17 22 26 28  3               -0.000520630
 -19356227.203 8 -15091259.602 9  20313741.160          94.020
 -15983969.510 7 -12452859.698 6  21425257.383       -2092.428
 -20677406.211 8 -15592264.382 9  20686316.182         822.907
  -9077217.875 5  -7063022.741 5  23710976.193        1800.361
  -5943747.151 6  -4634243.417 5  23257468.291        2155.849
 -12233713.367 6  -9548267.578 5  22376143.149       -3052.648
 -30864434.851 7 -15168264.084 6  21398707.053        2275.324
 93  5  8  6 29 59.9990000  0  7 23 21 17 22 26 28  3               -0.000523490
 -19353237.997 8 -15088930.341 9  20314310.074         105.306
 -16046587.803 7 -12501653.153 6  21413341.471       -2082.126
 -20652610.580 8 -15572943.119 9  20691034.614         830.275
  -9023083.185 5  -7020839.831 5  23721277.619        1808.630
  -5878875.555 6  -4583694.124 5  23269812.894        2169.001
 -12325126.762 6  -9619498.791 5  22358747.532       -3041.496
 -30795930.926 7 -15114884.436 6  21411743.150        2291.492
 93  5  8  6 30 29.9990000  0  7 23 21 17 22 26 28  3               -0.000526370
 -19349910.387 8 -15086337.391 9  20314943.247         116.739
 -16108896.748 7 -12550205.539 6  21401484.452       -2071.731
 -20627588.324 8 -15553445.252 9  20695796.199         838.007
  -8968704.078 5  -6978466.493 5  23731625.410        1816.733
  -5813620.241 6  -4532845.840 5  23282230.709        2181.404
 -12416210.817 7  -9690473.338 5  22341414.910       -3030.740
 -30726943.959 7 -15061128.353 6  21424870.772        2307.439
 93  5  8  6 30 59.9990000  0  7 23 21 17 22 26 28  3               -0.000529280
 -19346228.549 8 -15083468.434 9  20315643.902         128.866
 -16170890.156 7 -12598512.078 6  21389687.567       -2061.007
 -20602325.357 8 -15533759.830 9  20700603.521         846.424
  -8914081.151 5  -6935903.263 5  23742020.483        1825.033
  -5747990.164 6  -4481705.550 5  23294719.474        2194.038
 -12506970.327 7  -9761195.034 5  22324144.197       -3019.499
 -30657477.720 7 -15006998.837 6  21438089.978        2323.515
 93  5  8  6 31 29.9990000  0  7 23 21 17 22 26 28  3               -0.000532210
 -19342182.926 8 -15080315.983 9  20316413.819         140.862
 -16232561.124 7 -12646567.351 6  21377951.952       -2050.337
 -20576797.400 8 -15513867.914 9  20705461.249         855.489
  -8859205.009 5  -6893142.635 5  23752462.831        1833.487
  -5681982.218 6  -4430270.817 5  23307280.567        2206.692
 -12597378.332 7  -9831642.799 5  22306940.268       -3007.561
 -30587530.083 7 -14952494.180 6  21451400.736        2339.463
 93  5  8  6 31 59.9990000  0  7 23 21 17 22 26 28  3               -0.000535170
 -19337779.801 8 -15076884.978 9  20317251.769         152.746
 -16293917.315 7 -12694377.357 6  21366276.255       -2040.379
 -20551001.734 8 -15493767.404 8  20710369.999         864.037
  -8804075.314 5  -6850184.416 5  23762953.537        1841.894
  -5615580.566 6  -4378529.290 5  23319916.400        2220.092
 -12687423.509 7  -9901807.858 5  22289805.097       -2995.439
 -30517102.322 7 -14897615.419 6  21464802.467        2355.486
 93  5  8  6 32 29.9990000  0  7 23 21 17 22 26 28  3               -0.000538130
 -19333010.824 8 -15073168.880 9  20318159.341         165.130
 -16354983.427 7 -12741961.321 7  21354655.600       -2030.859
 -20524955.622 8 -15473471.716 8  20715326.225         872.162
  -8748689.726 5  -6807026.875 5  23773493.364        1850.456
  -5548774.431 6  -4326472.537 5  23332628.894        2233.592
 -12777104.265 7  -9971688.963 5  22272739.464       -2983.252
 -30446193.327 7 -14842361.662 6  21478296.054        2371.445
 93  5  8  6 32 59.9990000  0  7 23 21 17 22 26 28  3               -0.000541080
 -19327873.152 8 -15069165.498 9  20319137.024         177.402
 -16415775.259 7 -12789331.548 6  21343087.449       -2021.896
 -20498672.874 8 -15452991.666 8  20720327.585         880.053
  -8693048.799 5  -6763670.347 5  23784081.164        1859.072
  -5481555.716 6  -4274094.322 5  23345420.434        2247.707
 -12866411.428 7 -10041278.938 5  22255744.658       -2970.454
 -30374804.716 7 -14786734.179 6  21491881.220        2387.621
 93  5  8  6 33 29.9990000  0  7 23 21 17 22 26 28  3               -0.000544020
 -19322374.789 8 -15064881.050 9  20320183.290         189.088
 -16476306.373 7 -12836498.649 6  21331568.841       -2013.489
 -20472166.608 8 -15432337.433 8  20725371.514         886.840
  -8637152.678 5  -6720114.885 5  23794718.288        1867.266
  -5413914.855 6  -4221387.201 5  23358292.202        2261.665
 -12955339.500 7 -10110573.518 5  22238822.165       -2958.239
 -30302933.938 7 -14730730.972 6  21505557.954        2403.503
 93  5  8  6 33 59.9990000  0  7 23 21 17 22 26 28  3               -0.000546940
 -19316534.801 8 -15060330.409 9  20321294.573         200.368
 -16536577.885 7 -12883463.433 6  21320099.542       -2004.500
 -20445465.741 8 -15411531.580 8  20730452.585         893.348
  -8581013.453 5  -6676370.082 5  23805400.717        1875.524
  -5345861.987 6  -4168359.019 5  23371242.475        2274.943
 -13043904.605 7 -10179585.284 5  22221968.882       -2946.149
 -30230587.242 7 -14674356.962 5  21519324.860        2419.378
 93  5  8  6 34 29.9990000  0  7 23 21 17 22 26 28  3               -0.000549860
 -19310356.665 8 -15055516.271 9  20322470.166         211.331
 -16596563.693 7 -12930205.606 6  21308684.705       -1994.392
 -20418550.147 8 -15390558.390 8  20735574.571         901.094
  -8524621.183 5  -6632428.054 5  23816131.674        1884.029
  -5277424.802 6  -4115031.297 5  23384265.152        2287.434
 -13132106.202 7 -10248313.786 5  22205184.881       -2933.984
 -30157764.006 7 -14617611.583 5  21533182.678        2435.214
 93  5  8  6 34 59.9990000  0  7 23 21 17 22 26 28  3               -0.000552770
 -19303856.143 8 -15050450.928 9  20323706.951         221.967
 -16656234.118 7 -12976702.032 6  21297329.744       -1983.571
 -20391387.501 8 -15369392.697 8  20740743.351         909.687
  -8467965.920 5  -6588281.113 5  23826913.927        1892.894
  -5208610.464 6  -4061409.762 5  23397359.691        2300.075
 -13219945.723 7 -10316760.146 5  22188469.383       -2922.084
 -30084464.562 7 -14560495.148 5  21547130.985        2451.104
 93  5  8  6 35 29.9990000  0  7 23 21 17 22 26 28  3               -0.000555670
 -19297036.639 8 -15045137.032 9  20325004.633         232.484
 -16715568.801 7 -13022936.812 7  21286038.682       -1972.159
 -20363964.820 8 -15348024.379 8  20745961.879         918.522
  -8411048.046 5  -6543929.522 5  23837745.518        1901.406
  -5139422.054 6  -4007496.719 5  23410526.032        2312.259
 -13307434.311 7 -10384933.075 5  22171820.746       -2910.554
 -30010690.080 7 -14503008.524 5  21561170.059        2466.858
 93  5  8  6 35 59.9990000  0  7 23 21 17 22 26 28  3               -0.000558580
 -19289908.503 8 -15039582.637 9  20326361.041         242.873
 -16774566.685 7 -13068909.170 7  21274811.875       -1961.079
 -20336269.821 8 -15326443.858 8  20751231.892         928.041
  -8353882.105 5  -6499384.690 5  23848623.322        1909.751
  -5069880.467 6  -3953308.498 5  23423759.609        2323.876
 -13394575.415 7 -10452835.212 5  22155238.357       -2898.728
 -29936445.591 7 -14445155.709 5  21575298.353        2482.651
 93  5  8  6 36 29.9990000  0  7 23 21 17 22 26 28  3               -0.000561510
 -19282464.144 8 -15033781.841 9  20327777.523         253.440
 -16833242.937 7 -13114630.943 7  21263646.084       -1950.823
 -20308286.205 8 -15304638.463 8  20756557.025         937.423
  -8296473.110 5  -6454650.488 5  23859546.778        1917.537
  -4999983.098 6  -3898843.005 5  23437060.772        2336.006
 -13481355.955 7 -10520456.390 5  22138724.779       -2886.651
 -29861725.560 7 -14386932.325 5  21589516.659        2498.462
 93  5  8  6 36 59.9990000  0  8 23 21 17 22 26  1 28  3            -0.000564440
 -19274698.004 8 -15027730.298 9  20329255.399         264.419
 -16891622.512 7 -13160121.488 7  21252536.706       -1941.168
 -20280029.385 8 -15282620.167 8  20761934.041         946.297
  -8238839.574 5  -6409741.145 5  23870514.254        1924.746
  -4929724.743 6  -3844096.232 5  23450430.675        2347.902
   -323365.04115   -256212.02011  24327298.933       -3895.399
 -13567779.270 7 -10587799.220 5  22122279.077       -2874.703
 -29786533.977 7 -14328341.495 5  21603825.204        2514.158
 93  5  8  6 37 29.9990000  0  8 23 21 17 22 26  1 28  3            -0.000567400
 -19266597.996 8 -15021418.599 9  20330796.772         275.532
 -16949713.582 7 -13205387.235 7  21241482.288       -1931.627
 -20251513.378 8 -15260399.891 8  20767360.567         954.789
  -8180995.412 5  -6364667.783 5  23881522.466        1931.655
  -4859115.331 6  -3789075.937 5  23463867.192        2359.441
   -440224.858 5   -347271.510 3  24305060.806       -3895.361
 -13653832.832 7 -10654853.930 5  22105903.473       -2862.113
 -29710870.024 7 -14269382.555 5  21618223.686        2529.870
 93  5  8  6 37 59.9990000  0  8 23 21 17 22 26  1 28  3            -0.000570370
 -19258168.130 8 -15014849.871 9  20332400.822         286.439
 -17007519.565 7 -13250430.858 7  21230481.891       -1922.059
 -20222747.234 8 -15237984.727 8  20772834.594         962.869
  -8122948.287 5  -6319436.283 5  23892568.233        1938.186
  -4788154.366 6  -3733781.686 5  23477370.537        2371.443
   -557075.191 5   -438323.693 4  24282824.370       -3894.662
 -13739504.159 7 -10721610.795 5  22089600.457       -2849.263
 -29634736.066 7 -14210057.406 5  21632711.573        2545.458
 93  5  8  6 38 29.9990000  0  8 23 21 17 22 26  1 28  3            -0.000573340
 -19249403.966 8 -15008020.640 9  20334068.757         297.781
 -17065026.352 7 -13295241.302 7  21219538.639       -1911.660
 -20193740.402 8 -15215381.997 8  20778354.584         970.854
  -8064705.340 5  -6274052.200 5  23903651.159        1944.774
  -4716817.129 6  -3678194.190 5  23490945.218        2384.308
   -673906.333 5   -529360.945 4  24260592.605       -3894.182
 -13824789.376 7 -10788066.794 5  22073371.353       -2836.452
 -29558134.341 7 -14150367.758 5  21647288.317        2561.040
 93  5  8  6 38 59.9990000  0  8 23 21 17 22 26  1 28  3            -0.000576310
 -19240300.191 8 -15000926.801 9  20335801.128         308.978
 -17122208.837 7 -13339799.077 7  21208657.391       -1900.522
 -20164488.572 8 -15192588.368 8  20783921.010         979.233
  -8006252.208 5  -6228504.268 5  23914774.804        1952.005
  -4645089.110 6  -3622302.253 5  23504594.517        2397.528
   -790724.969 5   -620388.377 5  24238363.714       -3893.754
 -13909686.813 7 -10854220.627 6  22057216.126       -2823.247
 -29481061.890 7 -14090311.327 5  21661954.519        2576.827
 93  5  8  6 39 29.9990000  0  8 23 21 17 22 26  1 28  3            -0.000579270
 -19230872.004 8 -14993580.148 9  20337595.226         319.735
 -17179062.708 7 -13384100.759 7  21197838.342       -1889.481
 -20134991.547 8 -15169603.675 8  20789533.985         987.462
  -7947594.111 5  -6182796.613 5  23925937.921        1958.748
  -4572964.764 6  -3566101.476 5  23518319.390        2411.039
   -907534.409 5   -711408.697 5  24216135.171       -3893.359
 -13994189.269 7 -10920066.685 6  22041135.890       -2810.210
 -29403520.451 7 -14029889.421 5  21676710.125        2592.502
 93  5  8  6 39 59.9990000  0  8 23 21 17 22 26  1 28  3            -0.000582230
 -19221123.600 8 -14985984.002 9  20339450.363         330.261
 -17235588.196 7 -13428146.569 7  21187081.970       -1878.785
 -20105243.277 8 -15146423.217 8  20795194.935         995.943
  -7888737.237 5  -6136934.082 5  23937137.432        1965.306
  -4500435.544 6  -3509585.225 5  23532121.124        2424.275
  -1024323.593 5   -802413.234 5  24193910.800       -3892.470
 -14078306.234 7 -10985612.364 6  22025128.771       -2797.336
 -29325512.001 7 -13969103.641 5  21691555.000        2607.955
 93  5  8  6 40 29.9990000  0  8 23 21 17 22 26  1 28  3            -0.000585180
 -19211054.438 8 -14978137.899 9  20341366.496         340.925
 -17291794.034 7 -13471943.306 7  21176386.412       -1868.380
 -20075238.243 8 -15123042.676 8  20800904.753        1004.360
  -7829667.203 5  -6090905.533 5  23948378.161        1972.730
  -4427520.251 6  -3452768.115 5  23545996.348        2436.579
  -1141089.219 5   -893399.386 5  24171690.393       -3892.091
 -14162031.213 7 -11050852.601 6  22009196.460       -2784.340
 -29247039.933 7 -13907956.593 5  21706487.841        2623.306
 93  5  8  6 40 59.9990000  0  8 23 21 17 22 26  1 28  3            -0.000588120
 -19200669.051 8 -14970045.389 9  20343342.976         351.519
 -17347697.124 7 -13515504.128 7  21165748.477       -1858.606
 -20044975.038 8 -15099460.965 8  20806663.636        1013.223
  -7770373.318 5  -6044702.491 5  23959661.161        1980.007
  -4354243.127 6  -3395669.112 5  23559940.551        2448.540
  -1257845.484 5   -984378.258 5  24149472.006       -3891.660
 -14245357.594 7 -11115782.230 6  21993339.819       -2770.698
 -29168104.620 7 -13846448.559 5  21721508.834        2638.773
 93  5  8  6 41 29.9990000  0  8 23 21 17 22 26  1 28  3            -0.000591070
 -19189964.663 8 -14961704.312 9  20345379.857         362.158
 -17403315.256 7 -13558842.925 7  21155164.544       -1849.180
 -20014448.100 8 -15075673.739 8  20812472.626        1021.991
  -7710874.509 5  -5998339.760 5  23970984.134        1986.829
  -4280619.225 6  -3338299.837 5  23573950.915        2459.850
  -1374587.789 5  -1075346.278 5  24127256.907       -3891.124
 -14328276.978 7 -11180394.737 6  21977560.652       -2757.329
 -29088709.413 7 -13784582.170 5  21736617.265        2653.986
 93  5  8  6 41 59.9990000  0  8 23 21 17 22 26  1 28  3            -0.000594020
 -19178934.288 8 -14953109.209 9  20347478.732         372.847
 -17458644.438 7 -13601956.551 7  21144635.813       -1839.762
 -19983651.427 8 -15051676.345 8  20818333.039        1030.932
  -7651149.732 5  -5951801.026 5  23982349.398        1994.688
  -4206647.828 6  -3280659.803 5  23588027.391        2471.241
  -1491305.698 5  -1166295.242 5  24105045.763       -3890.360
 -14410782.716 7 -11244684.917 6  21961860.181       -2743.228
 -29008855.670 7 -13722358.492 5  21751813.345        2669.067
 93  5  8  6 42 29.9990000  0  8 23 21 17 22 26  1 28  3            -0.000596960
 -19167585.102 8 -14944265.690 9  20349638.259         383.708
 -17513691.404 7 -13644850.273 7  21134160.694       -1829.984
 -19952588.930 8 -15027471.797 8  20824244.046        1039.893
  -7591194.350 5  -5905082.613 5  23993757.180        2002.130
  -4132330.439 6  -3222750.140 5  23602169.779        2483.225
  -1608005.130 5  -1257229.814 5  24082838.802       -3889.707
 -14492865.734 7 -11308645.698 6  21946240.183       -2729.188
 -28928544.991 7 -13659778.757 5  21767095.983        2684.625
 93  5  8  6 42 59.9990000  0  8 23 21 17 22 26  1 28  3            -0.000599890
 -19155907.859 8 -14935166.534 9  20351860.410         394.643
 -17568443.100 7 -13687513.934 7  21123741.628       -1820.105
 -19921249.883 8 -15003051.771 8  20830207.857        1049.229
  -7531025.475 5  -5858197.788 5  24005206.477        2009.039
  -4057649.696 6  -3164557.410 5  23616380.583        2495.435
  -1724673.350 5  -1348140.131 5  24060636.687       -3888.131
 -14574529.661 7 -11372279.909 6  21930699.993       -2715.208
 -28847770.326 7 -13596837.459 5  21782466.822        2699.992
 93  5  8  6 43 29.9990000  0  8 23 21 17 22 26  1 28  3            -0.000602810
 -19143905.456 8 -14925814.008 9  20354144.309         405.321
 -17622886.834 7 -13729937.591 7  21113381.311       -1809.529
 -19889645.244 8 -14978424.788 8  20836221.893        1057.654
  -7470637.818 5  -5811142.524 5  24016698.110        2016.598
  -3982603.277 6  -3106079.696 5  23630661.364        2507.586
  -1841288.704 5  -1439009.171 5  24038446.141       -3886.393
 -14655781.159 7 -11435592.754 6  21915238.676       -2701.602
 -28766536.347 7 -13533538.247 5  21797924.980        2715.199
 93  5  8  6 43 59.9990000  0  8 23 21 17 22 26  1 28  3            -0.000605710
 -19131584.756 8 -14916213.469 9  20356489.075         416.086
 -17677007.326 7 -13772109.382 7  21103082.420       -1798.609
 -19857786.521 8 -14953599.809 8  20842284.427        1066.272
  -7410026.582 5  -5763913.081 5  24028233.978        2023.964
  -3907193.390 6  -3047318.748 5  23645011.371        2519.403
  -1957853.433 5  -1529838.821 5  24016265.300       -3884.583
 -14736618.568 7 -11498582.929 6  21899855.885       -2687.516
 -28684846.305 6 -13469883.690 5  21813470.128        2730.663
 93  5  8  6 44 29.9990000  0  8 23 21 17 22 26  1 28  3            -0.000608620
 -19118946.869 8 -14906365.769 9  20358893.981         426.491
 -17730808.114 7 -13814032.079 7  21092844.577       -1787.979
 -19825677.272 8 -14928579.621 8  20848394.586        1074.282
  -7349220.495 5  -5716531.661 5  24039804.153        2029.820
  -3831450.652 6  -2988298.453 5  23659425.065        2529.894
  -2074368.314 5  -1620629.623 5  23994092.587       -3882.994
 -14817042.193 7 -11561250.685 6  21884551.598       -2674.051
 -28602700.340 7 -13405873.886 5  21829101.887        2745.524
 93  5  8  6 44 59.9990000  0  8 23 21 17 22 26  1 28  3            -0.000611540
 -19105986.402 8 -14896266.705 9  20361360.294         437.494
 -17784278.494 7 -13855697.293 7  21082669.572       -1776.764
 -19793323.755 8 -14903369.081 8  20854551.143        1082.533
  -7288228.700 5  -5669005.594 5  24051409.605        2036.393
  -3755397.082 6  -2929035.971 5  23673897.791        2540.336
  -2190820.007 5  -1711371.181 5  23971932.104       -3880.585
 -14897049.262 7 -11623593.850 6  21869326.631       -2659.679
 -28520103.180 6 -13341512.460 5  21844819.635        2760.717
 93  5  8  6 45 29.9990000  0  8 23 21 17 22 26  1 28  3            -0.000614480
 -19092702.245 8 -14885915.401 9  20363888.192         448.252
 -17837420.347 7 -13897106.509 7  21072557.122       -1766.113
 -19760733.916 8 -14877974.420 8  20860752.960        1090.481
  -7227049.429 5  -5621333.562 5  24063051.325        2041.940
  -3679040.902 6  -2869537.655 5  23688427.697        2550.215
  -2307212.809 5  -1802066.842 5  23949783.820       -3878.834
 -14976627.379 7 -11685602.775 6  21854183.483       -2645.259
 -28437057.545 6 -13276801.577 5  21860622.515        2775.515
 93  5  8  6 45 59.9990000  0  8 23 21 17 22 26  1 28  3            -0.000617440
 -19079087.073 8 -14875306.192 9  20366479.080         459.273
 -17890247.170 7 -13938270.261 7  21062504.492       -1755.835
 -19727885.694 7 -14852378.410 8  20867003.834        1099.244
  -7165717.012 5  -5573542.073 5  24074722.294        2046.760
  -3602390.030 6  -2809809.688 5  23703013.794        2559.718
  -2423550.606 5  -1892719.684 5  23927645.596       -3876.979
 -15055760.246 7 -11747264.742 6  21839125.017       -2630.535
 -28353561.558 6 -13211739.793 5  21876511.044        2790.505
 93  5  8  6 46 29.9990000  0  8 23 21 17 22 26  1 28  3            -0.000620440
 -19065140.232 8 -14864438.520 9  20369132.911         470.686
 -17942768.382 7 -13979195.864 7  21052509.991       -1745.306
 -19694778.851 7 -14826580.853 8  20873303.841        1108.089
  -7104236.391 5  -5525635.066 5  24086421.610        2052.196
  -3525441.998 6  -2749850.186 5  23717656.746        2570.421
  -2539830.750 5  -1983327.534 5  23905518.533       -3874.797
 -15134457.622 7 -11808587.361 6  21824149.406       -2615.797
 -28269619.843 6 -13146330.693 5  21892484.558        2805.509
 93  5  8  6 46 59.9990000  0  8 23 21 17 22 26  1 28  3            -0.000623430
 -19050853.758 8 -14853306.203 9  20371851.560         481.767
 -17994976.482 7 -14019877.463 7  21042575.099       -1735.283
 -19661400.649 7 -14800571.878 8  20879655.416        1117.271
  -7042590.751 5  -5477599.493 5  24098152.914        2057.538
  -3448162.462 6  -2689632.389 5  23732362.342        2581.684
  -2656044.941 5  -2073884.026 5  23883404.562       -3872.809
 -15212712.438 7 -11869565.146 6  21809258.015       -2601.105
 -28185230.883 6 -13080573.056 5  21908543.663        2820.262
 93  5  8  6 47 29.9990000  0  8 23 21 17 22 26  1 28  3            -0.000626430
 -19036241.089 8 -14841919.706 9  20374632.217         492.392
 -18046887.251 7 -14060327.410 7  21032696.778       -1725.390
 -19627740.758 7 -14774343.398 8  20886060.730        1126.827
  -6980788.864 5  -5429442.293 5  24109913.020        2062.559
  -3370535.753 6  -2629144.082 5  23747134.342        2593.499
  -2772203.755 5  -2164397.375 5  23861299.967       -3870.988
 -15290529.346 7 -11930201.687 6  21794449.897       -2586.614
 -28100397.927 6 -13014469.445 5  21924686.944        2835.073
 93  5  8  6 47 59.9990000  0  8 23 21 17 22 26  1 28  3            -0.000629420
 -19021317.641 8 -14830291.053 9  20377472.040         502.474
 -18098498.903 7 -14100544.270 7  21022875.395       -1715.245
 -19593791.861 7 -14747889.718 8  20892521.098        1136.245
  -6918828.238 5  -5381161.210 5  24121705.292        2068.431
  -3292551.039 6  -2568376.760 5  23761974.018        2605.517
  -2888299.163 5  -2254861.265 5  23839207.311       -3868.655
 -15367914.725 7 -11990501.977 6  21779723.880       -2572.478
 -28015122.589 6 -12948021.155 5  21940914.230        2849.807
 93  5  8  6 48 29.9990000  0  8 23 21 17 22 26  1 28  3            -0.000632400
 -19006103.369 8 -14818435.778 9  20380367.376         511.885
 -18149814.213 7 -14140530.191 7  21013110.336       -1705.530
 -19559571.578 7 -14721224.552 8  20899032.952        1145.309
  -6856690.258 5  -5332741.963 5  24133529.611        2074.295
  -3214211.161 6  -2507332.710 5  23776881.657        2617.209
  -3004331.121 5  -2345275.801 5  23817127.066       -3866.616
 -15444879.291 7 -12050474.369 6  21765078.251       -2558.103
 -27929412.149 6 -12881233.834 5  21957224.101        2864.128
 93  5  8  6 48 59.9990000  0  8 23 21 17 22 26  1 28  3            -0.000635360
 -18990618.698 8 -14806369.802 9  20383314.105         520.454
 -18200830.069 7 -14180282.789 7  21003402.578       -1695.605
 -19525076.911 7 -14694345.615 8  20905597.135        1154.256
  -6794376.923 5  -5284186.198 5  24145386.698        2079.878
  -3135527.924 6  -2446021.144 5  23791854.763        2628.287
  -3120305.581 5  -2435645.482 5  23795056.905       -3864.887
 -15521400.860 7 -12110101.547 6  21750516.531       -2543.289
 -27843269.051 6 -12814109.351 5  21973616.995        2878.549
 93  5  8  6 49 29.9990000  0  8 23 21 17 22 26  1 28  3            -0.000638300
 -18974880.196 8 -14794106.033 9  20386309.140         528.943
 -18251550.416 7 -14219805.120 7  20993750.580       -1685.648
 -19490322.492 7 -14667264.250 8  20912210.588        1162.723
  -6731897.604 5  -5235501.096 5  24157275.803        2085.528
  -3056523.692 6  -2384459.406 5  23806888.857        2638.683
  -3236224.745 5  -2525972.083 5  23772999.137       -3862.864
 -15597478.677 7 -12169382.957 6  21736039.185       -2528.382
 -27756696.132 6 -12746649.935 5  21990091.387        2892.852
 93  5  8  6 49 59.9990000  0  8 23 21 17 22 26  1 28  3            -0.000641240
 -18958883.136 8 -14781640.802 9  20389353.144         537.516
 -18301972.600 7 -14259095.113 7  20984155.512       -1675.752
 -19455313.652 7 -14639984.642 8  20918872.416        1171.151
  -6669244.781 5  -5186680.677 5  24169199.223        2091.400
  -2977218.712 6  -2322663.340 5  23821980.263        2648.210
  -3352080.241 5  -2616249.083 5  23750953.042       -3860.896
 -15673103.430 7 -12228311.335 6  21721648.245       -2513.150
 -27669691.613 6 -12678854.221 5  22006647.434        2907.130
 93  5  8  6 50 29.9990000  0  8 23 21 17 22 26  1 28  3            -0.000644180
 -18942626.738 8 -14768973.472 9  20392446.792         546.515
 -18352091.604 7 -14298148.851 7  20974618.375       -1665.364
 -19420053.564 7 -14612509.244 8  20925582.131        1179.712
  -6606419.030 5  -5137725.445 5  24181155.189        2097.126
  -2897628.652 6  -2260645.159 5  23837125.989        2657.880
  -3467874.547 5  -2706478.393 5  23728917.297       -3858.724
 -15748265.123 7 -12286878.883 6  21707345.516       -2497.509
 -27582258.795 6 -12610724.759 5  22023285.159        2921.573
 93  5  8  6 50 59.9990000  0  8 23 21 17 22 26  1 28  3            -0.000647130
 -18926092.968 8 -14756090.013 9  20395592.954         555.812
 -18401895.113 7 -14336956.777 7  20965140.916       -1655.101
 -19384540.384 7 -14584836.636 8  20932340.003        1187.808
  -6543430.554 5  -5088643.496 5  24193141.857        2101.925
  -2817749.049 6  -2198401.351 5  23852326.278        2667.481
  -3583606.421 5  -2796659.041 5  23706893.931       -3856.737
 -15822970.209 7 -12345090.638 6  21693129.798       -2483.033
 -27494396.129 6 -12542260.369 5  22040004.963        2935.657
 93  5  8  6 51 29.9990000  0  8 23 21 17 22 26  1 28  3            -0.000650090
 -18909258.211 8 -14742972.031 9  20398796.477         566.337
 -18451391.781 7 -14375525.579 7  20955722.045       -1644.816
 -19348779.082 7 -14556970.691 8  20939145.182        1196.237
  -6480291.371 5  -5039444.151 5  24205155.694        2107.160
  -2737569.122 5  -2135923.463 5  23867583.958        2677.861
  -3699262.623 5  -2886780.737 5  23684885.387       -3853.855
 -15897242.129 7 -12402964.862 6  21678996.184       -2468.549
 -27406105.569 6 -12473462.515 5  22056805.983        2949.986
 93  5  8  6 51 59.9990000  0  8 23 21 17 22 26  1 28  3            -0.000653050
 -18892109.876 8 -14729609.695 9  20402059.709         576.969
 -18500580.042 7 -14413854.066 7  20946361.846       -1634.239
 -19312762.660 7 -14528905.950 8  20945998.757        1204.924
  -6417001.124 5  -4990127.093 5  24217198.970        2112.122
  -2657074.024 5  -2073200.060 5  23882901.315        2688.736
  -3814834.689 5  -2976836.880 5  23662893.371       -3850.964
 -15971080.948 7 -12460501.594 6  21664945.120       -2453.890
 -27317386.892 6 -12404331.106 5  22073688.813        2964.365
 93  5  8  6 52 29.9990000  0  8 23 21 17 22 26  1 28  3            -0.000656000
 -18874638.385 8 -14715995.535 9  20405384.457         588.113
 -18549455.541 7 -14451938.855 7  20937061.134       -1624.028
 -19276494.358 7 -14500644.955 7  20952900.390        1213.185
  -6353573.732 5  -4940703.067 5  24229269.064        2116.480
  -2576243.875 5  -2010215.564 5  23898282.878        2700.038
  -3930320.922 5  -3066826.140 5  23640916.782       -3847.861
 -16044488.923 7 -12517702.607 6  21650975.952       -2439.692
 -27228243.573 6 -12334868.813 5  22090652.571        2978.441
 93  5  8  6 52 59.9990000  0  8 23 21 17 22 26  1 28  3            -0.000658950
 -18856827.538 8 -14702116.969 9  20408773.720         599.193
 -18598024.766 7 -14489784.986 7  20927818.673       -1613.972
 -19239977.438 7 -14472190.215 7  20959849.578        1221.494
  -6290017.696 5  -4891178.843 5  24241363.743        2120.697
  -2495075.064 5  -1946967.121 5  23913728.790        2711.232
  -4045709.064 5  -3156738.993 5  23618959.865       -3844.550
 -16117462.542 7 -12574565.164 6  21637089.513       -2425.027
 -27138674.194 6 -12265074.490 5  22107696.890        2992.648
 93  5  8  6 53 29.9990000  0  8 23 21 17 22 26  1 28  3            -0.000661890
 -18838691.668 8 -14687985.114 9  20412225.060         609.750
 -18646300.264 7 -14527402.225 7  20918632.211       -1604.265
 -19203207.707 7 -14443538.478 7  20966846.684        1230.014
  -6226336.354 5  -4841557.027 5  24253481.916        2124.920
  -2413573.818 5  -1883459.659 5  23929237.832        2721.865
  -4160999.281 5  -3246575.480 5  23597019.798       -3841.554
 -16189979.124 7 -12631071.585 6  21623290.388       -2409.383
 -27048683.566 6 -12194951.930 5  22124821.204        3006.569
 93  5  8  6 53 59.9990000  0  8 23 21 17 22 26  1 28  3            -0.000664830
 -18820251.543 8 -14673616.189 9  20415734.092         619.608
 -18694282.903 7 -14564791.269 7  20909501.413       -1594.427
 -19166177.205 7 -14414683.530 7  20973893.427        1238.636
  -6162532.861 5  -4791840.076 5  24265623.032        2128.638
  -2331767.959 5  -1819714.827 5  23944805.489        2731.577
  -4276205.560 5  -3336346.591 5  23575096.463       -3838.902
 -16262023.303 7 -12687209.909 6  21609580.857       -2393.450
 -26958280.391 6 -12124507.874 5  22142024.276        3020.129
 93  5  8  6 54 29.9990000  0  8 23 21 17 22 26  1 28  3            -0.000667780
 -18801510.892 8 -14659013.086 9  20419300.141         629.638
 -18741963.841 7 -14601945.234 7  20900428.056       -1584.408
 -19128887.400 7 -14385626.560 7  20980989.394        1247.385
  -6098609.462 5  -4742029.603 5  24277787.942        2132.903
  -2249678.191 5  -1755748.861 5  23960426.938        2740.841
  -4391323.044 5  -3426048.563 5  23553190.832       -3835.659
 -16333578.910 7 -12742967.524 6  21595964.465       -2376.922
 -26867466.052 6 -12053743.501 5  22159306.013        3033.863
 93  5  8  6 54 59.9990000  0  8 23 21 17 22 26  1 28  3            -0.000670740
 -18782486.725 8 -14644189.054 9  20422920.284         638.371
 -18789343.034 7 -14638864.051 7  20891412.246       -1574.393
 -19091328.128 7 -14356359.595 7  20988136.886        1256.517
  -6034556.497 5  -4692118.140 5  24289976.736        2136.963
  -2167321.930 5  -1691575.149 5  23976099.075        2749.515
  -4506340.857 6  -3515672.812 5  23531303.425       -3832.358
 -16404638.653 7 -12798338.736 6  21582442.096       -2360.546
 -26776237.685 6 -11982656.482 5  22176666.663        3047.694
 93  5  8  6 55 29.9990000  0  8 23 21 17 22 26  1 28  3            -0.000673720
 -18763204.072 8 -14629163.619 9  20426589.657         647.105
 -18836425.516 7 -14675551.679 7  20882452.599       -1564.359
 -19053489.105 7 -14326874.638 7  20995337.420        1265.932
  -5970388.889 5  -4642117.408 5  24302187.531        2140.795
  -2084711.544 5  -1627203.401 5  23991819.115        2757.651
  -4621260.388 6  -3605220.499 5  23509435.546       -3828.977
 -16475205.966 7 -12853326.246 6  21569013.322       -2344.184
 -26684599.644 6 -11911250.209 5  22194104.633        3061.314
 93  5  8  6 55 59.9990000  0  8 23 21 17 22 26  1 28  3            -0.000676710
 -18743664.023 8 -14613937.595 9  20430307.942         655.758
 -18883202.543 7 -14712001.307 7  20873551.221       -1554.039
 -19015381.091 7 -14297180.080 7  21002589.121        1274.486
  -5906114.634 5  -4592033.646 5  24314418.284        2144.197
  -2001859.850 5  -1562643.727 5  24007585.543        2765.913
  -4736075.747 6  -3694687.005 5  23487587.159       -3825.210
 -16545296.074 7 -12907941.907 6  21555675.687       -2328.399
 -26592554.696 6 -11839526.878 5  22211619.993        3074.890
 93  5  8  6 56 29.9990000  0  8 23 21 17 22 26  1 28  3            -0.000679720
 -18723860.986 8 -14598506.669 9  20434076.354         664.401
 -18929670.821 7 -14748210.333 7  20864708.642       -1543.899
 -18977018.166 7 -14267286.906 7  21009889.347        1283.229
  -5841735.632 5  -4541868.147 5  24326668.934        2147.623
  -1918751.145 5  -1497883.752 5  24023400.362        2774.678
  -4850770.689 6  -3784059.679 5  23465761.553       -3821.197
 -16614913.246 7 -12962189.058 6  21542428.018       -2312.835
 -26500101.490 6 -11767485.446 5  22229213.317        3088.420
 93  5  8  6 56 59.9990000  0  8 23 21 17 22 26  1 28  3            -0.000682740
 -18703806.731 8 -14582879.981 9  20437892.552         672.789
 -18975843.674 7 -14784189.154 7  20855922.086       -1534.116
 -18938391.805 7 -14237188.438 7  21017239.618        1291.994
  -5777258.609 5  -4491626.242 5  24338938.209        2150.919
  -1835382.096 5  -1432920.871 5  24039264.759        2783.377
  -4965358.486 6  -3873348.894 5  23443955.757       -3817.816
 -16684072.607 7 -13016079.473 6  21529267.378       -2297.408
 -26407249.128 6 -11695132.972 5  22246882.435        3101.631
 93  5  8  6 57 29.9990000  0  8 23 21 17 22 26  1 28  3            -0.000685760
 -18683475.157 8 -14567037.199 9  20441761.582         682.655
 -19021714.321 7 -14819932.484 7  20847193.358       -1523.852
 -18899499.541 7 -14206882.777 7  21024640.494        1300.834
  -5712668.567 5  -4441296.282 5  24351229.720        2155.294
  -1751746.262 5  -1367750.164 5  24055180.710        2792.465
  -5079839.688 6  -3962554.982 5  23422170.542       -3814.172
 -16752752.327 7 -13069596.134 6  21516198.217       -2281.278
 -26313994.867 6 -11622467.337 5  22264628.340        3115.034
 93  5  8  6 57 59.9990000  0  8 23 21 17 22 26  1 28  3            -0.000688770
 -18662850.720 8 -14550966.215 9  20445686.166         692.091
 -19067272.480 7 -14855432.341 7  20838523.881       -1513.638
 -18860341.304 7 -14176369.864 7  21032091.887        1309.559
  -5647940.531 5  -4390858.858 5  24363548.053        2159.720
  -1667822.948 5  -1302355.431 5  24071150.964        2802.149
  -5194208.899 6  -4051673.846 5  23400406.634       -3810.710
 -16820943.345 7 -13122731.978 6  21503221.939       -2264.828
 -26220336.587 6 -11549486.865 5  22282450.443        3128.349
 93  5  8  6 58 29.9990000  0  8 23 21 17 22 26  1 28  3            -0.000691780
 -18641941.788 8 -14534673.534 9  20449665.172         701.709
 -19112530.920 7 -14890698.632 7  20829911.221       -1503.665
 -18820907.710 7 -14145642.397 7  21039595.901        1319.285
  -5583074.623 5  -4340314.067 4  24375890.483        2164.585
  -1583605.823 5  -1236731.719 5  24087176.717        2812.163
  -5308477.917 5  -4140714.625 5  23378661.441       -3807.286
 -16888628.853 7 -13175473.943 6  21490341.866       -2247.514
 -26126279.490 6 -11476195.640 5  22300348.932        3141.804
 93  5  8  6 58 59.9990000  0  8 23 21 17 22 26  1 28  3            -0.000694770
 -18620751.701 8 -14518161.788 9  20453697.569         711.114
 -19157499.779 7 -14925739.268 7  20821354.027       -1494.011
 -18781195.841 7 -14114698.089 7  21047152.838        1328.167
  -5518073.480 5  -4289663.774 5  24388259.369        2168.887
  -1499103.522 5  -1170885.779 5  24103256.784        2821.524
  -5422651.054 6  -4229680.669 5  23356936.007       -3804.166
 -16955802.348 7 -13227816.922 6  21477559.114       -2230.501
 -26031828.556 6 -11402597.555 5  22318322.418        3154.835
 93  5  8  6 59 29.9990000  0  8 23 21 17 22 26  1 28  3            -0.000697750
 -18599272.479 8 -14501424.720 9  20457785.130         720.498
 -19202168.275 7 -14960545.881 7  20812853.822       -1483.942
 -18741213.361 7 -14083542.898 7  21054761.342        1337.109
  -5452948.505 5  -4238916.978 5  24400653.162        2172.438
  -1414311.157 6  -1104813.853 5  24119391.565        2831.212
  -5536721.287 5  -4318566.566 5  23335229.426       -3800.702
 -17022462.668 7 -13279760.024 6  21464874.007       -2213.755
 -25936982.010 6 -11328691.118 5  22336371.132        3167.863
 93  5  8  6 59 59.9990000  0  8 23 21 17 22 26  1 28  3            -0.000700720
 -18577525.346 8 -14484478.916 9  20461923.476         729.408
 -19246532.142 7 -14995115.105 7  20804411.575       -1473.612
 -18700965.128 7 -14052180.646 7  21062420.440        1346.103
  -5387729.435 5  -4188096.826 5  24413063.924        2175.459
  -1329231.778 6  -1038518.257 5  24135581.807        2840.434
  -5650685.637 5  -4407369.930 5  23313542.342       -3796.872
 -17088621.084 7 -13331312.026 6  21452284.444       -2196.733
 -25841745.582 6 -11254480.931 5  22354494.275        3181.001
 93  5  8  7  0 29.9990000  0  8 23 21 17 22 26  1 28  3            -0.000703690
 -18555501.284 8 -14467317.303 9  20466114.284         738.713
 -19290581.097 7 -15029438.956 7  20796029.319       -1463.045
 -18660446.814 7 -14020607.934 7  21070130.801        1354.956
  -5322417.134 5  -4137204.038 5  24425492.363        2178.630
  -1243886.592 6   -972015.516 5  24151822.476        2849.213
  -5764520.931 5  -4496072.759 5  23291880.527       -3792.166
 -17154271.304 7 -13382468.042 6  21439791.612       -2180.215
 -25746115.025 6 -11179963.670 5  22372692.219        3194.044
 93  5  8  7  0 59.9990000  0  8 23 21 17 22 26  1 28  3            -0.000706670
 -18533205.813 8 -14449944.218 9  20470356.947         747.566
 -19334309.605 7 -15063513.106 7  20787708.230       -1452.143
 -18619672.396 7 -13988835.660 7  21077890.210        1363.239
  -5257018.588 5  -4086244.096 5  24437937.257        2181.211
  -1158278.160 6   -905307.668 5  24168113.099        2858.052
  -5878217.292 6  -4584667.292 5  23270244.145       -3787.498
 -17219438.214 7 -13433247.461 6  21427390.815       -2164.286
 -25650095.332 6 -11105143.131 5  22390963.825        3206.920
 93  5  8  7  1 29.9990000  0  8 23 21 17 22 26  1 28  3            -0.000709650
 -18510644.789 8 -14432364.205 9  20474650.176         756.384
 -19377702.896 7 -15097326.050 7  20779450.836       -1440.917
 -18578642.483 7 -13956864.303 7  21085697.864        1371.986
  -5191544.150 5  -4035225.183 4  24450396.358        2183.793
  -1072402.200 5   -838391.409 5  24184454.939        2866.698
  -5991756.406 6  -4673139.326 5  23248638.343       -3781.793
 -17284115.479 7 -13483645.330 6  21415083.206       -2147.542
 -25553685.100 6 -11030018.285 5  22409310.609        3220.095
 93  5  8  7  1 59.9990000  0  8 23 21 17 22 26  1 28  3            -0.000712630
 -18487827.626 8 -14414584.593 9  20478992.219         764.806
 -19420770.445 7 -15130885.157 7  20771255.249       -1430.396
 -18537356.968 7 -13924693.773 7  21093554.276        1380.427
  -5125990.504 5  -3984144.344 4  24462871.890        2186.421
   -986282.710 5   -771285.337 5  24200842.961        2874.571
  -6105124.153 6  -4761477.804 5  23227065.557       -3776.020
 -17348293.797 7 -13533654.402 6  21402870.452       -2131.008
 -25456890.076 6 -10954593.602 5  22427729.574        3232.706
 93  5  8  7  2 29.9990000  0  8 23 21 17 22 26  1 28  3            -0.000715620
 -18464753.764 8 -14396604.965 9  20483382.989         773.332
 -19463526.992 7 -15164201.945 7  20763118.814       -1420.111
 -18495814.995 7 -13892323.409 7  21101459.374        1388.933
  -5060356.101 5  -3933000.580 4  24475361.805        2188.923
   -899919.895 5   -703989.650 5  24217276.885        2883.116
  -6218321.839 6  -4849683.782 5  23205524.631       -3770.596
 -17411975.091 7 -13583276.190 6  21390752.222       -2114.499
 -25359713.822 6 -10878871.877 5  22446221.870        3245.435
 93  5  8  7  2 59.9990000  0  8 23 21 17 22 26  1 28  3            -0.000718610
 -18441430.120 8 -14378430.700 9  20487821.356         782.015
 -19505977.258 7 -15197280.059 7  20755040.645       -1409.618
 -18454018.669 7 -13859754.852 7  21109412.838        1397.709
  -4994660.850 5  -3881809.359 5  24487862.522        2191.019
   -813298.218 5   -636492.295 5  24233760.903        2891.771
  -6331361.298 6  -4937766.452 5  23184013.472       -3765.180
 -17475154.633 7 -13632506.996 6  21378729.472       -2097.085
 -25262159.889 6 -10802855.836 5  22464785.987        3258.171
 93  5  8  7  3 29.9990000  0  9 23 21 17 22 31 26  1 28  3         -0.000721600
 -18417834.536 8 -14360044.533 9  20492311.389         791.189
 -19548120.508 7 -15230118.927 7  20747021.075       -1399.815
 -18411956.317 7 -13826978.992 7  21117417.017        1406.637
  -4928900.614 5  -3830567.591 5  24500377.407        2193.428
  -4812339.08215  -3766966.16615  24393419.029       -3419.379
   -726434.840 5   -568806.613 5  24250290.636        2899.298
  -6444238.254 6  -5025722.577 5  23162534.241       -3759.955
 -17537809.565 7 -13681328.999 6  21366806.448       -2079.647
 -25164228.694 6 -10726545.833 5  22483420.912        3270.522
 93  5  8  7  3 59.9990000  0  9 23 21 17 22 31 26  1 28  3         -0.000724600
 -18393960.010 8 -14341441.006 9  20496854.573         800.520
 -19589971.380 7 -15262729.985 7  20739057.038       -1390.209
 -18369623.345 7 -13793992.282 7  21125472.579        1415.588
  -4863055.469 5  -3779259.570 4  24512906.524        2196.217
  -4914814.502 5  -3846817.073 5  24373918.434       -3412.132
   -639330.049 5   -500932.723 5  24266865.942        2907.740
  -6556964.207 6  -5113560.915 5  23141083.441       -3755.285
 -17599940.365 7 -13729742.623 6  21354983.332       -2062.410
 -25065922.931 6 -10649943.955 5  22502127.829        3282.946
 93  5  8  7  4 29.9990000  0  9 23 21 17 22 31 26  1 28  3         -0.000727600
 -18369805.246 8 -14322619.120 9  20501451.160         809.885
 -19631533.503 7 -15295116.047 7  20731147.975       -1380.559
 -18327028.876 7 -13760801.778 7  21133577.888        1424.160
  -4797130.366 5  -3727889.446 4  24525450.602        2198.803
  -5017073.654 5  -3926499.526 5  24354459.170       -3404.974
   -551969.475 5   -432859.574 5  24283490.247        2916.255
  -6669556.514 6  -5201295.195 5  23119657.776       -3750.929
 -17661555.363 7 -13777754.312 6  21343258.310       -2045.351
 -24967244.881 6 -10573052.021 5  22520905.904        3295.308
 93  5  8  7  4 59.9990000  0  9 23 21 17 22 31 26  1 28  3         -0.000730590
 -18345366.468 8 -14303575.911 9  20506101.702         819.415
 -19672803.527 7 -15327274.471 7  20723294.681       -1370.943
 -18284171.478 7 -13727406.409 7  21141733.332        1432.928
  -4731121.872 5  -3676454.252 3  24538012.058        2201.864
  -5119115.671 5  -4006012.706 5  24335041.104       -3397.858
   -464368.311 5   -364599.024 5  24300160.225        2923.768
  -6782016.683 6  -5288926.480 5  23098257.152       -3746.366
 -17722659.261 7 -13825367.724 6  21331630.719       -2028.178
 -24868197.973 6 -10495872.605 5  22539754.205        3307.538
 93  5  8  7  5 29.9990000  0  9 23 21 17 22 31 26  1 28  3         -0.000733600
 -18320651.280 8 -14284317.326 9  20510804.915         828.080
 -19713800.740 7 -15359220.324 7  20715493.232       -1362.234
 -18241049.547 7 -13693804.921 7  21149939.333        1441.891
  -4665023.296 5  -3624948.832 4  24550590.295        2204.736
  -5220939.379 5  -4085355.805 5  24315664.176       -3390.404
   -376546.622 5   -296166.503 5  24316872.522        2931.192
  -6894345.921 6  -5376455.775 5  23076881.808       -3742.243
 -17783249.977 7 -13872581.283 6  21320100.740       -2011.064
 -24768786.672 6 -10418409.271 5  22558671.644        3319.663
 93  5  8  7  5 59.9990000  0  9 23 21 17 22 31 26  1 28  3         -0.000736600
 -18295689.573 8 -14264866.659 9  20515555.047         836.110
 -19754531.384 7 -15390958.508 7  20707742.528       -1352.968
 -18197661.341 7 -13659995.936 7  21158195.906        1450.825
  -4598849.489 5  -3573384.743 4  24563181.655        2206.746
  -5322539.645 5  -4164524.851 5  24296330.522       -3382.889
   -288501.855 5   -227560.197 5  24333626.990        2938.570
  -7006553.735 6  -5463890.446 5  23055529.139       -3738.186
 -17843326.124 7 -13919393.871 6  21308668.715       -1993.996
 -24669010.829 6 -10340661.867 5  22577658.453        3331.894
 93  5  8  7  6 29.9990000  0  9 23 21 17 22 31 26  1 28  3         -0.000739610
 -18270489.737 8 -14245230.420 9  20520350.547         843.853
 -19794977.396 7 -15422474.844 7  20700045.857       -1343.579
 -18154000.064 7 -13625974.166 7  21166504.466        1459.925
  -4532620.397 5  -3521777.616 5  24575784.630        2208.439
  -5423914.389 5  -4243518.106 5  24277039.614       -3375.464
   -200244.899 5   -158788.657 5  24350421.428        2945.252
  -7118629.578 6  -5551222.272 5  23034201.935       -3733.526
 -17902888.920 7 -13965806.432 7  21297334.442       -1976.810
 -24568872.359 6 -10262631.934 5  22596714.048        3343.799
 93  5  8  7  6 59.9990000  0  9 23 21 17 22 31 26  1 28  3         -0.000742630
 -18245060.436 8 -14225415.377 9  20525189.606         851.329
 -19835139.644 7 -15453770.073 8  20692403.187       -1333.827
 -18110059.295 7 -13591734.603 7  21174866.165        1469.462
  -4466338.058 5  -3470128.899 5  24588397.366        2210.387
  -5525062.486 5  -4322334.720 5  24257791.532       -3367.747
   -111779.035 5    -89854.224 5  24367255.796        2952.499
  -7230555.767 6  -5638437.490 5  23012903.261       -3728.136
 -17961920.807 7 -14011805.292 7  21286101.178       -1958.504
 -24468375.615 6 -10184322.800 5  22615837.473        3355.806
 93  5  8  7  7 29.9990000  0  9 23 21 17 22 31 26  1 28  3         -0.000745640
 -18219414.571 8 -14205431.594 9  20530069.777         858.300
 -19875004.326 7 -15484833.420 8  20684817.168       -1323.669
 -18065833.977 7 -13557273.326 7  21183281.899        1478.737
  -4400010.879 5  -3418445.510 4  24601018.968        2211.269
  -5625978.478 5  -4400970.608 4  24238587.875       -3360.019
    -23087.091 5    -20743.560 5  24384133.390        2960.296
  -7342321.630 6  -5725527.770 5  22991635.222       -3722.995
 -18020403.699 7 -14057376.385 7  21274972.124       -1940.500
 -24367520.310 6 -10105734.282 5  22635029.826        3367.503
 93  5  8  7  7 59.9990000  0  9 23 21 17 22 31 26  1 28  3         -0.000748660
 -18193547.777 8 -14185275.654 9  20534991.940         866.253
 -19914544.165 7 -15515643.680 8  20677293.216       -1312.364
 -18021330.646 7 -13522595.421 7  21191750.705        1488.005
  -4333649.598 5  -3366735.379 4  24613648.112        2212.726
  -5726663.348 5  -4479426.284 4  24219428.496       -3352.295
     65850.430 5     48558.330 5  24401057.667        2968.791
  -7453923.486 6  -5812490.255 5  22970398.167       -3717.136
 -18078347.848 7 -14102527.664 7  21263945.688       -1922.594
 -24266311.652 6 -10026870.378 5  22654289.761        3379.420
 93  5  8  7  8 29.9990000  0  8 23 21 17 31 26  1 28  3            -0.000751710
 -18167434.871 8 -14164927.932 9  20539961.021         874.509
 -19953749.398 7 -15546193.185 8  20669832.714       -1301.607
 -17976555.415 7 -13487705.640 7  21200270.947        1496.815
  -5827110.368 5  -4557696.606 5  24200313.512       -3344.356
    155041.533 5    118057.808 5  24418030.238        2977.005
  -7565343.383 6  -5899310.962 5  22949195.012       -3711.077
 -18135756.310 7 -14147261.530 7  21253021.389       -1904.597
 -24164748.692 6  -9947730.468 5  22673617.103        3391.100
 93  5  8  7  8 59.9990000  0  8 23 21 17 31 26  1 28  3            -0.000754730
 -18141071.321 8 -14144384.907 9  20544977.807         883.005
 -19992633.902 7 -15576492.773 8  20662433.267       -1290.669
 -17931519.106 7 -13452612.398 7  21208841.194        1505.634
  -5927320.074 5  -4635782.040 5  24181243.976       -3336.315
    244471.725 5    187743.693 5  24435048.537        2984.848
  -7676591.855 6  -5985998.087 5  22928025.019       -3705.441
 -18192622.016 7 -14191572.469 7  21242200.202       -1886.623
 -24062836.444 6  -9868318.337 5  22693010.419        3402.753
 93  5  8  7  9 29.9990000  0  8 23 21 17 31 26  1 28  3            -0.000757750
 -18114451.479 8 -14123642.181 9  20550043.472         891.806
 -20031196.925 7 -15606541.879 8  20655094.814       -1280.126
 -17886225.926 7 -13417319.029 7  21217460.328        1513.966
  -6027290.244 5  -4713680.855 5  24162220.364       -3328.288
    334128.676 5    257606.291 5  24452109.423        2992.162
  -7787674.348 6  -6072555.878 5  22906886.844       -3699.870
 -18248960.427 7 -14235472.523 7  21231479.353       -1869.120
 -23960577.460 6  -9788636.038 5  22712469.364        3414.329
 93  5  8  7  9 59.9990000  0  8 23 21 17 31 26  1 28  3            -0.000760770
 -18087567.161 8 -14102693.358 9  20555159.120         900.340
 -20069454.045 7 -15636352.581 8  20647814.566       -1270.630
 -17840680.833 7 -13381829.360 7  21226127.039        1522.391
  -6127015.211 5  -4791388.581 5  24143243.453       -3320.123
    423992.085 5    327629.714 5  24469209.982        2998.385
  -7898578.527 6  -6158974.712 5  22885782.872       -3693.915
 -18304771.572 7 -14278961.742 7  21220858.946       -1851.640
 -23857971.383 6  -9708683.259 5  22731994.706        3425.693
 93  5  8  7 10 29.9990000  0  8 23 21 17 31 26  1 28  3            -0.000763810
 -18060430.848 8 -14081548.179 9  20560323.124         908.773
 -20107434.920 7 -15665948.048 8  20640587.010       -1261.496
 -17794876.293 7 -13346137.499 7  21234843.174        1531.269
  -6226494.498 5  -4868904.882 5  24124313.816       -3311.672
    514029.644 5    397788.840 5  24486343.622        3004.251
  -8009306.988 6  -6245256.645 5  22864711.829       -3687.846
 -18360048.004 7 -14322034.268 7  21210340.087       -1833.292
 -23755022.949 6  -9628463.693 5  22751584.755        3437.336
 93  5  8  7 10 59.9990000  0  8 23 21 17 31 26  1 28  3            -0.000766850
 -18033046.830 8 -14060209.989 9  20565534.335         916.847
 -20145150.924 7 -15695337.148 8  20633409.818       -1252.786
 -17748804.440 7 -13310237.356 7  21243610.455        1540.329
  -6325723.116 5  -4946225.850 5  24105431.542       -3303.424
    604248.263 5    468089.078 5  24503511.647        3010.553
  -8119852.423 6  -6331395.952 5  22843675.761       -3681.606
 -18414775.835 7 -14364679.346 7  21199925.837       -1815.109
 -23651732.003 6  -9547977.294 5  22771240.579        3448.649
 93  5  8  7 11 29.9990000  0  8 23 21 17 31 26  1 28  3            -0.000769900
 -18005428.834 8 -14038689.482 9  20570789.928         924.265
 -20182610.487 7 -15724526.417 8  20626281.502       -1244.535
 -17702466.540 7 -13274129.929 7  21252428.050        1548.904
  -6424702.235 5  -5023352.378 5  24086596.165       -3295.103
    694662.056 5    538541.373 5  24520716.740        3016.809
  -8230207.728 6  -6417387.091 5  22822675.668       -3675.482
 -18468954.439 7 -14406896.446 7  21189616.064       -1796.772
 -23548104.565 6  -9467228.659 5  22790959.889        3459.567
 93  5  8  7 11 59.9990000  0  8 23 21 17 31 26  1 28  3            -0.000772940
 -17977582.891 8 -14016991.335 9  20576088.970         932.139
 -20219812.966 7 -15753515.308 8  20619201.941       -1235.590
 -17655861.236 7 -13237814.119 7  21261296.828        1558.130
  -6523431.682 5  -5100284.365 5  24067808.645       -3286.667
    785264.429 5    609140.614 5  24537958.021        3023.501
  -8340379.189 6  -6503234.998 5  22801710.744       -3669.388
 -18522577.942 7 -14448680.996 7  21179411.798       -1778.088
 -23444145.630 6  -9386221.725 5  22810742.840        3470.812
 93  5  8  7 12 29.9990000  0  8 23 21 17 31 26  1 28  3            -0.000775990
 -17949497.484 8 -13995106.620 9  20581433.490         940.278
 -20256737.561 7 -15782287.702 8  20612175.609       -1225.866
 -17608988.341 7 -13201289.804 7  21270216.705        1566.663
  -6621902.655 5  -5177014.974 5  24049070.143       -3278.058
    876076.024 5    679902.828 5  24555238.633        3030.757
  -8450369.212 6  -6588941.519 5  22780780.214       -3663.111
 -18575635.437 7 -14490024.499 7  21169315.168       -1759.043
 -23339851.775 6  -9304953.779 5  22830589.342        3481.867
 93  5  8  7 12 59.9990000  0  8 23 21 17 31 26  1 28  3            -0.000779040
 -17921173.154 8 -13973035.712 9  20586823.258         948.042
 -20293360.802 7 -15810825.298 8  20605206.413       -1215.512
 -17561862.551 7 -13164568.413 6  21279184.357        1575.158
  -6720113.355 6  -5253542.742 5  24030381.015       -3269.313
    967103.234 5    750833.137 5  24572560.509        3037.796
  -8560168.842 6  -6674499.675 5  22759886.009       -3656.744
 -18628125.857 7 -14530926.126 7  21159326.483       -1740.234
 -23235225.727 6  -9223427.035 5  22850499.282        3492.953
 93  5  8  7 13 29.9990000  0  8 23 21 17 31 26  1 28  3            -0.000782090
 -17892627.508 8 -13950792.346 9  20592255.298         955.112
 -20329670.460 7 -15839118.501 8  20598296.935       -1205.100
 -17514502.124 7 -13127664.203 6  21288196.920        1582.334
  -6818073.952 5  -5329875.636 5  24011739.690       -3261.357
   1058320.717 5    821911.712 5  24589918.486        3043.360
  -8669789.393 6  -6759918.285 5  22739025.602       -3651.163
 -18680068.927 7 -14571401.227 7  21149441.827       -1722.588
 -23130283.137 6  -9141653.588 5  22870468.855        3503.153
 93  5  8  7 13 59.9990000  0  8 23 21 17 31 26  1 28  3            -0.000785160
 -17863847.174 8 -13928366.112 9  20597732.006         963.564
 -20365654.775 7 -15867158.203 8  20591449.357       -1194.019
 -17466905.102 7 -13090575.607 6  21297254.428        1590.693
  -6915779.731 5  -5406009.969 5  23993147.079       -3252.321
   1149722.563 5    893133.931 5  24607311.432        3050.124
  -8779226.486 6  -6845193.902 5  22718200.626       -3644.614
 -18731472.425 7 -14611455.908 7  21139660.227       -1704.303
 -23025023.834 6  -9059633.338 5  22890499.478        3513.922
 93  5  8  7 14 29.9990000  0  8 23 21 17 31 26  1 28  3            -0.000788240
 -17834821.384 8 -13905748.613 9  20603255.373         971.531
 -20401319.584 7 -15894948.971 8  20584662.525       -1183.583
 -17419063.056 7 -13053296.129 6  21306358.404        1598.897
  -7013223.391 6  -5481940.056 5  23974603.973       -3243.670
   1241323.650 5    964511.402 5  24624743.092        3056.638
  -8888462.365 6  -6930312.787 5  22697414.085       -3637.756
 -18782330.490 7 -14651085.577 7  21129982.328       -1686.268
 -22919445.951 6  -8977364.902 5  22910590.229        3524.360
 93  5  8  7 14 59.9990000  0  8 23 21 17 31 26  1 28  3            -0.000791310
 -17805556.836 8 -13882945.077 9  20608823.937         979.378
 -20436675.662 7 -15922499.136 8  20577934.412       -1173.752
 -17370958.034 7 -13015811.702 6  21315512.437        1608.129
  -7110399.384 6  -5557661.562 5  23956111.767       -3234.747
   1333123.541 5   1036043.797 5  24642211.625        3063.322
  -8997492.109 6  -7015271.052 5  22676666.569       -3631.039
 -18832652.955 7 -14690297.881 7  21120406.247       -1668.670
 -22813549.329 6  -8894848.110 5  22930741.594        3535.037
 93  5  8  7 15 29.9990000  0  7 23 21 17 31  1 28  3               -0.000794410
 -17776056.935 8 -13859958.146 9  20614437.871         987.473
 -20471744.696 7 -15949825.635 8  20571261.173       -1164.125
 -17322578.995 7 -12978113.763 6  21324718.597        1617.482
  -7207309.246 6  -5633175.725 5  23937670.607       -3225.680
  -9106325.356 6  -7100076.170 5  22655956.677       -3624.278
 -18882451.501 7 -14729101.951 7  21110929.866       -1650.911
 -22707339.793 6  -8812087.431 5  22950952.475        3545.556
 93  5  8  7 15 59.9990000  0  7 23 21 17 31  1 28  3               -0.000797510
 -17746317.543 8 -13836784.586 9  20620097.264         995.224
 -20506538.887 7 -15976937.968 8  20564640.168       -1155.333
 -17273911.122 7 -12940190.738 6  21333979.503        1627.064
  -7303945.119 6  -5708476.361 5  23919281.425       -3216.594
  -9214954.681 6  -7184722.380 5  22635285.030       -3617.445
 -18931715.324 7 -14767489.352 7  21101555.317       -1633.062
 -22600815.368 6  -8729081.360 5  22971223.330        3555.952
 93  5  8  7 16 29.9990000  0  7 23 21 17 31  1 28  3               -0.000800610
 -17716357.069 8 -13813438.765 9  20625798.517        1002.012
 -20541063.125 7 -16003839.968 8  20558070.215       -1146.155
 -17224962.391 7 -12902048.891 6  21343294.204        1636.214
  -7400306.812 6  -5783563.320 5  23900944.328       -3207.422
  -9323374.527 6  -7269205.398 5  22614653.223       -3610.577
 -18980444.723 7 -14805460.304 7  21092282.286       -1615.588
 -22493980.628 6  -8645833.628 5  22991553.610        3566.123
 93  5  8  7 16 59.9990000  0  7 23 21 17 31  1 28  3               -0.000803710
 -17686197.435 8 -13789937.757 9  20631537.624        1008.667
 -20575308.337 7 -16030524.531 8  20551553.365       -1136.928
 -17175737.869 7 -12863692.129 6  21352661.310        1645.269
  -7496395.104 6  -5858437.241 5  23882658.782       -3198.415
  -9431590.284 6  -7353529.334 5  22594060.388       -3603.703
 -19028646.874 7 -14843020.434 7  21083109.758       -1597.745
 -22386841.445 6  -8562348.591 5  23011941.098        3576.217
 93  5  8  7 17 29.9990000  0  7 23 21 17 31  1 28  3               -0.000806810
 -17655832.679 8 -13766276.900 9  20637316.003        1015.497
 -20609268.429 7 -16056986.929 8  20545091.098       -1127.207
 -17126253.696 7 -12825133.048 6  21362077.731        1653.589
  -7592205.898 6  -5933095.010 5  23864426.265       -3189.098
  -9539582.807 6  -7437679.365 5  22573510.486       -3595.986
 -19076296.339 7 -14880149.881 7  21074042.394       -1579.002
 -22279399.062 6  -8478627.228 5  23032386.756        3586.221
 93  5  8  7 17 59.9990000  0  7 23 21 17 31  1 28  3               -0.000809910
 -17625262.631 8 -13742456.083 9  20643133.355        1022.461
 -20642944.309 8 -16083227.864 8  20538682.766       -1117.818
 -17076512.796 7 -12786373.891 6  21371543.088        1662.413
  -7687737.911 6  -6007535.468 5  23846247.303       -3179.675
  -9647341.967 6  -7521647.500 5  22553004.380       -3587.954
 -19123377.823 7 -14916836.758 7  21065083.106       -1559.767
 -22171656.999 6  -8394672.404 5  23052889.541        3596.287
 93  5  8  7 18 29.9990000  0  7 23 21 17 31  1 28  3               -0.000813010
 -17594485.850 8 -13718474.177 9  20648989.982        1029.375
 -20676332.468 7 -16109244.581 8  20532329.104       -1108.109
 -17026505.262 7 -12747407.000 6  21381059.580        1671.526
  -7782980.945 6  -6081750.776 5  23828123.054       -3169.852
  -9754858.081 6  -7605426.304 5  22532544.795       -3579.851
 -19169872.288 7 -14953066.190 7  21056235.402       -1539.801
 -22063610.112 6  -8310480.083 5  23073450.442        3606.452
 93  5  8  7 18 59.9990000  0  7 23 21 17 31  1 28  3               -0.000816110
 -17563490.641 8 -13694322.068 9  20654888.108        1037.178
 -20709435.778 7 -16135039.352 8  20526029.775       -1098.764
 -16976225.177 7 -12708227.725 6  21390627.508        1680.533
  -7877932.141 6  -6155738.703 5  23810054.562       -3159.978
  -9862131.775 6  -7689016.201 5  22512131.058       -3571.673
 -19215755.102 7 -14988819.046 7  21047504.415       -1518.862
 -21955260.931 6  -8226052.176 5  23094068.669        3616.665
 93  5  8  7 19 29.9990000  0  7 23 21 17 31  1 28  3               -0.000819210
 -17532265.563 8 -13669990.837 9  20660829.816        1044.561
 -20742256.413 7 -16160613.858 8  20519784.229       -1089.149
 -16925675.078 7 -12668838.038 6  21400247.057        1689.712
  -7972587.282 6  -6229495.899 5  23792042.514       -3150.251
  -9969162.385 6  -7772416.660 5  22491763.475       -3563.717
 -19261009.668 7 -15024082.333 7  21038892.656       -1498.190
 -21846610.946 6  -8141389.872 5  23114744.104        3626.582
 93  5  8  7 19 59.9990000  0  7 23 21 17 31  1 28  3               -0.000822320
 -17500822.264 8 -13645489.560 9  20666813.143        1051.774
 -20774794.410 7 -16185968.133 8  20513592.295       -1079.906
 -16874846.878 7 -12629231.658 6  21409919.332        1698.820
  -8066947.716 6  -6303023.459 5  23774086.296       -3140.314
 -10075968.333 6  -7855642.058 5  22471438.966       -3556.445
 -19305656.251 7 -15058871.880 7  21030396.679       -1478.153
 -21737665.955 6  -8056497.680 5  23135475.524        3636.326
 93  5  8  7 20 29.9990000  0  7 23 21 17 31  1 28  3               -0.000825440
 -17469164.758 8 -13620821.392 9  20672837.391        1058.834
 -20807043.400 7 -16211097.193 8  20507455.704       -1069.946
 -16823757.558 7 -12589421.805 6  21419641.090        1707.189
  -8161010.831 6  -6376319.355 5  23756186.225       -3130.622
 -10182557.352 6  -7938698.437 5  22451155.247       -3549.500
 -19349701.900 7 -15093193.167 7  21022015.251       -1458.445
 -21628428.426 6  -7971377.587 5  23156262.810        3645.868
 93  5  8  7 20 59.9990000  0  7 23 21 17 31  1 28  3               -0.000828570
 -17437284.052 8 -13595979.277 9  20678904.112        1066.389
 -20838984.104 7 -16235986.047 8  20501377.601       -1059.475
 -16772408.070 7 -12549409.225 6  21429412.577        1716.091
  -8254775.820 5  -6449382.981 5  23738343.756       -3120.434
 -10288931.022 6  -8021586.985 5  22430913.031       -3542.111
 -19393164.592 7 -15127060.209 7  21013744.607       -1439.154
 -21518903.530 6  -7886033.538 5  23177105.094        3655.538
 93  5  8  7 21 29.9990000  0  7 23 21 17 31  1 28  3               -0.000831710
 -17405181.981 8 -13570964.681 9  20685012.871        1073.775
 -20870611.556 7 -16260630.798 8  20495359.188       -1049.067
 -16720784.071 7 -12509182.734 6  21439236.346        1725.475
  -8348234.553 6  -6522207.878 5  23720559.001       -3110.150
 -10395079.727 6  -8104300.276 5  22410714.033       -3534.453
 -19436056.073 7 -15160482.140 7  21005582.947       -1420.316
 -21409087.597 6  -7800462.662 5  23198002.209        3665.249
 93  5  8  7 21 59.9990000  0  7 23 21 17 31  1 28  3               -0.000834860
 -17372851.397 8 -13545772.019 9  20691165.234        1081.467
 -20901936.051 7 -16285039.471 8  20489398.357       -1039.367
 -16668880.883 7 -12468738.711 6  21449113.048        1734.551
  -8441383.787 6  -6594791.690 5  23702833.037       -3100.016
 -10500994.968 6  -8186831.586 5  22390559.438       -3526.683
 -19478380.725 7 -15193462.381 7  20997528.794       -1401.373
 -21298983.147 6  -7714667.009 5  23218954.022        3674.609
 93  5  8  7 22 29.9990000  0  7 23 21 17 31  1 28  3               -0.000838010
 -17340297.115 8 -13520405.064 9  20697360.177        1088.916
 -20932966.104 7 -16309218.715 8  20483493.503       -1029.387
 -16616704.632 7 -12428081.885 6  21459042.235        1743.974
  -8534227.923 6  -6667137.727 5  23685165.631       -3089.626
 -10606679.273 6  -8269182.989 5  22370448.802       -3519.008
 -19520135.516 7 -15225998.570 7  20989583.215       -1382.297
 -21188599.734 6  -7628654.052 5  23239959.264        3683.982
 93  5  8  7 22 59.9990000  0  7 23 21 17 31  1 28  3               -0.000841160
 -17307512.269 8 -13494858.421 9  20703598.958        1096.338
 -20963700.392 7 -16333167.516 8  20477645.013       -1019.835
 -16564236.506 7 -12387197.631 6  21469026.600        1753.578
  -8626756.340 6  -6739237.738 5  23667558.209       -3079.021
 -10712124.501 6  -8351348.107 5  22350383.410       -3510.981
 -19561310.362 7 -15258082.883 7  20981747.827       -1362.713
 -21077931.511 6  -7542419.086 5  23261018.895        3693.531
 93  5  8  7 23 29.9990000  0  7 23 21 17 31  1 28  3               -0.000844310
 -17274522.345 8 -13469151.976 9  20709876.761        1103.052
 -20994163.161 7 -16356904.716 8  20471848.094       -1010.776
 -16511502.102 7 -12346105.886 6  21479061.695        1762.056
  -8718973.456 6  -6811095.212 5  23650009.871       -3068.699
 -10817346.205 6  -8433339.009 5  22330360.123       -3503.729
 -19601902.208 7 -15289712.884 7  20974023.216       -1343.236
 -20966988.214 6  -7455969.762 5  23282130.523        3702.587
 93  5  8  7 23 59.9990000  0  7 23 21 17 31  1 28  3               -0.000847470
 -17241333.653 8 -13443290.669 9  20716192.359        1109.427
 -21024344.192 7 -16380422.384 8  20466104.751       -1001.200
 -16458516.660 7 -12304818.543 6  21489144.326        1770.385
  -8810874.019 6  -6882705.979 5  23632521.514       -3058.005
 -10922355.830 6  -8515164.708 5  22310377.167       -3496.815
 -19641907.932 7 -15320886.169 7  20966410.187       -1323.720
 -20855770.247 6  -7369306.458 5  23303295.045        3711.665
 93  5  8  7 24 29.9990000  0  7 23 21 17 31  1 28  3               -0.000850630
 -17207962.291 8 -13417287.012 9  20722542.622        1115.517
 -21054229.292 7 -16403709.482 8  20460417.787        -991.154
 -16405275.902 7 -12263332.242 6  21499275.502        1778.971
  -8902451.382 6  -6954064.955 5  23615095.013       -3047.042
 -11027148.645 6  -8596821.409 5  22290435.482       -3489.278
 -19681319.430 7 -15351596.428 7  20958910.549       -1303.573
 -20744275.277 6  -7282427.298 5  23324512.017        3721.080
 93  5  8  7 24 59.9990000  0  7 23 21 17 31  1 28  3               -0.000853780
 -17174407.565 8 -13391140.471 9  20728927.702        1121.586
 -21083824.778 7 -16426770.887 8  20454785.896        -981.668
 -16351784.253 7 -12221650.438 6  21509454.875        1787.318
  -8993700.973 6  -7025168.507 5  23597730.682       -3036.028
 -11131708.850 6  -8678296.893 6  22270538.636       -3481.247
 -19720133.372 7 -15381841.059 7  20951524.372       -1283.759
 -20632504.483 6  -7195333.194 5  23345780.732        3730.191
 93  5  8  7 25 29.9990000  0  7 23 21 17 31  1 28  3               -0.000856940
 -17140665.635 8 -13364848.061 9  20735348.428        1128.138
 -21113132.064 7 -16449607.735 8  20449208.867        -972.071
 -16298034.083 7 -12179767.196 6  21519683.102        1796.335
  -9084618.159 6  -7096013.043 5  23580429.541       -3024.859
 -11236021.146 6  -8759579.197 6  22250688.252       -3472.554
 -19758343.743 7 -15411615.366 7  20944253.306       -1263.518
 -20520458.547 5  -7108024.679 5  23367102.329        3739.457
 93  5  8  7 25 59.9990000  0  7 23 21 17 31  1 28  3               -0.000860080
 -17106721.486 8 -13338398.072 9  20741807.606        1134.749
 -21142152.030 7 -16472220.694 8  20443686.519        -962.891
 -16244000.977 7 -12137663.502 6  21529965.094        1805.894
  -9175196.736 6  -7166593.729 5  23563193.032       -3013.632
 -11340054.482 6  -8840644.101 6  22230891.125       -3462.933
 -19795947.812 7 -15440917.243 7  20937097.489       -1243.459
 -20408136.377 6  -7020501.029 4  23388477.032        3748.430
 93  5  8  7 26 29.9990000  0  7 23 21 17 31  1 28  3               -0.000863210
 -17072574.532 8 -13311790.040 9  20748305.687        1141.819
 -21170905.901 7 -16494626.296 8  20438214.788        -954.190
 -16189678.895 7 -12095334.587 6  21540302.319        1815.348
  -9265439.200 6  -7236912.441 5  23546020.370       -3002.470
 -11443784.155 6  -8921472.431 6  22211152.071       -3452.483
 -19832953.014 7 -15469752.466 7  20930055.773       -1223.767
 -20295545.168 6  -6932767.630 4  23409902.582        3757.311
 93  5  8  7 26 59.9990000  0  7 23 21 17 31  1 28  3               -0.000866330
 -17038208.784 8 -13285011.544 9  20754845.399        1149.163
 -21199398.711 7 -16516828.474 8  20432792.752        -945.337
 -16135079.332 7 -12052789.485 6  21550691.969        1824.564
  -9355342.462 6  -7306966.980 5  23528912.444       -2991.182
 -11547203.817 6  -9002059.177 6  22191472.033       -3442.280
 -19869376.174 7 -15498134.142 7  20923124.442       -1204.424
 -20182687.872 6  -6844826.861 5  23431378.695        3766.105
 93  5  8  7 27 29.9990000  0  7 23 21 17 31  1 28  3               -0.000869440
 -17003628.220 8 -13258065.649 9  20761425.984        1156.248
 -21227621.830 7 -16538820.515 8  20427422.060        -936.208
 -16080202.923 7 -12010028.641 6  21561134.546        1833.827
  -9444903.714 6  -7376754.926 5  23511869.499       -2979.600
 -11650317.891 6  -9082407.800 6  22171850.285       -3432.094
 -19905209.397 7 -15526056.129 7  20916305.633       -1184.592
 -20069566.663 6  -6756680.498 5  23452904.803        3775.046
 93  5  8  7 27 59.9990000  0  7 23 21 17 31  1 28  3               -0.000872540
 -16968844.858 8 -13230961.737 9  20768044.992        1162.750
 -21255579.176 7 -16560605.466 8  20422101.983        -927.330
 -16025060.056 7 -11967060.164 6  21571628.311        1842.357
  -9534124.580 6  -7446277.644 5  23494891.184       -2968.361
 -11753142.725 6  -9162531.039 6  22152283.404       -3422.810
 -19940461.446 7 -15553525.259 7  20909597.335       -1165.373
 -19956188.108 6  -6668333.592 5  23474480.017        3783.390
 93  5  8  7 28 29.9990000  0  7 23 21 17 31  1 28  3               -0.000875640
 -16933855.963 8 -13203697.650 9  20774703.190        1169.802
 -21283251.414 7 -16582168.227 8  20416836.118        -917.488
 -15969661.871 7 -11923892.752 6  21582170.393        1850.750
  -9622999.605 6  -7515530.913 5  23477978.573       -2956.777
 -11855688.553 6  -9242436.864 6  22132769.802       -3413.773
 -19975123.365 7 -15580534.553 7  20903001.593       -1145.358
 -19842552.161 6  -6579786.163 5  23496104.046        3791.955
 93  5  8  7 28 59.9990000  0  7 23 21 17 31  1 28  3               -0.000878750
 -16898653.920 8 -13176267.485 9  20781401.984        1176.898
 -21310619.152 7 -16603493.735 8  20411628.292        -906.938
 -15914006.635 7 -11880525.051 6  21592761.532        1859.755
  -9711527.483 6  -7584513.654 5  23461131.996       -2945.153
 -11957970.042 6  -9322136.719 6  22113306.000       -3404.915
 -20009170.962 7 -15607065.149 7  20896522.310       -1124.248
 -19728662.833 5  -6491041.244 5  23517776.602        3800.270
 93  5  8  7 29 29.9990000  0  7 23 21 17 31  1 28  3               -0.000881880
 -16863244.211 8 -13148675.507 9  20788140.391        1183.869
 -21337669.635 7 -16624572.040 8  20406480.876        -896.372
 -15858071.693 7 -11836939.402 6  21603405.633        1869.414
  -9799706.377 6  -7653224.464 5  23444352.271       -2933.399
 -12059983.033 6  -9401627.385 6  22093893.295       -3395.880
 -20042579.889 7 -15633098.076 7  20890164.909       -1103.083
 -19614523.370 6  -6402101.436 5  23539495.935        3808.709
 93  5  8  7 29 59.9990000  0  7 23 21 17 31  1 28  3               -0.000885010
 -16827616.043 8 -13120913.301 9  20794920.337        1191.320
 -21364398.793 7 -16645399.937 8  20401394.669        -885.418
 -15801839.479 7 -11793122.094 6  21614105.915        1879.356
  -9887532.239 6  -7721660.137 5  23427639.673       -2921.519
 -12161712.357 6  -9480896.966 6  22074534.616       -3385.868
 -20075356.610 7 -15658638.366 7  20883927.838       -1081.858
 -19500135.057 6  -6312967.654 5  23561263.788        3816.958
 93  5  8  7 30 29.9990000  0  7 23 21 17 31  1 28  3               -0.000888150
 -16791765.787 8 -13092978.036 9  20801742.543        1198.658
 -21390795.562 7 -16665968.838 8  20396371.187        -874.467
 -15745314.099 7 -11749076.356 6  21624862.341        1889.016
  -9975000.831 6  -7789817.526 5  23410995.055       -2909.600
 -12263135.825 6  -9559928.222 6  22055234.620       -3375.786
 -20107489.986 7 -15683677.389 7  20877813.011       -1060.295
 -19385498.973 6  -6223640.965 5  23583078.356        3825.188
 93  5  8  7 30 59.9990000  0  7 23 21 17 31  1 28  3               -0.000891300
 -16755708.259 8 -13064881.260 9  20808604.094        1204.992
 -21416873.597 7 -16686289.387 8  20391408.483        -864.249
 -15688499.093 7 -11704804.928 6  21635673.564        1898.514
 -10062112.588 6  -7857696.784 5  23394418.440       -2897.933
 -12364257.159 6  -9638724.053 6  22035991.811       -3365.766
 -20138982.420 7 -15708216.916 7  20871820.130       -1039.411
 -19270620.642 5  -6134125.399 5  23604938.750        3833.027
 93  5  8  7 31 29.9990000  0  7 23 21 17 31  1 28  3               -0.000894460
 -16719470.426 8 -13036643.985 9  20815499.779        1210.851
 -21442661.205 7 -16706383.625 8  20386501.489        -855.083
 -15631404.934 7 -11660315.985 6  21646538.303        1907.581
 -10148868.387 6  -7925298.678 5  23377908.831       -2885.874
 -12465083.341 6  -9717289.905 6  22016805.053       -3356.197
 -20169859.927 7 -15732277.320 7  20865944.098       -1019.257
 -19155506.001 5  -6044425.651 5  23626844.235        3840.995
 93  5  8  7 31 59.9990000  0  7 23 21 17 31  1 28  3               -0.000897620
 -16683052.478 8 -13008266.367 9  20822429.941        1216.980
 -21468176.107 7 -16726265.356 8  20381646.331        -845.924
 -15574053.254 7 -11615626.388 6  21657452.317        1915.770
 -10235261.435 6  -7992617.912 5  23361468.801       -2873.600
 -12565626.467 6  -9795635.185 6  21997672.508       -3346.635
 -20200134.431 7 -15755867.854 7  20860183.076        -999.050
 -19040153.831 5  -5954540.903 5  23648794.989        3849.027
 93  5  8  7 32 29.9990000  0  7 23 21 17 31  1 28  3               -0.000900760
 -16646460.174 8 -12979752.879 9  20829393.291        1222.618
 -21493425.256 7 -16745940.018 8  20376841.457        -837.416
 -15516467.966 7 -11570754.750 6  21668410.313        1923.475
 -10321287.541 6  -8059651.219 5  23345098.515       -2861.339
 -12665896.946 6  -9873768.017 6  21978591.785       -3337.969
 -20229810.626 7 -15778992.154 7  20854535.925        -979.286
 -18924565.408 5  -5864472.027 5  23670790.803        3856.761
 93  5  8  7 32 59.9990000  0  7 23 21 17 31  1 28  3               -0.000903890
 -16609690.577 8 -12951101.254 9  20836390.256        1228.713
 -21518419.085 7 -16765415.728 8  20372085.629        -828.915
 -15458635.457 7 -11525690.462 6  21679415.462        1931.961
 -10406942.183 6  -8126395.093 5  23328798.946       -2848.953
 -12765895.795 6  -9951689.174 6  21959562.649       -3328.538
 -20258890.584 7 -15801651.865 7  20849001.937        -959.473
 -18808740.276 5  -5774218.714 5  23692831.882        3864.614
 93  5  8  7 33 29.9990000  0  7 23 21 17 31  1 28  3               -0.000907010
 -16572729.766 8 -12922300.629 9  20843423.519        1235.306
 -21543157.841 7 -16784692.676 8  20367377.817        -820.254
 -15400554.497 7 -11480432.609 6  21690468.070        1940.081
 -10492222.887 6  -8192847.574 5  23312570.533       -2836.467
 -12865609.609 7 -10029388.231 6  21940588.128       -3318.877
 -20287379.914 7 -15823851.356 7  20843580.699        -939.877
 -18692682.558 5  -5683784.122 5  23714917.106        3872.223
 93  5  8  7 33 59.9990000  0  7 23 21 17 31  1 28  3               -0.000910130
 -16535574.050 8 -12893348.118 9  20850494.034        1241.715
 -21567626.690 8 -16803759.297 8  20362721.581        -810.976
 -15342229.989 7 -11434984.930 6  21701567.006        1948.335
 -10577132.928 6  -8259011.211 5  23296412.891       -2824.133
 -12965018.314 7 -10106849.530 6  21921671.323       -3308.235
 -20315280.231 7 -15845591.858 7  20838271.496        -920.081
 -18576399.801 5  -5593174.248 5  23737045.095        3879.691
 93  5  8  7 34 29.9990000  0  7 23 21 17 31  1 28  3               -0.000913250
 -16498226.712 8 -12864246.294 9  20857601.055        1248.066
 -21591812.034 7 -16822605.025 8  20358119.178        -801.427
 -15283641.132 7 -11389331.298 6  21712715.862        1957.587
 -10661666.556 6  -8324881.559 5  23280326.637       -2811.497
 -13064098.691 7 -10184055.001 6  21902817.005       -3297.128
 -20342573.495 7 -15866859.336 7  20833077.851        -899.403
 -18459892.144 5  -5502389.088 4  23759215.607        3887.175
 93  5  8  7 34 59.9990000  0  7 23 21 17 31  1 28  3               -0.000916360
 -16460690.226 8 -12834997.092 9  20864743.859        1254.413
 -21615718.854 7 -16841233.720 8  20353569.706        -792.279
 -15224774.989 6 -11343461.584 6  21723917.436        1966.834
 -10745825.007 6  -8390459.563 5  23264311.882       -2798.991
 -13162846.328 7 -10261001.185 6  21884025.755       -3286.003
 -20369247.387 7 -15887644.198 7  20828002.074        -878.838
 -18343165.942 5  -5411433.618 4  23781427.910        3894.313
 93  5  8  7 35 29.9990000  0  7 23 21 17 31  1 28  3               -0.000919480
 -16422961.189 8 -12805597.852 8  20871923.199        1260.763
 -21639341.909 8 -16859641.277 8  20349074.439        -782.767
 -15165630.710 7 -11297375.137 6  21735172.085        1976.272
 -10829605.528 6  -8455743.060 5  23248369.119       -2786.385
 -13261256.890 7 -10337684.716 6  21865298.808       -3274.932
 -20395304.609 7 -15907948.525 7  20823043.717        -858.221
 -18226223.506 5  -5320309.652 4  23803681.125        3901.539
 93  5  8  7 35 59.9990000  0  7 23 21 17 31  1 28  3               -0.000922600
 -16385052.332 8 -12776058.484 9  20879137.164        1266.719
 -21662693.650 7 -16877837.446 8  20344630.735        -773.958
 -15106194.918 7 -11251061.544 6  21746482.576        1986.173
 -10913006.728 6  -8520730.989 5  23232498.356       -2773.656
 -13359343.318 7 -10414115.692 6  21846633.371       -3264.242
 -20420737.223 7 -15927766.154 7  20818204.176        -837.136
 -18109068.403 5  -5229019.982 4  23825974.630        3908.710
 93  5  8  7 36 29.9990000  0  7 23 21 17 31  1 28  3               -0.000925720
 -16346952.148 8 -12746370.038 8  20886387.406        1273.183
 -21685774.748 7 -16895822.708 8  20340238.346        -764.939
 -15046461.761 7 -11204516.247 6  21757849.326        1995.967
 -10996021.234 6  -8585417.608 5  23216701.383       -2760.719
 -13457117.621 7 -10490303.443 6  21828027.708       -3254.121
 -20445525.876 7 -15947081.984 7  20813486.924        -815.648
 -17991698.350 5  -5137562.832 4  23848308.929        3915.690
 93  5  8  7 36 59.9990000  0  7 23 21 17 31  1 28  3               -0.000928830
 -16308656.583 8 -12716529.338 8  20893674.989        1279.611
 -21708587.337 7 -16913598.749 8  20335897.161        -755.833
 -14986434.090 7 -11157741.454 6  21769272.567        2005.836
 -11078647.712 6  -8649801.864 5  23200978.009       -2747.686
 -13554584.364 7 -10566251.533 6  21809480.472       -3243.836
 -20469679.905 7 -15965903.314 7  20808890.685        -794.676
 -17874117.854 5  -5045941.675 4  23870684.361        3922.642
 93  5  8  7 37 29.9990000  0  7 23 21 17 31  1 28  3               -0.000931940
 -16270181.478 8 -12686548.739 8  20900996.851        1285.221
 -21731124.845 7 -16931160.430 8  20331608.411        -746.862
 -14926117.215 7 -11110741.297 6  21780750.301        2015.169
 -11160887.125 6  -8713884.518 5  23185327.809       -2735.048
 -13651753.486 7 -10641967.701 6  21790989.361       -3234.387
 -20493205.863 7 -15984235.230 7  20804413.653        -773.796
 -17756332.810 5  -4954161.167 4  23893097.137        3929.268
 93  5  8  7 37 59.9990000  0  7 23 21 17 31  1 28  3               -0.000935040
 -16231538.623 8 -12656437.415 8  20908350.101        1290.861
 -21753382.559 7 -16948504.100 8  20327372.751        -737.126
 -14865522.585 7 -11063524.702 6  21792281.168        2024.036
 -11242738.586 6  -8777664.829 5  23169752.021       -2722.028
 -13748629.971 7 -10717455.862 6  21772554.125       -3224.298
 -20516093.716 7 -16002069.935 7  20800058.328        -752.395
 -17638347.473 5  -4862224.584 4  23915549.589        3935.919
 93  5  8  7 38 29.9990000  0  7 23 21 17 31  1 28  3               -0.000938160
 -16192720.171 8 -12626189.285 8  20915736.906        1296.830
 -21775340.843 7 -16965614.462 9  20323194.424        -726.934
 -14804674.271 7 -11016110.441 6  21803860.252        2032.520
 -11324201.728 6  -8841142.585 5  23154250.289       -2709.066
 -13845200.757 7 -10792705.798 6  21754177.297       -3213.832
 -20538345.360 7 -16019408.881 7  20795823.591        -731.318
 -17520166.376 5  -4770135.463 4  23938038.797        3942.449
 93  5  8  7 38 59.9990000  0  7 23 21 17 31  1 28  3               -0.000941290
 -16153722.290 8 -12595801.318 8  20923158.228        1302.779
 -21796993.839 7 -16982486.922 8  20319074.468        -716.807
 -14743567.012 7 -10968494.409 6  21815488.490        2041.075
 -11405270.266 6  -8904312.880 5  23138823.586       -2695.781
 -13941449.802 7 -10867705.031 6  21735861.568       -3202.990
 -20559966.269 7 -16036256.344 7  20791708.979        -710.100
 -17401788.928 5  -4677893.265 4  23960565.866        3948.984
 93  5  8  7 39 29.9990000  0  7 23 21 17 31  1 28  3               -0.000944420
 -16114548.490 8 -12565276.285 9  20930612.674        1308.873
 -21818349.674 7 -16999127.830 9  20315010.702        -707.000
 -14682209.424 7 -10920683.315 6  21827164.437        2049.390
 -11485939.050 6  -8967171.639 5  23123473.184       -2682.215
 -14037367.637 7 -10942446.193 6  21717609.243       -3191.572
 -20580949.427 7 -16052606.866 7  20787716.100        -688.941
 -17283214.780 5  -4585497.909 4  23983130.066        3955.657
 93  5  8  7 39 59.9990000  0  7 23 21 17 31  1 28  3               -0.000947570
 -16075191.451 8 -12534608.463 9  20938102.093        1315.109
 -21839415.231 7 -17015542.544 9  20311001.636        -697.314
 -14620604.011 7 -10872679.102 6  21838887.734        2057.756
 -11566208.977 6  -9029719.601 5  23108197.670       -2668.972
 -14132939.618 7 -11016917.819 6  21699422.443       -3179.903
 -20601305.133 7 -16068468.459 7  20783842.925        -668.057
 -17164450.307 5  -4492954.215 4  24005729.948        3961.857
 93  5  8  7 40 29.9990000  0  7 23 21 17 31  1 28  3               -0.000950720
 -16035647.299 8 -12503794.832 8  20945627.005        1321.153
 -21860199.188 7 -17031737.838 9  20307046.705        -688.253
 -14558735.289 7 -10824469.714 6  21850660.930        2067.062
 -11646079.196 6  -9091956.117 5  23092998.867       -2655.539
 -14228163.032 7 -11091117.879 6  21681302.247       -3168.309
 -20621037.244 7 -16083844.133 7  20780087.904        -647.345
 -17045499.437 5  -4400265.253 4  24028365.440        3968.042
 93  5  8  7 40 59.9990000  0  7 23 21 17 31  1 28  3               -0.000953870
 -15995934.698 8 -12472849.963 8  20953184.102        1326.483
 -21880722.428 7 -17047729.972 9  20303141.079        -679.790
 -14496587.681 7 -10776043.011 6  21862487.235        2076.364
 -11725545.764 6  -9153878.094 5  23077876.905       -2641.927
 -14323044.350 7 -11165051.366 6  21663246.897       -3156.918
 -20640152.744 7 -16098739.332 7  20776450.123        -626.683
 -16926364.093 5  -4307432.508 4  24051036.949        3974.159
 93  5  8  7 41 29.9990000  0  7 23 21 17 31  1 28  3               -0.000957010
 -15956062.646 8 -12441780.822 9  20960771.560        1331.779
 -21900983.562 8 -17063517.859 9  20299285.518        -670.887
 -14434151.471 7 -10727391.418 6  21874368.468        2086.101
 -11804603.829 6  -9215481.761 5  23062832.851       -2628.555
 -14417580.866 7 -11238716.154 6  21645257.509       -3145.553
 -20658648.304 7 -16113151.443 7  20772930.799        -606.335
 -16807044.312 5  -4214456.084 4  24073742.015        3980.208
 93  5  8  7 41 59.9990000  0  7 23 21 17 31  1 28  3               -0.000960140
 -15916025.193 8 -12410582.805 8  20968390.294        1337.335
 -21920971.194 7 -17079092.652 9  20295482.354        -661.783
 -14371420.589 6 -10678510.236 6  21886306.085        2095.768
 -11883252.502 6  -9276766.446 5  23047866.734       -2614.820
 -14511783.664 7 -11312120.921 6  21627330.963       -3134.710
 -20676523.753 7 -16127080.374 7  20769529.345        -585.390
 -16687543.888 5  -4121338.924 4  24096482.906        3986.210
 93  5  8  7 42 29.9990000  0  7 23 21 17 31  1 28  3               -0.000963270
 -15875826.009 8 -12379258.766 8  20976039.950        1342.486
 -21940687.624 7 -17094456.086 9  20291730.317        -652.635
 -14308408.469 6 -10629409.845 6  21898296.965        2104.783
 -11961487.682 6  -9337728.918 5  23032979.181       -2600.939
 -14605659.719 7 -11385271.090 6  21609467.077       -3123.630
 -20693770.644 7 -16140519.523 7  20766247.405        -564.506
 -16567864.164 5  -4028082.022 4  24119256.824        3992.093
 93  5  8  7 42 59.9990000  0  7 23 21 17 31  1 28  3               -0.000966410
 -15835472.911 8 -12347814.803 8  20983719.044        1347.849
 -21960133.457 7 -17109608.692 9  20288029.691        -643.636
 -14245142.150 6 -10580111.419 6  21910335.751        2113.093
 -12039313.255 6  -9398372.197 5  23018169.225       -2587.319
 -14699206.396 7 -11458164.568 6  21591665.741       -3112.620
 -20710398.867 7 -16153476.579 7  20763083.096        -543.817
 -16448014.262 5  -3934692.498 5  24142063.878        3997.722
 93  5  8  7 43 29.9990000  0  7 23 21 17 31  1 28  3               -0.000969550
 -15794955.929 8 -12316243.135 8  20991429.247        1353.495
 -21979303.011 7 -17124545.988 9  20284381.745        -634.153
 -14181625.084 6 -10530617.616 6  21922422.513        2121.466
 -12116726.169 6  -9458693.935 5  23003438.049       -2573.385
 -14792412.508 7 -11530792.698 6  21573929.031       -3100.966
 -20726399.165 7 -16165944.348 7  20760038.494        -522.787
 -16327996.245 5  -3841172.036 5  24164902.367        4003.399
 93  5  8  7 43 59.9990000  0  7 23 21 17 31  1 28  3               -0.000972690
 -15754271.831 8 -12284541.242 8  20999171.085        1358.827
 -21998202.864 7 -17139273.166 9  20280785.315        -625.713
 -14117868.688 6 -10480937.310 5  21934555.544        2128.936
 -12193721.898 6  -9518690.597 5  22988786.217       -2559.649
 -14885266.545 7 -11603146.474 6  21556259.292       -3089.152
 -20741769.590 7 -16177921.306 7  20757113.639        -501.922
 -16207810.606 5  -3747520.896 5  24187772.940        4008.837
 93  5  8  7 44 29.9990000  0  7 23 21 17 31  1 28  3               -0.000975840
 -15713431.653 8 -12252717.727 8  21006942.796        1363.942
 -22016852.538 7 -17153805.365 9  20277236.421        -617.448
 -14053880.487 6 -10431076.372 5  21946731.855        2137.033
 -12270302.001 6  -9578363.394 5  22974213.443       -2545.671
 -14977756.761 7 -11675216.746 7  21538659.376       -3076.726
 -20756516.222 7 -16189412.201 7  20754307.332        -481.174
 -16087463.901 5  -3653744.332 4  24210674.486        4014.065
 93  5  8  7 44 59.9990000  0  7 23 21 17 31  1 28  3               -0.000978990
 -15672434.110 8 -12220771.592 8  21014744.485        1368.959
 -22035256.536 7 -17168146.139 9  20273734.414        -609.618
 -13989640.350 6 -10381019.135 5  21958955.982        2145.556
 -12346464.643 6  -9637710.913 5  22959720.358       -2531.910
 -15069871.944 7 -11746994.795 7  21521130.343       -3064.558
 -20770635.728 7 -16200414.408 7  20751620.513        -460.187
 -15966959.550 5  -3559844.909 4  24233605.474        4019.094
 93  5  8  7 45 29.9990000  0  7 23 21 17 31  1 28  3               -0.000982160
 -15631289.830 8 -12188711.116 8  21022573.685        1374.069
 -22053421.521 8 -17182300.681 9  20270277.720        -601.119
 -13925144.836 6 -10330762.898 5  21971229.204        2154.182
 -12422212.462 6  -9696735.173 5  22945305.884       -2517.802
 -15161621.648 7 -11818488.061 7  21503670.911       -3052.168
 -20784122.165 7 -16210923.317 7  20749053.980        -438.892
 -15846305.162 5  -3465828.522 4  24256564.503        4024.405
 93  5  8  7 45 59.9990000  0  7 23 21 17 31  1 28  3               -0.000985320
 -15589991.655 8 -12156530.718 8  21030432.426        1379.309
 -22071331.586 8 -17196256.568 9  20266869.597        -592.620
 -13860399.357 6 -10280311.861 5  21983549.826        2162.358
 -12497536.081 6  -9755428.884 5  22930972.400       -2503.707
 -15253011.807 7 -11889701.148 7  21486279.728       -3040.508
 -20796971.718 7 -16220935.966 7  20746608.820        -417.608
 -15725496.455 5  -3371691.925 3  24279554.271        4029.418
 93  5  8  7 46 29.9990000  0  7 23 21 17 31  1 28  3               -0.000988490
 -15548530.522 8 -12124223.352 8  21038322.072        1384.772
 -22088967.416 8 -17209998.770 9  20263513.600        -582.888
 -13795395.514 6 -10229659.525 5  21995919.430        2171.166
 -12572431.322 6  -9813788.809 5  22916720.313       -2489.265
 -15344049.292 7 -11960639.425 7  21468955.762       -3028.653
 -20809183.879 7 -16230451.939 7  20744285.022        -396.537
 -15604534.613 5  -3277435.941 3  24302571.578        4034.454
 93  5  8  7 46 59.9990000  0  7 23 21 17 31  1 28  3               -0.000991660
 -15506904.672 8 -12091787.627 8  21046243.300        1390.144
 -22106303.034 8 -17223507.054 9  20260214.757        -572.920
 -13730130.909 6 -10178803.969 5  22008338.874        2179.790
 -12646893.412 6  -9871811.206 5  22902550.842       -2474.840
 -15434734.620 7 -12031303.303 7  21451698.897       -3017.150
 -20820763.754 7 -16239475.217 7  20742081.554        -375.613
 -15483419.920 5  -3183060.923 3  24325618.895        4039.555
 93  5  8  7 47 29.9990000  0  7 23 21 17 31  1 28  3               -0.000994840
 -15465121.842 8 -12059229.570 8  21054194.424        1395.419
 -22123339.521 8 -17236782.226 9  20256972.701        -562.958
 -13664609.255 6 -10127748.143 5  22020807.631        2188.364
 -12720919.784 6  -9929494.089 5  22888464.036       -2460.280
 -15525077.005 7 -12101699.957 7  21434507.009       -3005.675
 -20831726.267 7 -16248017.451 7  20739995.449        -355.338
 -15362155.027 5  -3088568.825 2  24348695.377        4044.515
 93  5  8  7 47 59.9990000  0  7 23 21 17 31  1 28  3               -0.000998010
 -15423174.119 8 -12026543.029 8  21062176.747        1400.983
 -22140086.647 8 -17249831.919 9  20253785.737        -553.675
 -13598823.303 6 -10076486.376 5  22033326.226        2197.289
 -12794508.617 6  -9986836.023 5  22874460.583       -2445.754
 -15615065.988 7 -12171821.218 7  21417382.905       -2993.601
 -20842085.137 7 -16256089.293 7  20738024.315        -335.359
 -15240742.939 5  -2993962.011 2  24371799.817        4049.241
 93  5  8  7 48 29.9980000  0  7 23 21 17 31  1 28  3               -0.001001190
 -15381062.721 8 -11993728.956 8  21070190.142        1406.406
 -22156552.592 8 -17262662.529 9  20250652.534        -544.328
 -13532764.263 6 -10025011.789 5  22045896.553        2206.695
 -12867657.165 6 -10043834.886 5  22860540.958       -2430.942
 -15704683.084 7 -12241652.695 7  21400329.539       -2981.166
 -20851842.075 7 -16263692.113 7  20736167.619        -315.059
 -15119192.196 5  -2899247.193 3  24394929.350        4054.103
 93  5  8  7 48 59.9980000  0  7 23 21 17 31  1 28  3               -0.001004350
 -15338793.895 8 -11960792.209 8  21078233.533        1411.623
 -22172756.356 8 -17275288.838 9  20247569.081        -536.137
 -13466420.723 6  -9973315.525 5  22058521.365        2216.197
 -12940363.495 6 -10100489.160 5  22846705.404       -2416.141
 -15793930.501 7 -12311196.131 7  21383346.508       -2968.808
 -20860976.541 7 -16270809.890 7  20734429.313        -293.849
 -14997493.012 5  -2804416.661 3  24418088.210        4058.874
 93  5  8  7 49 29.9980000  0  7 23 21 17 31  1 28  3               -0.001007510
 -15296364.036 8 -11927729.985 8  21086307.803        1417.154
 -22188720.752 8 -17287728.623 9  20244531.274        -528.076
 -13399803.521 6  -9921406.043 5  22071198.498        2224.904
 -13012626.476 6 -10156797.972 5  22832953.866       -2401.391
 -15882814.805 7 -12380456.589 7  21366431.928       -2956.634
 -20869476.034 7 -16277432.891 7  20732811.962        -272.563
 -14875655.880 5  -2709478.738 3  24441274.137        4063.403
 93  5  8  7 49 59.9980000  0  7 23 21 17 31  1 28  3               -0.001010670
 -15253765.980 8 -11894536.696 8  21094414.120        1422.650
 -22204436.136 8 -17299974.369 9  20241540.694        -519.473
 -13332931.493 6  -9869297.952 5  22083923.948        2233.273
 -13084445.633 6 -10212760.940 5  22819287.256       -2386.505
 -15971326.827 7 -12449426.972 7  21349588.636       -2944.245
 -20877326.001 7 -16283549.745 7  20731318.256        -250.627
 -14753685.383 5  -2614436.812 4  24464484.201        4067.775
 93  5  8  7 50 29.9980000  0  6 23 21 17 31  1 28                  -0.001013830
 -15211007.383 8 -11861218.309 8  21102550.788        1427.797
 -22219880.802 8 -17312009.160 9  20238601.578        -510.401
 -13265801.820 6  -9816989.137 5  22096697.924        2241.959
 -13155815.226 6 -10268373.603 5  22805706.018       -2371.527
 -16059467.670 7 -12518108.123 7  21332816.149       -2931.916
 -20884511.352 7 -16289148.733 7  20729950.996        -228.570
 93  5  8  7 50 59.9980000  0  6 23 21 17 31  1 28                  -0.001017010
 -15168092.110 8 -11827777.830 8  21110717.245        1433.236
 -22235056.989 8 -17323834.766 9  20235713.498        -501.365
 -13198410.053 6  -9764476.105 5  22109522.156        2250.670
 -13226733.537 6 -10323634.605 5  22792210.780       -2356.454
 -16147232.086 7 -12586495.957 7  21316115.580       -2919.037
 -20891038.800 7 -16294235.055 7  20728708.723        -206.845
 93  5  8  7 51 29.9980000  0  6 23 21 17 31  1 28                  -0.001020200
 -15125019.610 8 -11794214.841 8  21118913.730        1438.103
 -22249956.112 8 -17335444.457 9  20232878.330        -491.860
 -13130767.170 6  -9711767.351 5  22122394.293        2259.000
 -13297201.255 6 -10378544.490 5  22778801.015       -2341.397
 -16234604.924 7 -12654578.674 7  21299488.981       -2905.744
 -20896930.025 7 -16298825.627 7  20727587.720        -185.844
 93  5  8  7 51 59.9980000  0  6 23 21 17 31  1 28                  -0.001023400
 -15081809.406 8 -11760544.545 8  21127136.298        1442.382
 -22264576.459 8 -17346836.940 9  20230096.066        -483.053
 -13062863.916 6  -9658855.739 5  22135315.900        2267.834
 -13367213.523 6 -10433099.497 5  22765478.247       -2326.276
 -16321575.286 7 -12722347.762 7  21282939.127       -2892.463
 -20902190.829 7 -16302924.976 7  20726586.533        -165.098
 93  5  8  7 52 29.9980000  0  6 23 21 17 31  1 28                  -0.001026580
 -15038467.817 8 -11726771.888 8  21135383.918        1446.855
 -22278935.448 8 -17358025.763 9  20227363.688        -474.559
 -12994690.307 6  -9605733.427 5  22148288.467        2276.629
 -13436768.531 6 -10487298.210 5  22752242.371       -2310.912
 -16408146.434 7 -12789805.790 7  21266465.173       -2879.166
 -20906831.713 7 -16306541.243 7  20725703.645        -144.629
